GFSSW_925_spd_000.txt.gz
Wind_Speed
9 9 8 7 7 6 5 5 4 4 4 2 9 13 12 10 8 9 6 7 4 4 4 8 7 7 3 3 3 2 2 6 8 8 10 3 3 4 4 5 3 3 6 6 8
10 10 9 8 8 6 5 4 2 2 2 2 1 7 8 7 9 11 17 10 11 9 5 3 4 9 2 3 3 5 6 9 6 9 7 7 6 7 2 2 2 2 0 5 17
12 11 10 8 8 6 5 3 1 1 1 1 1 1 2 6 2 7 17 24 19 11 5 3 4 1 3 3 4 5 11 5 4 11 7 7 4 6 7 5 6 4 2 3 9
14 13 12 10 9 7 5 3 0 0 1 1 0 3 6 7 6 1 2 1 15 17 12 3 1 3 3 5 5 8 8 10 4 6 5 4 4 6 5 7 6 7 5 5 9
15 14 13 11 10 8 6 4 2 1 1 1 3 3 6 3 6 1 6 7 6 13 16 6 4 3 4 4 4 9 7 10 10 14 14 13 12 9 10 9 8 8 7 8 8
17 16 14 12 11 9 7 5 5 4 3 1 2 5 2 6 7 10 10 3 4 6 8 10 6 6 5 6 8 5 6 11 9 12 8 17 19 5 8 9 9 8 11 10 9
19 17 17 13 13 11 8 5 5 5 5 3 2 4 3 11 6 4 2 12 10 9 4 13 17 2 1 4 4 6 11 10 8 5 10 11 22 16 10 8 10 10 11 9 9
20 19 20 15 14 13 10 8 6 7 7 6 3 4 6 7 6 16 12 4 6 10 8 9 9 9 4 5 6 4 4 8 4 8 5 8 25 8 10 9 11 11 10 8 7
21 20 20 16 15 14 11 8 6 7 6 6 4 3 7 3 5 14 12 5 2 2 8 11 5 3 2 2 5 4 6 6 5 5 5 12 24 11 10 8 11 10 10 8 7
23 21 20 17 15 14 11 7 4 7 5 4 1 2 5 4 5 3 12 10 3 3 4 2 1 2 2 5 14 12 7 9 9 3 8 17 21 9 10 10 11 12 7 8 9
23 22 22 19 17 16 14 8 3 1 6 8 7 3 2 4 5 3 10 7 3 3 5 2 4 11 11 9 5 7 9 12 4 4 10 15 17 17 12 9 11 10 7 8 9
25 24 23 21 19 19 17 4 4 4 3 14 12 11 8 3 3 3 13 6 6 9 4 3 11 8 7 8 10 11 16 15 9 9 8 9 15 14 15 14 12 13 8 9 6
26 25 25 23 20 19 19 10 7 2 2 5 7 7 6 10 6 6 11 6 8 14 14 13 6 15 12 11 11 14 17 10 9 14 18 12 22 13 12 11 13 8 9 11 16
25 27 28 24 15 15 12 16 9 2 3 4 4 4 6 5 5 18 19 7 5 16 13 13 16 15 11 14 10 18 7 13 13 6 7 3 9 8 9 13 12 10 10 14 10
25 29 32 35 13 14 10 20 14 2 3 4 4 2 4 9 5 4 19 7 14 8 7 8 8 15 20 18 15 11 9 11 10 10 7 18 9 5 10 10 16 13 14 16 16
19 33 37 24 13 13 15 23 10 3 8 5 4 4 6 7 3 3 9 7 1 14 14 8 1 5 7 11 17 4 9 8 6 4 11 16 9 9 10 12 8 6 12 16 15
26 39 42 32 11 24 31 10 3 5 2 6 4 5 5 7 8 7 6 9 5 7 7 6 18 5 3 3 5 12 7 3 6 6 8 6 12 19 8 16 20 10 12 15 15
28 48 37 25 30 35 18 2 6 5 5 4 4 7 6 7 6 9 5 10 14 6 2 8 4 15 11 17 5 13 15 6 6 4 5 7 10 6 17 21 17 12 15 19 17
28 35 29 23 37 35 7 4 6 6 6 9 7 6 8 6 5 9 9 9 10 13 9 6 6 2 2 4 14 5 12 20 7 5 3 5 5 8 13 8 8 11 19 20 19
29 19 21 30 41 19 6 6 5 3 6 4 8 8 8 9 8 8 9 8 8 18 12 5 3 7 6 7 12 10 7 7 7 5 5 5 5 7 7 7 6 15 19 18 16
8 6 20 37 28 8 7 6 4 4 6 6 7 8 7 6 8 7 5 4 12 10 18 5 5 1 2 9 11 9 11 6 8 8 3 4 4 8 13 9 12 16 19 19 18
6 5 35 37 7 5 5 5 5 4 3 3 5 9 7 9 7 5 8 7 11 9 11 11 4 5 13 3 10 17 16 15 8 12 10 2 6 4 16 9 17 17 17 16 16
7 4 33 23 6 9 3 7 4 5 6 7 11 10 9 6 4 11 6 9 9 8 10 10 4 3 4 6 9 12 19 19 21 4 5 4 7 9 3 8 10 14 12 14 14
3 5 5 6 1 10 13 8 7 7 10 6 5 10 5 6 8 3 8 5 8 10 14 14 4 6 7 1 2 11 21 18 15 12 9 12 13 21 5 8 7 8 13 15 16
2 3 5 9 7 12 10 4 12 7 5 9 4 11 7 4 6 8 7 4 4 10 8 6 6 7 18 17 14 12 20 21 19 9 12 5 16 27 15 10 12 10 11 14 14
3 3 3 9 11 9 14 10 12 8 6 6 8 8 13 10 6 0 6 4 5 12 8 3 3 4 13 12 16 8 23 15 12 7 7 11 14 19 3 6 7 12 14 15 16
3 2 4 11 11 8 6 8 8 3 8 9 12 8 10 16 13 6 6 4 2 4 5 7 2 3 4 7 13 6 19 13 5 8 14 13 21 5 4 6 5 8 15 17 16

GFSSW_925_spd_003.txt.gz
Wind_Speed
14 12 13 12 12 12 10 8 9 8 7 4 7 16 12 9 9 8 7 8 6 8 3 8 6 9 1 2 3 3 1 7 9 8 6 1 1 3 1 2 3 2 6 4 4
15 13 13 13 13 12 10 8 8 6 5 2 4 12 10 11 11 12 19 9 13 6 4 3 3 7 1 2 3 4 5 7 4 5 6 1 4 5 3 4 2 3 3 3 10
17 14 13 14 14 12 11 9 7 4 3 2 3 4 8 12 1 6 17 22 18 9 6 1 2 1 2 3 3 4 11 7 3 7 7 5 3 3 4 6 7 6 4 2 5
20 16 14 14 14 12 11 9 6 4 4 3 3 6 7 7 6 1 1 5 15 17 7 3 2 1 2 5 4 5 4 6 1 4 3 4 3 4 5 6 5 8 2 4 8
20 18 15 15 14 13 11 9 7 4 2 4 5 6 7 3 7 2 3 4 8 15 12 4 2 1 3 3 4 5 2 5 6 10 12 11 14 7 9 8 10 9 6 8 8
20 21 16 17 15 14 12 10 8 6 3 3 5 7 2 5 6 12 5 3 6 8 7 9 4 4 4 4 3 5 6 6 7 11 5 11 15 7 5 7 8 9 11 10 9
22 22 19 18 17 15 12 10 8 7 5 3 3 4 1 10 4 6 2 6 7 4 4 8 7 2 3 4 3 4 7 8 6 4 6 3 20 18 6 9 9 11 10 11 10
23 23 23 19 18 15 13 11 9 8 8 5 3 3 6 5 5 16 13 4 9 10 7 4 4 5 4 5 5 3 3 5 4 7 6 9 22 2 10 11 12 12 9 10 9
25 25 24 22 19 17 14 11 7 6 6 5 2 1 8 4 4 13 13 6 5 6 5 4 1 3 1 3 5 6 8 5 5 7 5 12 17 7 10 11 11 10 10 11 9
25 26 26 23 20 17 14 10 6 6 5 4 2 2 5 3 4 3 10 11 3 4 3 3 3 3 4 7 11 4 5 4 6 2 5 16 20 7 8 9 14 11 12 9 8
24 25 26 26 23 19 18 11 4 1 7 7 6 3 1 3 4 3 7 10 4 4 5 2 5 10 14 8 7 6 10 12 5 6 6 10 15 13 9 11 14 9 13 10 10
30 25 24 27 24 24 25 5 4 3 4 14 9 11 5 2 2 3 13 6 5 5 5 1 12 8 7 6 9 11 15 14 11 10 10 11 18 11 12 15 13 13 16 12 5
30 24 23 30 27 26 24 13 6 3 1 6 7 9 5 8 5 7 10 5 4 6 8 10 5 10 7 8 10 10 11 14 15 7 15 12 28 19 13 16 15 16 13 11 12
29 28 24 33 24 22 14 20 7 2 2 5 5 5 6 5 7 13 15 6 3 11 6 11 12 12 5 13 9 16 7 11 12 6 10 2 12 9 7 15 18 16 10 11 10
26 28 26 43 25 12 12 23 13 4 2 3 3 1 8 11 3 5 14 3 8 7 5 6 5 10 19 15 11 8 6 9 8 7 7 15 8 6 14 20 14 10 10 11 13
22 24 27 29 23 21 25 28 10 3 7 5 4 5 9 6 2 3 6 4 2 9 11 8 3 6 6 10 14 1 6 11 4 6 13 11 11 13 13 7 6 8 9 10 11
18 23 19 37 15 34 38 13 5 5 1 6 6 6 10 6 5 5 10 10 7 6 8 8 15 2 3 4 5 9 5 3 7 8 8 5 12 22 4 7 9 12 9 8 10
16 18 21 24 36 43 29 3 4 4 5 2 5 5 7 7 5 8 9 10 14 3 3 7 5 17 9 8 6 11 13 6 5 4 5 13 11 7 13 22 20 16 8 8 10
12 10 14 29 45 41 12 2 7 6 6 8 7 5 7 7 3 8 12 15 8 17 8 4 6 2 3 16 10 5 10 20 12 13 5 5 6 6 9 12 15 13 8 13 15
1 7 12 43 44 24 7 6 5 3 7 3 7 11 10 9 9 8 7 4 13 12 13 3 4 4 5 6 10 8 5 4 5 5 6 6 5 7 6 18 16 9 13 13 14
5 4 14 37 31 8 5 5 4 4 5 5 7 8 7 6 9 8 5 5 10 7 16 7 5 2 5 10 12 10 10 6 5 6 3 3 7 6 5 11 11 10 11 15 16
2 4 24 42 8 5 5 5 5 4 1 2 4 6 8 7 7 5 8 8 8 11 10 10 4 6 15 4 14 14 14 14 4 5 9 5 9 3 6 12 8 7 10 11 12
3 3 25 28 6 8 3 3 2 4 5 6 7 6 8 5 4 8 6 8 13 12 14 9 5 4 4 6 7 7 13 18 16 4 11 9 11 4 13 13 3 9 11 12 12
3 4 5 5 1 12 10 6 4 4 5 5 4 8 6 6 8 3 5 4 13 10 11 11 4 7 7 3 2 7 16 21 20 11 10 15 15 20 21 11 7 1 12 12 13
2 4 5 9 7 14 9 4 9 5 5 10 4 10 8 4 6 7 6 6 7 10 6 6 6 9 16 17 11 10 11 21 22 24 13 11 14 19 23 17 3 4 8 13 13
2 3 4 7 12 10 14 9 6 10 7 6 7 9 12 9 7 4 5 5 5 10 9 6 3 3 7 17 22 17 17 18 25 18 20 10 19 16 21 8 5 11 13 13 13
7 5 3 13 12 12 10 9 10 5 7 8 11 10 10 14 15 16 7 8 5 8 9 4 2 2 9 3 10 7 24 20 22 17 15 13 15 10 11 7 2 7 13 15 14

GFSSW_925_spd_006.txt.gz
Wind_Speed
18 15 17 13 12 12 11 11 10 12 13 12 10 10 14 12 9 7 6 8 4 13 2 3 2 5 3 1 2 3 1 6 6 7 6 2 1 3 2 3 2 3 3 3 4
21 18 15 14 12 12 11 10 9 10 12 9 6 7 13 11 10 12 16 10 7 5 0 2 1 3 1 2 2 4 4 7 6 6 4 4 4 2 4 4 4 4 3 3 2
19 21 17 14 12 11 11 10 9 8 8 7 5 4 7 6 3 6 17 20 14 11 5 2 2 2 2 2 4 4 8 4 3 4 4 4 4 3 3 5 7 6 6 5 3
19 20 20 16 12 12 11 10 8 6 7 6 5 4 3 7 6 1 3 3 15 17 9 4 2 3 3 5 4 3 6 5 1 3 3 3 4 6 5 7 5 5 5 4 6
22 20 21 19 13 12 12 9 7 6 5 6 5 4 4 3 6 1 2 2 8 20 13 8 3 4 4 3 1 5 3 4 4 7 6 7 13 9 11 10 10 10 6 10 8
22 22 21 22 16 14 13 10 8 6 5 4 4 5 1 5 5 8 4 4 10 15 11 8 4 5 3 4 3 2 3 5 5 6 6 10 13 5 13 7 8 8 10 10 10
20 24 22 23 19 15 13 11 10 8 7 5 3 3 1 10 2 5 4 3 3 6 5 8 7 1 1 3 1 3 4 6 6 5 6 5 16 19 15 9 10 9 9 10 11
29 22 22 23 21 17 13 11 10 8 8 6 4 2 6 5 6 13 8 1 7 4 2 7 6 4 3 4 4 3 2 2 4 7 6 6 14 5 6 15 18 15 10 10 12
27 25 20 20 25 19 15 12 8 6 5 5 2 2 7 4 4 8 7 6 6 6 4 2 3 3 2 3 3 5 4 4 5 2 4 13 8 5 8 10 12 10 9 10 10
27 28 21 19 24 22 17 12 8 7 5 3 0 2 3 3 3 4 7 10 3 5 3 3 2 3 3 4 6 5 6 4 5 2 3 11 16 12 8 8 10 9 9 9 9
27 28 25 18 20 27 22 13 4 1 6 7 5 3 1 2 4 3 6 8 4 4 5 2 4 10 14 10 7 1 3 8 5 7 7 8 14 15 9 10 10 14 9 12 9
24 27 24 20 19 32 31 7 7 4 4 13 6 7 6 3 3 2 12 5 4 5 4 2 13 8 4 5 6 8 11 13 8 9 9 11 23 18 14 16 11 11 13 10 9
25 26 23 21 21 37 31 14 17 6 0 4 7 6 3 5 3 7 9 5 3 6 8 10 3 4 11 5 6 5 11 6 11 11 14 13 28 19 24 22 19 18 17 14 15
26 27 23 22 14 34 14 23 15 8 4 4 4 6 6 5 5 12 14 6 3 10 8 9 8 7 4 6 6 14 7 12 11 4 4 5 10 8 7 10 16 19 14 13 13
30 29 25 20 6 18 19 27 15 6 2 3 4 4 7 12 3 1 10 3 7 7 6 5 3 5 13 12 7 5 6 8 8 6 5 8 7 5 6 10 14 10 10 12 14
38 31 21 16 17 24 32 31 13 5 6 5 4 5 9 6 1 4 5 1 2 5 7 6 3 4 5 4 12 0 4 6 4 6 10 11 9 11 5 6 8 11 11 11 11
30 25 17 20 5 37 45 13 5 4 1 6 5 7 8 7 5 6 11 9 6 4 7 5 16 4 4 4 5 8 5 2 5 6 7 8 11 21 9 11 8 11 11 10 8
29 14 13 19 19 50 29 4 4 6 5 3 6 7 6 5 5 6 10 8 13 3 1 5 6 13 11 14 6 10 10 4 5 3 4 6 7 6 10 16 19 18 11 6 7
10 11 8 18 33 46 13 5 8 6 7 8 10 6 7 5 2 6 8 8 8 14 7 3 5 1 3 7 11 4 8 13 6 6 4 5 7 8 10 11 12 11 12 10 8
1 5 6 11 37 29 7 6 5 4 7 3 5 5 7 7 7 7 7 4 12 15 12 2 6 4 3 5 10 7 0 3 5 5 5 7 10 10 13 6 8 13 15 8 8
4 3 10 9 23 5 5 4 4 4 6 5 4 4 4 5 6 5 4 4 6 4 15 5 5 0 3 9 12 8 6 5 2 3 5 3 6 8 6 4 13 16 14 10 13
4 0 18 41 6 3 4 6 4 4 1 3 3 4 6 7 6 6 8 6 6 9 9 9 3 6 15 5 12 13 11 12 5 6 4 3 15 3 2 5 10 16 9 4 7
2 1 18 29 3 4 4 3 3 3 4 5 4 5 4 6 3 8 4 6 9 11 11 10 5 3 4 2 3 9 13 15 13 3 8 4 7 4 4 8 9 9 4 5 7
3 3 5 5 3 8 8 4 3 2 4 4 4 4 4 5 5 2 4 4 13 9 10 12 5 8 9 4 2 6 11 16 16 8 14 17 16 16 16 17 11 6 3 5 9
2 3 3 5 4 11 4 6 4 1 1 6 4 8 5 4 6 8 8 5 7 11 9 8 7 12 21 22 11 6 12 17 21 20 11 19 19 17 9 17 12 7 6 8 10
3 2 1 7 9 11 6 6 11 8 4 4 6 7 8 7 6 2 3 6 5 9 10 5 6 5 10 15 19 15 18 16 21 24 24 20 21 14 14 19 16 9 11 10 10
5 5 2 12 9 9 8 5 6 7 6 6 10 8 9 13 13 14 9 7 4 5 8 3 3 3 6 9 8 10 22 21 15 20 19 17 25 9 15 6 6 7 9 11 12

GFSSW_925_spd_009.txt.gz
Wind_Speed
20 19 18 14 13 9 9 9 10 11 10 9 11 12 7 13 10 7 6 8 4 8 1 1 2 2 4 2 2 3 2 7 8 8 6 2 1 2 1 3 3 2 2 3 3
21 19 20 17 13 11 9 8 9 10 10 8 8 7 7 9 10 12 10 8 6 4 6 2 2 1 2 2 1 3 4 8 6 6 4 2 2 1 2 4 5 6 4 5 3
21 20 19 19 14 13 9 7 9 8 8 6 5 6 4 10 3 4 9 19 14 12 4 4 5 1 2 2 3 3 7 4 3 4 2 2 4 3 4 7 6 6 4 8 2
27 20 19 19 17 14 10 8 8 8 6 6 4 4 2 3 4 2 2 4 17 13 10 7 3 3 2 3 2 3 6 5 3 2 2 4 1 5 6 8 5 4 4 5 10
28 22 20 19 21 15 11 9 9 7 5 5 3 2 1 3 4 1 1 3 9 18 13 6 3 4 3 2 1 3 2 3 4 5 5 6 12 13 12 10 9 12 9 12 11
28 27 21 19 20 19 13 11 9 8 6 4 2 3 4 5 5 7 2 2 7 18 10 6 4 4 2 2 3 1 3 5 6 8 6 12 18 6 13 12 14 10 12 10 10
27 28 25 18 18 22 16 12 10 10 7 4 3 4 2 9 3 2 5 4 8 10 6 8 6 3 4 1 1 2 5 8 8 7 7 4 13 15 21 15 16 14 13 12 12
28 28 26 20 16 20 19 15 10 10 10 6 5 4 5 3 11 16 5 4 5 7 7 10 7 3 2 1 4 2 2 3 3 4 6 9 13 7 2 11 17 18 12 13 14
26 27 24 24 15 17 23 17 12 8 6 8 5 4 6 1 4 7 12 7 7 6 6 9 6 4 2 2 2 3 4 5 5 4 2 12 6 5 9 3 10 11 12 11 13
29 27 24 24 18 11 23 19 14 10 9 6 3 1 3 2 4 8 10 11 4 6 3 3 3 3 3 5 5 4 4 5 5 2 3 11 17 15 13 13 16 13 11 10 11
29 26 23 24 22 13 28 19 6 2 6 7 5 2 2 4 7 4 10 8 4 4 5 2 5 10 12 8 4 1 4 7 5 10 11 13 21 17 16 12 15 15 16 14 13
28 25 22 22 26 21 38 6 10 11 5 10 3 4 5 1 4 2 13 5 5 4 5 3 10 9 2 4 8 10 15 17 11 7 10 12 27 17 17 19 18 18 16 16 13
25 23 21 22 26 20 31 15 27 17 5 2 6 5 4 3 2 8 8 4 4 5 7 5 4 2 10 7 9 13 16 15 17 9 14 15 25 18 18 23 20 21 21 21 19
24 23 26 22 16 11 21 24 22 15 4 4 4 5 7 5 4 8 13 5 2 10 7 9 9 6 4 6 8 15 8 11 13 6 8 2 10 8 6 10 9 12 16 17 17
27 29 29 20 14 4 13 33 27 4 2 4 4 6 6 11 5 0 6 3 7 6 5 3 4 3 10 8 7 6 5 7 9 9 8 13 7 6 2 5 9 10 14 14 16
33 33 21 14 17 16 27 29 9 5 6 5 5 7 8 4 3 4 8 0 3 5 6 5 1 4 6 5 11 1 3 6 3 6 10 11 10 17 7 8 4 7 12 10 13
41 36 25 16 7 21 31 11 4 3 1 8 6 8 9 6 5 6 9 9 5 4 4 3 14 5 4 3 2 6 3 3 5 7 8 8 11 19 10 19 16 17 14 9 9
37 26 18 18 22 7 26 4 4 5 3 5 10 10 5 8 5 7 10 7 10 3 2 4 4 10 8 14 6 9 9 5 5 5 5 3 8 8 11 14 15 10 12 10 9
23 5 7 18 18 12 9 3 6 6 8 10 11 5 3 3 2 4 7 5 9 13 6 3 5 2 6 4 9 4 10 11 6 11 5 4 7 9 12 12 5 7 9 12 11
19 2 3 16 13 4 3 6 2 4 11 9 5 4 9 9 7 8 7 4 6 12 10 2 5 4 1 4 6 7 1 3 5 5 6 6 7 11 7 7 4 6 9 15 12
11 1 8 9 15 3 2 2 5 3 5 4 4 5 6 6 8 6 4 3 6 5 13 5 5 1 2 10 12 8 5 6 2 4 4 5 6 5 12 5 3 5 10 13 13
2 2 14 18 6 2 1 6 4 3 3 3 4 5 4 6 5 5 5 5 6 8 9 8 3 6 13 8 14 16 13 17 8 6 5 3 13 10 8 3 4 9 9 9 8
1 1 12 11 3 3 4 4 4 3 2 2 3 3 3 5 4 6 4 5 8 9 10 8 5 4 6 1 4 9 16 16 14 5 15 7 8 2 2 4 7 10 8 6 3
1 1 3 2 2 5 4 3 5 3 2 3 4 5 4 3 4 3 4 3 11 8 8 11 5 8 11 12 1 6 14 20 15 8 12 20 21 17 15 13 12 14 8 4 4
3 2 1 3 2 4 4 3 6 3 1 3 3 3 5 4 5 5 6 3 5 10 8 9 8 11 21 23 17 12 13 18 20 23 12 15 16 17 13 10 10 12 14 6 7
3 1 1 5 6 6 3 3 4 3 4 3 2 7 7 5 4 3 3 5 5 6 9 6 5 4 18 18 19 22 18 18 22 21 23 20 24 18 11 8 8 14 18 12 9
5 3 2 9 7 4 3 5 7 5 2 2 5 3 7 9 9 9 9 7 4 6 11 4 3 3 13 7 9 6 14 21 19 18 13 16 20 10 7 6 12 16 10 8 11

GFSSW_925_spd_012.txt.gz
Wind_Speed
18 18 17 16 17 13 10 10 11 10 10 11 12 11 8 7 14 11 12 8 10 11 3 5 3 3 4 5 4 3 8 13 19 16 12 5 9 8 2 7 4 4 4 3 2
24 23 18 17 18 16 12 10 10 10 9 9 9 6 3 11 13 13 11 11 12 6 13 7 6 6 5 6 5 10 11 16 11 13 9 10 8 6 6 11 10 8 5 0 1
25 26 23 19 17 18 14 11 10 10 8 7 6 4 4 11 4 5 12 16 12 12 8 7 6 6 8 5 8 9 15 13 7 10 9 12 12 10 11 14 14 11 5 2 2
24 26 26 20 20 18 17 13 11 10 8 6 6 4 3 9 5 5 0 7 18 14 11 9 6 7 6 8 6 9 13 12 9 9 9 12 11 13 16 19 11 9 7 8 10
26 25 26 26 21 19 20 15 13 11 8 5 6 4 3 5 4 4 1 5 8 18 15 9 8 6 8 4 6 11 11 9 10 10 13 15 20 21 19 17 16 15 14 15 14
27 27 27 27 21 19 20 17 14 12 9 6 5 4 4 10 3 4 1 1 5 18 17 12 5 4 3 4 8 2 6 10 9 14 16 18 22 18 21 19 21 23 23 20 18
27 25 26 26 25 18 17 21 16 13 12 7 6 4 4 6 3 3 6 4 5 12 11 7 7 6 5 4 2 6 10 12 15 13 13 10 20 20 24 24 24 21 20 21 22
25 24 25 25 26 20 15 24 18 16 13 9 6 3 4 2 6 7 3 6 6 7 8 11 7 3 3 1 3 5 5 5 2 2 7 10 17 5 3 8 18 22 22 22 23
24 23 25 26 24 24 17 25 20 17 12 11 6 2 3 1 4 8 11 10 10 9 8 10 7 3 4 5 5 8 7 9 9 4 6 12 11 4 8 9 12 15 16 16 19
24 24 26 26 22 25 19 21 17 17 14 11 6 3 5 2 5 7 10 14 7 11 7 5 3 5 7 8 5 5 7 7 10 3 6 15 21 20 19 20 19 19 19 16 16
26 25 25 22 20 21 22 17 7 4 9 7 9 2 5 7 7 5 12 12 9 11 10 7 6 11 14 14 9 2 6 10 9 7 15 17 23 21 21 22 22 22 22 22 22
23 25 22 20 20 21 25 4 17 9 8 8 8 5 2 4 4 8 12 9 10 12 9 5 12 13 6 10 12 14 16 16 14 13 11 18 31 23 24 29 26 25 25 24 23
24 24 21 21 24 23 13 17 24 5 4 9 11 6 4 6 4 13 14 8 12 11 16 8 3 1 12 12 12 15 17 14 15 15 18 21 26 16 8 13 18 23 26 27 26
20 18 21 24 17 11 7 19 21 6 3 8 10 7 9 6 4 11 17 6 4 12 10 9 9 6 7 9 12 14 8 13 13 10 6 2 11 15 14 14 14 14 14 17 21
22 23 24 21 12 8 7 23 14 7 7 10 7 9 12 12 11 6 11 2 7 9 6 3 6 9 12 11 12 7 4 7 9 11 11 18 6 13 4 15 11 14 15 16 16
28 30 29 22 13 16 9 20 7 4 6 7 7 10 14 9 6 7 10 1 3 5 6 7 1 5 6 8 13 3 7 9 11 8 8 21 14 19 19 15 11 12 13 14 12
37 43 38 21 7 15 10 4 5 6 7 9 9 13 15 11 9 11 13 9 6 5 7 5 16 6 8 9 8 11 5 3 4 6 9 6 10 20 13 10 17 22 19 15 13
40 31 5 16 20 13 5 3 4 5 6 5 13 16 8 17 6 11 13 10 10 4 3 4 4 15 11 16 4 18 14 5 7 10 12 5 11 12 20 17 18 14 13 8 10
32 15 7 13 21 16 5 4 2 6 11 13 14 9 6 12 6 7 10 8 11 14 6 5 5 3 7 8 12 5 9 13 18 20 13 16 23 18 23 15 19 13 7 8 11
18 8 6 19 18 11 2 3 1 3 17 16 7 7 9 13 8 10 11 6 8 16 14 3 4 7 3 8 11 14 0 5 6 6 18 13 15 13 13 9 15 12 8 10 12
5 2 14 20 18 4 1 2 4 11 10 3 7 8 8 12 8 12 6 3 8 11 17 7 5 3 3 12 13 10 8 6 6 9 8 14 16 11 9 12 13 7 10 13 12
4 1 15 23 4 1 1 1 5 6 0 4 8 10 13 13 11 9 9 5 8 11 10 12 5 8 14 14 14 16 16 19 9 12 7 10 21 12 13 10 8 12 12 10 11
2 1 4 8 3 4 2 1 3 2 3 3 4 3 6 9 6 8 5 3 10 12 12 11 5 4 5 3 8 10 19 22 18 10 20 10 15 3 5 5 4 9 11 11 12
2 3 2 2 0 8 8 3 5 5 3 6 6 5 7 6 2 7 7 4 11 13 5 10 6 8 10 13 8 8 12 19 18 11 18 21 29 24 19 20 20 21 18 15 11
1 3 3 3 3 9 3 3 8 3 3 3 4 3 5 4 5 4 6 3 4 8 9 7 6 11 20 23 22 23 26 20 22 28 17 28 20 23 15 15 16 13 13 14 9
3 3 3 3 7 10 2 3 3 4 3 3 3 8 7 3 5 3 5 6 5 10 12 6 7 4 16 20 23 23 23 21 18 24 26 28 27 25 20 11 14 15 14 13 15
4 3 3 5 6 7 6 7 6 6 2 4 6 5 6 5 7 8 9 4 4 6 13 5 2 2 8 14 22 9 7 11 7 12 20 20 24 12 8 10 12 13 15 15 13

GFSSW_925_spd_015.txt.gz
Wind_Speed
24 26 27 21 19 18 17 15 14 13 12 11 11 11 13 13 10 16 17 11 16 8 6 7 9 10 10 9 8 10 13 15 21 21 15 13 9 13 12 13 8 10 14 8 5
25 26 25 27 22 19 20 17 15 13 13 10 10 8 8 6 13 15 13 13 12 15 12 11 11 11 11 11 8 11 13 20 17 16 17 13 10 12 8 15 16 11 10 3 3
23 25 25 26 27 21 19 19 15 14 13 10 9 7 4 8 11 10 20 13 14 15 14 15 9 10 13 9 13 12 18 15 15 9 10 15 14 13 13 15 15 16 14 9 4
22 23 24 24 24 23 20 20 16 14 12 10 8 7 5 9 5 6 6 12 16 13 13 14 12 13 11 11 13 16 14 19 17 7 10 15 15 17 18 18 17 12 14 6 9
23 23 22 22 24 24 20 17 18 15 12 10 8 6 3 5 6 5 5 7 13 16 17 13 14 13 11 9 9 13 16 13 12 13 15 16 19 19 18 17 16 18 12 14 16
25 24 23 21 23 23 22 17 19 16 13 10 7 7 9 12 6 5 4 4 11 21 18 13 6 4 5 6 10 2 10 14 13 15 16 18 21 19 18 20 22 22 21 20 20
25 25 23 23 24 24 24 17 15 18 13 11 8 8 9 11 2 4 7 4 5 17 14 10 5 4 6 5 9 9 14 14 17 18 15 11 19 23 25 23 23 23 21 22 23
25 25 23 22 23 23 23 20 14 19 15 13 10 7 6 4 6 3 7 8 6 8 10 10 6 7 5 3 5 6 10 10 7 4 11 12 15 7 5 13 18 22 20 21 22
25 23 23 24 25 23 22 22 16 22 18 14 8 9 7 3 7 14 10 10 10 9 9 10 6 5 4 9 8 10 9 12 9 6 6 13 11 7 3 13 14 13 15 16 19
22 22 20 22 23 20 19 24 15 22 17 11 2 5 8 7 8 9 12 11 10 13 11 7 5 6 10 11 7 8 13 9 10 4 8 14 19 18 17 18 18 17 18 17 16
20 21 19 18 20 17 16 8 6 7 12 8 11 1 8 10 11 10 16 16 11 13 7 7 6 12 16 15 16 6 9 10 10 7 15 18 20 19 18 20 21 20 20 20 21
21 22 19 16 18 18 14 2 10 5 7 8 5 6 8 11 7 11 19 11 12 12 11 5 14 16 12 9 11 12 14 14 14 13 12 17 27 23 25 26 22 22 23 23 23
23 19 17 17 21 18 14 18 23 14 5 12 10 11 7 9 7 17 17 11 15 15 16 11 3 4 14 11 11 13 14 13 14 14 16 19 24 21 11 13 16 18 21 23 25
21 20 17 19 16 10 10 10 19 13 3 9 9 7 7 6 4 16 17 8 5 14 14 12 8 5 8 11 11 12 9 10 11 8 6 3 10 9 11 12 11 12 14 16 17
21 20 20 15 15 9 9 2 11 7 6 13 10 8 12 8 15 11 17 3 10 8 8 4 6 12 12 14 10 6 3 4 6 9 13 16 8 10 10 17 16 16 13 12 12
25 28 32 32 15 17 11 11 6 3 4 8 6 11 15 12 6 12 9 5 1 6 10 9 2 7 9 6 11 3 3 6 6 4 7 11 16 18 15 11 14 13 12 11 9
30 37 29 20 11 15 11 7 3 5 12 9 9 13 16 13 10 14 14 11 8 5 9 10 16 8 10 7 7 9 2 2 4 5 9 5 8 20 21 21 17 12 14 15 11
40 26 11 9 19 20 8 5 6 11 7 7 14 17 9 15 11 14 14 12 15 11 4 8 6 19 14 14 5 13 10 5 6 8 14 16 10 13 15 16 19 14 16 11 8
32 10 4 7 15 17 4 5 2 10 12 12 17 12 9 17 8 12 14 12 14 14 7 5 4 2 7 6 11 6 9 15 12 16 12 11 20 22 26 26 25 18 19 15 9
15 9 7 15 17 9 1 1 1 5 17 19 7 7 9 18 9 12 14 13 11 17 12 1 2 6 6 5 11 12 1 2 5 5 10 14 21 14 16 16 17 12 17 17 9
3 2 6 16 14 1 3 1 5 16 8 0 7 9 10 15 11 14 16 5 17 14 16 6 4 5 3 11 9 8 12 6 7 8 6 13 12 12 14 11 10 12 12 6 7
4 3 10 13 2 2 1 3 11 8 4 2 3 4 15 16 11 12 9 3 6 9 12 9 2 6 12 9 8 13 14 16 8 9 8 12 20 14 14 11 10 10 9 11 10
3 2 7 5 3 4 2 1 5 5 2 4 3 2 5 11 6 6 6 5 8 12 10 10 5 3 3 3 8 11 17 16 18 16 23 15 15 5 5 10 8 8 9 11 13
1 2 2 2 3 8 3 8 5 2 3 4 8 8 9 11 3 8 5 4 9 11 9 7 5 8 8 9 10 7 15 19 16 9 20 24 29 26 21 17 18 16 16 18 12
3 3 2 2 5 9 2 3 7 4 1 2 3 1 4 4 4 4 5 5 5 7 6 5 5 10 17 22 20 21 24 24 20 20 17 31 24 24 19 15 17 22 19 13 10
3 3 4 3 10 9 1 6 4 5 1 2 3 6 3 4 1 4 5 7 5 9 11 4 3 2 12 21 20 19 23 18 17 19 19 25 29 24 19 9 8 11 14 11 10
3 4 3 3 7 7 6 4 2 3 4 4 3 5 3 2 3 2 4 4 0 4 10 4 2 2 6 10 20 9 4 6 8 11 9 9 18 17 12 11 14 15 16 12 13

GFSSW_925_spd_018.txt.gz
Wind_Speed
21 22 22 20 21 21 18 16 18 15 14 13 12 12 13 14 16 17 20 14 24 12 5 7 10 13 13 8 12 6 7 11 15 14 12 10 7 3 4 6 8 4 5 9 10
22 21 21 20 19 20 20 17 18 17 14 12 12 11 11 11 12 15 21 15 9 12 10 12 10 13 8 9 5 6 8 11 11 11 9 12 6 4 2 9 6 7 5 15 9
22 22 22 22 20 20 20 18 16 17 14 12 11 11 9 4 8 11 18 17 14 13 16 15 13 11 10 9 10 8 12 9 13 16 5 8 12 4 7 5 6 8 8 9 11
23 23 23 23 21 20 21 20 18 17 17 12 10 9 7 4 5 6 9 18 13 14 13 18 11 7 6 11 10 16 11 14 15 15 6 5 9 10 11 7 9 11 9 2 7
23 23 24 23 23 21 22 22 18 17 17 12 10 8 3 5 6 2 7 16 14 14 19 13 12 10 11 8 11 11 15 12 9 9 6 8 9 11 14 12 10 11 11 8 4
26 25 24 24 23 23 23 22 21 17 14 12 11 8 4 11 6 8 6 8 11 20 17 15 6 6 4 9 9 4 8 11 12 9 8 11 12 11 9 12 13 14 13 10 8
27 27 27 24 22 23 23 23 21 14 15 13 12 10 9 11 3 8 6 4 7 19 14 14 2 2 4 2 7 6 9 11 13 13 9 5 14 16 19 17 16 15 13 14 12
25 25 26 26 24 23 23 24 21 16 12 16 14 11 6 11 7 5 8 9 5 5 19 6 5 1 1 3 2 4 9 7 9 19 13 12 12 11 10 18 20 17 14 13 13
23 23 23 23 22 21 22 20 20 20 11 17 9 9 6 9 9 11 7 11 9 6 10 9 3 3 4 2 4 7 6 11 8 7 5 8 6 13 11 6 6 9 9 12 13
22 22 21 21 21 21 18 18 19 13 10 14 9 7 9 8 10 15 12 8 8 9 9 7 4 4 4 6 5 5 9 8 8 4 3 8 11 11 12 12 9 9 8 8 9
22 20 21 22 20 17 16 8 3 3 12 6 12 1 14 14 13 11 14 12 7 10 5 9 5 8 12 11 11 11 8 12 8 9 8 9 14 14 13 13 15 12 12 13 14
21 22 21 19 16 19 17 3 5 5 2 13 5 6 15 15 9 11 17 8 5 9 4 3 7 10 7 6 4 7 7 11 11 11 7 9 18 17 21 18 17 15 14 15 11
21 21 20 18 18 18 9 12 8 12 3 7 5 9 11 5 8 14 14 9 9 12 9 7 1 10 11 8 4 7 7 9 11 11 10 12 15 10 9 19 20 21 20 14 13
22 19 18 17 13 10 12 6 7 4 2 9 3 7 7 5 6 15 14 5 6 14 10 7 4 4 5 9 6 6 4 5 6 6 4 6 7 7 9 6 8 9 9 9 10
25 21 20 18 14 8 8 7 12 1 5 12 7 12 10 5 13 11 17 2 9 8 6 2 4 6 5 4 5 2 6 5 5 6 7 5 4 7 9 9 7 6 9 9 9
26 28 30 24 23 17 12 4 9 2 5 5 6 12 13 9 4 11 6 2 3 5 9 4 5 2 4 4 3 6 1 2 4 1 4 11 9 11 7 10 4 3 7 5 6
33 36 22 12 5 15 11 4 4 4 11 8 9 12 16 12 8 11 9 7 5 5 5 5 8 3 3 2 2 4 3 1 3 3 7 2 8 15 11 11 8 3 4 8 8
37 19 11 2 10 20 11 2 2 8 4 7 15 16 11 14 7 10 10 9 10 6 6 5 4 14 9 8 5 10 6 3 5 3 4 3 8 6 6 6 6 5 7 7 8
25 11 8 9 20 21 3 2 4 4 10 11 18 9 10 12 7 9 10 7 10 11 4 5 2 6 11 7 7 6 7 2 5 5 3 5 5 10 13 14 13 11 9 10 7
3 4 6 9 14 4 2 1 4 4 17 14 6 8 8 15 8 11 12 12 11 15 9 4 0 1 7 1 5 7 4 2 0 3 6 5 8 9 9 6 8 9 8 8 9
6 3 2 11 4 2 3 3 1 16 6 3 9 8 10 14 7 10 10 1 16 11 12 5 1 3 5 8 9 6 7 2 3 3 4 6 4 3 8 9 9 5 7 8 6
3 3 1 3 3 2 0 4 4 8 5 4 3 7 12 13 9 10 8 4 11 9 9 7 3 3 10 8 13 10 8 13 3 6 5 4 14 19 18 4 8 10 5 6 4
3 2 2 4 1 2 3 2 4 6 6 3 5 6 14 11 6 7 8 6 2 5 10 7 3 2 2 3 8 6 8 8 11 10 16 9 12 9 20 18 6 12 12 14 9
1 2 1 2 4 4 3 5 3 4 7 8 5 4 7 8 4 7 5 2 4 4 6 9 2 5 3 2 2 3 5 8 9 6 12 20 32 25 24 21 9 11 13 16 13
1 3 2 1 3 6 5 5 5 3 4 2 2 2 7 5 4 4 8 7 5 5 4 0 3 4 9 13 13 13 16 16 16 18 13 24 26 28 26 22 18 16 17 10 5
3 3 5 2 7 4 3 3 2 4 5 2 3 5 1 4 6 6 6 6 5 7 5 3 2 4 9 15 16 15 17 18 18 19 18 21 25 20 16 6 6 6 6 5 7
6 4 3 1 6 5 3 5 4 3 3 5 4 3 3 7 5 4 5 3 5 7 8 5 2 1 4 9 11 6 5 5 9 12 11 10 15 20 16 7 6 5 7 8 9

GFSSW_925_spd_021.txt.gz
Wind_Speed
22 22 22 21 21 21 20 19 17 15 16 13 13 10 11 11 13 15 17 13 23 14 4 4 8 11 11 3 2 0 2 5 7 8 7 11 7 4 2 4 4 2 2 8 18
23 22 22 22 22 20 20 21 21 20 18 15 13 10 9 10 13 17 16 11 16 21 18 10 6 9 3 4 3 5 5 7 5 8 7 5 3 5 1 4 2 2 6 13 17
22 22 22 22 22 22 20 21 22 20 15 16 12 11 8 7 3 7 20 21 19 11 18 16 10 6 6 4 5 4 5 3 9 10 3 4 6 5 3 3 5 5 7 7 12
23 22 23 22 22 22 22 22 23 23 19 17 13 10 6 4 5 1 8 21 18 16 13 10 4 4 7 7 6 6 6 14 11 11 5 4 5 5 1 4 8 4 3 5 6
22 23 23 23 23 22 21 21 22 23 20 18 13 11 5 5 6 4 4 21 18 16 14 7 5 3 5 6 6 5 5 9 9 9 5 4 5 5 7 9 8 11 6 3 6
22 24 23 23 22 21 22 22 22 23 21 12 13 11 5 8 7 8 9 16 15 18 14 12 6 7 4 5 5 3 4 4 5 7 6 7 5 3 4 8 9 8 13 7 6
22 21 23 22 21 21 22 22 21 24 23 18 15 11 7 10 6 13 10 13 13 20 7 19 6 3 3 2 2 2 3 7 6 7 6 6 8 8 11 8 11 12 10 13 7
21 21 20 21 20 20 20 20 21 21 22 18 15 12 5 14 8 12 11 7 7 9 21 7 5 3 1 2 2 4 2 2 7 11 8 8 8 8 12 8 14 18 16 13 17
21 20 18 18 19 19 21 20 21 19 20 15 13 8 5 7 19 15 11 8 8 6 12 10 5 3 2 4 2 1 3 6 7 6 5 11 4 15 12 11 10 14 14 14 15
22 19 18 19 19 18 17 20 23 16 12 7 6 4 4 7 11 18 13 10 5 10 7 3 3 2 3 3 6 5 4 4 5 3 1 5 7 8 9 7 9 9 9 9 11
21 20 19 18 18 16 18 12 3 3 9 3 8 4 6 13 17 16 17 7 5 4 4 4 3 6 8 5 5 2 2 4 5 6 4 6 7 10 11 9 15 13 11 13 12
21 19 21 18 16 16 17 2 3 6 7 8 11 4 17 14 6 12 15 5 5 7 6 4 3 5 6 7 8 6 5 5 7 4 6 10 19 15 17 20 19 20 14 11 8
23 22 18 15 17 11 7 8 6 6 2 10 5 9 5 3 5 12 8 4 6 7 8 5 2 10 6 3 2 2 3 4 5 6 5 7 10 9 7 16 18 18 18 12 13
23 21 18 15 9 7 6 4 4 4 2 6 7 5 4 2 4 8 10 5 3 9 7 1 1 3 4 4 3 1 4 1 4 4 4 6 7 7 8 9 6 11 11 15 16
26 25 24 20 9 0 5 9 6 5 3 8 5 13 5 1 13 8 2 3 8 9 5 6 4 5 1 2 4 3 5 5 4 4 4 3 2 7 5 6 8 6 8 9 10
31 32 30 19 19 10 10 11 2 2 3 5 6 9 7 7 3 5 4 4 0 5 8 4 2 3 5 2 3 4 4 4 4 3 2 9 7 4 3 6 1 4 4 3 6
35 32 16 6 3 14 14 6 2 3 1 6 9 9 12 4 7 7 5 3 4 5 3 5 2 2 3 4 2 5 5 3 3 1 6 2 4 8 8 11 7 9 8 7 6
21 12 14 4 10 19 12 3 4 5 6 6 11 13 6 8 4 6 7 4 3 4 4 5 4 8 5 6 6 5 5 4 6 3 4 1 7 6 10 10 8 7 6 7 8
13 11 17 15 16 17 1 3 4 4 6 11 14 9 7 4 7 4 4 5 4 4 5 4 3 4 6 3 5 4 5 3 1 2 2 5 7 7 8 9 8 7 5 7 10
12 7 14 11 7 1 1 3 3 2 17 10 4 3 6 7 5 6 8 7 5 9 3 1 3 2 3 3 3 6 4 2 2 1 5 6 5 8 6 4 7 8 8 8 8
7 3 10 6 5 2 2 5 2 15 4 2 5 7 8 6 4 6 12 4 11 10 7 2 3 1 5 6 7 3 2 2 2 4 4 4 5 5 6 4 5 5 5 5 10
2 3 8 13 3 0 2 2 5 5 3 3 5 7 10 10 5 6 8 1 12 12 7 4 4 3 9 6 8 4 5 5 3 5 4 2 9 13 15 6 7 16 18 24 9
2 2 5 6 3 3 5 1 5 7 5 4 6 5 13 6 5 4 5 3 9 8 9 5 1 0 4 3 2 4 7 6 8 0 13 4 8 4 15 22 22 15 19 15 11
1 2 3 2 1 2 4 4 4 6 4 5 5 11 5 4 2 7 3 2 4 3 7 8 4 6 5 3 4 3 4 6 9 5 10 16 26 28 24 22 21 18 13 15 12
2 1 1 2 2 2 2 3 3 3 4 6 6 4 6 3 4 4 5 4 4 2 3 3 2 2 6 8 5 7 10 11 11 16 11 24 22 27 24 22 21 7 5 9 8
2 3 4 4 1 2 2 2 3 3 5 4 5 7 8 4 1 5 7 4 4 2 3 2 2 1 6 10 8 6 11 14 15 18 19 23 27 20 15 16 16 9 5 5 5
5 3 2 5 2 1 3 4 1 2 4 3 2 5 6 3 4 3 4 4 8 7 6 5 4 1 4 5 7 3 6 10 5 8 9 9 14 16 17 9 9 11 11 9 9

GFSSW_925_spd_024.txt.gz
Wind_Speed
20 19 19 19 18 18 19 20 21 20 19 18 15 13 11 11 11 13 15 13 24 11 8 5 11 14 5 2 3 4 3 5 6 8 5 2 2 5 4 3 1 1 7 7 22
20 19 19 19 17 18 18 18 20 21 21 21 17 14 10 10 11 17 21 19 21 21 12 6 5 8 2 4 3 4 4 7 5 4 2 5 1 3 6 4 2 3 3 17 21
22 21 20 20 16 17 19 19 19 21 22 23 15 13 9 8 6 9 17 26 20 21 19 14 3 4 4 2 4 4 5 7 5 6 2 4 8 2 2 4 3 3 6 6 4
21 18 21 20 20 18 16 19 19 20 22 23 24 16 10 7 7 2 4 28 21 16 21 11 4 3 5 6 5 3 6 7 3 5 2 2 3 2 5 7 4 0 4 4 5
20 18 20 21 20 19 17 15 19 21 21 23 22 16 10 6 8 4 7 22 21 20 17 7 5 5 6 7 4 3 3 5 6 8 4 5 6 7 7 9 9 4 6 7 6
20 19 20 20 20 17 17 18 19 19 21 22 21 11 6 10 11 15 7 23 22 22 14 10 7 7 4 4 7 2 7 5 3 4 4 5 6 5 4 7 9 8 8 9 8
21 19 19 19 18 16 17 16 18 18 20 21 19 12 7 12 5 11 16 23 21 23 7 15 13 4 6 0 4 3 3 3 4 4 4 3 14 8 11 10 9 10 10 10 10
19 18 17 17 15 15 17 18 19 18 19 19 19 12 5 15 10 11 12 13 16 20 15 14 12 3 4 2 3 5 4 1 4 4 6 9 16 3 10 7 11 12 11 10 15
20 19 16 16 16 16 17 17 20 19 17 15 12 7 4 5 11 14 13 8 11 8 12 12 6 2 2 5 3 4 2 4 7 8 6 10 3 14 15 9 9 10 10 12 14
19 19 18 17 17 17 16 20 24 17 8 7 7 2 4 5 13 15 10 8 3 12 7 4 2 3 2 4 6 6 3 3 5 4 3 6 10 11 7 7 9 10 10 10 11
21 19 18 18 15 15 16 11 4 2 3 1 4 4 7 8 16 12 9 7 4 3 4 5 2 5 7 4 2 4 2 3 4 6 5 8 6 10 10 7 10 12 12 12 14
21 20 19 17 13 17 8 0 2 3 3 10 8 7 11 12 9 10 8 4 5 4 8 4 4 7 9 8 6 2 2 5 6 3 4 7 16 14 14 15 15 19 18 16 12
20 19 17 15 12 10 7 5 6 4 1 3 5 5 7 6 4 9 10 3 6 9 4 7 3 6 6 4 3 2 3 2 4 6 1 7 11 8 6 8 13 18 20 16 17
23 23 20 16 7 6 3 4 6 4 2 7 4 4 3 6 4 4 6 4 2 9 6 3 2 6 5 4 4 2 2 3 3 4 4 5 7 6 8 10 7 8 7 11 12
28 24 21 17 9 8 5 6 5 1 3 10 6 3 3 0 14 7 3 3 4 7 5 2 4 6 5 3 4 3 5 4 2 3 4 3 2 8 5 8 8 9 9 9 10
33 21 18 4 5 13 12 8 2 2 1 5 6 8 7 3 3 5 3 4 4 5 7 1 1 3 4 4 5 6 5 6 4 2 2 5 5 5 3 4 5 5 6 6 7
19 15 10 6 4 15 11 2 4 2 3 6 9 10 9 4 6 4 4 4 4 5 4 0 2 1 4 6 4 6 6 3 4 2 6 2 2 8 8 10 4 8 10 10 8
21 25 20 14 14 14 7 1 4 4 2 11 8 13 6 5 7 6 5 3 2 4 3 4 2 5 2 4 5 3 6 4 4 3 4 1 6 6 7 7 4 4 4 7 9
22 25 26 16 15 10 2 5 2 4 4 8 14 10 3 3 6 4 1 4 4 4 5 4 1 2 2 3 6 4 2 3 2 2 3 4 7 9 3 1 6 8 7 8 8
7 9 12 8 4 3 4 5 3 5 14 6 5 1 4 4 4 3 6 4 3 7 2 4 4 2 2 4 2 4 5 3 2 1 4 5 5 7 6 2 6 6 6 7 8
4 3 3 8 2 2 2 3 2 0 2 1 4 4 7 5 5 4 10 3 7 4 6 0 4 3 5 4 7 3 1 3 3 4 3 4 6 6 5 3 6 7 7 7 10
3 3 3 9 3 2 1 2 4 5 3 2 4 5 8 5 4 4 8 4 8 5 6 3 4 3 7 3 4 4 6 5 4 3 3 2 7 6 4 2 6 17 15 12 10
2 2 2 3 3 2 2 3 4 5 4 1 3 4 5 6 5 3 4 4 9 6 8 4 2 2 3 4 2 3 5 5 2 3 6 1 6 2 9 20 20 17 19 18 12
2 3 3 3 0 2 4 4 4 4 3 4 5 11 4 4 1 4 2 4 3 3 8 6 3 5 5 5 3 3 5 7 7 3 3 11 20 26 23 21 20 16 17 17 6
3 2 1 3 3 2 2 2 5 5 5 5 3 3 4 3 4 4 2 3 5 3 3 4 3 2 5 7 5 6 8 8 9 14 8 18 17 25 23 20 18 10 15 14 7
2 3 4 3 5 4 3 1 4 3 5 4 5 3 3 3 3 6 6 3 4 0 3 1 1 2 5 6 8 7 11 12 14 16 17 20 24 23 19 13 9 9 13 14 13
5 4 2 4 5 3 2 1 2 2 3 3 4 5 7 3 3 3 3 7 7 7 3 5 4 2 4 4 5 5 9 11 5 7 7 8 12 12 14 13 4 9 11 13 13

GFSSW_925_spd_027.txt.gz
Wind_Speed
22 21 20 18 18 15 15 15 18 20 19 21 22 14 14 12 12 14 17 15 21 6 9 14 16 13 5 3 4 4 3 4 5 7 5 1 2 2 2 4 4 2 5 5 24
24 23 21 18 18 18 15 14 17 18 20 21 20 23 14 9 12 19 19 19 18 16 8 9 7 10 4 5 3 4 4 8 5 4 2 3 3 4 5 6 3 4 4 8 28
23 21 20 18 18 18 16 15 15 17 19 20 21 24 11 9 4 10 25 30 23 20 17 6 7 7 5 4 4 5 6 4 3 3 1 3 7 2 3 6 3 3 5 4 4
22 21 18 20 20 17 17 15 14 17 19 20 20 21 23 13 7 2 8 26 27 24 20 7 3 7 5 6 5 4 5 5 4 4 2 1 4 3 5 8 4 5 5 4 1
22 20 19 18 18 16 16 15 15 17 20 19 20 17 11 6 8 5 4 19 28 27 22 10 5 5 7 6 3 4 2 3 4 7 3 2 7 7 6 11 4 3 7 7 6
22 20 18 17 17 15 15 15 17 17 18 18 17 17 8 11 10 16 13 23 25 22 17 13 7 4 4 3 7 5 7 7 4 5 3 5 6 5 3 9 11 5 7 8 8
22 20 17 17 16 14 15 16 16 18 18 16 16 14 7 13 5 7 10 24 24 22 7 14 6 4 3 4 5 2 3 1 4 4 5 2 12 8 8 10 11 12 8 8 10
21 20 19 16 15 15 17 17 18 18 17 15 15 8 4 22 15 1 8 17 21 19 15 19 12 1 3 3 3 6 3 3 3 5 5 7 18 8 8 5 10 12 12 8 10
20 18 18 16 16 16 17 19 20 20 17 13 9 6 3 3 7 13 5 7 13 14 8 16 7 4 2 6 3 2 4 4 5 4 4 8 4 4 7 9 11 12 12 9 9
21 18 17 16 17 14 16 20 24 15 8 5 7 1 3 4 7 8 7 14 4 8 8 4 3 4 3 3 7 5 4 2 4 2 3 6 8 13 11 6 8 10 11 11 11
21 19 18 16 15 13 19 8 4 2 2 1 2 4 6 6 14 7 6 6 3 3 7 7 4 11 10 7 4 6 3 3 3 4 4 6 5 12 10 6 9 10 13 14 15
21 18 16 13 12 9 5 1 4 1 3 3 10 7 4 7 5 7 13 4 5 3 6 5 4 3 5 5 1 2 1 3 5 2 2 6 11 15 15 12 15 16 18 18 10
25 21 18 16 9 6 6 6 5 1 1 2 2 3 3 8 4 7 7 3 3 4 4 6 4 12 7 3 4 1 4 3 4 4 2 7 7 5 5 6 6 13 15 16 12
28 25 20 11 4 4 4 0 4 3 4 1 3 2 2 6 5 5 3 2 2 9 7 6 4 7 8 7 5 4 2 3 3 3 3 5 5 6 8 12 5 9 8 9 10
21 13 13 6 13 7 2 4 2 1 5 5 3 4 3 4 11 0 2 1 3 5 4 1 4 9 5 4 4 3 4 4 3 3 2 2 1 8 5 7 7 8 8 7 8
20 14 8 11 7 7 6 5 1 3 3 2 3 6 6 4 4 4 1 2 4 8 6 3 1 2 2 4 1 6 5 6 4 2 2 3 3 6 3 3 6 7 10 9 11
21 20 16 7 6 12 9 1 3 2 3 4 7 7 8 5 5 3 0 4 4 5 2 4 3 3 4 6 5 4 5 2 4 3 5 2 3 10 8 5 5 10 8 8 8
19 18 18 17 17 14 4 2 4 4 3 10 11 13 5 4 5 2 4 3 4 5 3 3 1 4 2 3 5 2 4 4 4 1 4 1 5 6 4 0 1 2 3 6 9
9 12 12 6 8 4 0 4 1 3 3 8 12 7 4 4 3 4 2 4 3 3 5 4 1 1 1 2 4 3 1 1 5 3 3 3 6 9 6 6 6 7 8 9 9
6 4 7 7 4 4 4 3 2 3 9 4 5 0 3 3 3 2 4 3 3 3 2 5 4 1 1 3 4 3 7 4 3 1 3 4 5 5 4 5 6 6 8 9 8
2 2 1 13 4 4 3 3 2 4 4 4 4 5 5 4 4 3 6 2 4 4 2 3 3 1 4 4 6 3 1 4 4 3 3 3 6 6 4 2 5 8 15 11 8
3 3 9 11 3 2 2 1 4 4 2 2 3 4 4 4 3 2 6 4 5 6 5 2 4 3 5 0 4 3 5 5 4 3 2 3 7 5 6 2 5 16 10 11 12
2 2 5 6 3 3 3 3 2 3 1 3 2 2 2 4 4 2 5 2 7 6 8 5 1 2 3 2 3 3 4 4 4 3 5 3 6 2 5 13 17 14 14 9 14
2 3 4 4 1 3 5 4 4 2 1 3 3 4 4 3 1 6 3 3 7 6 8 6 3 4 5 4 3 2 4 6 6 3 3 8 9 17 19 18 17 16 6 10 11
3 1 1 4 3 4 2 4 4 5 4 3 3 5 4 3 2 3 2 2 4 3 3 4 3 2 4 6 4 6 5 7 8 8 6 5 9 18 19 18 16 9 8 12 12
2 2 1 3 4 5 4 3 5 4 4 4 4 1 0 5 4 7 6 2 3 2 3 2 3 1 4 4 5 5 9 10 10 11 14 17 22 24 19 8 10 4 9 10 11
6 4 1 1 4 3 2 4 3 2 3 3 4 4 4 2 1 5 3 5 5 7 3 4 5 2 4 5 5 6 11 12 5 6 10 9 13 6 10 11 6 6 8 8 11

GFSSW_925_spd_030.txt.gz
Wind_Speed
25 25 25 23 22 19 18 17 15 17 18 19 20 20 19 16 14 16 17 14 24 10 4 16 15 8 3 2 4 4 3 5 7 7 4 1 2 4 1 3 5 2 1 6 10
23 25 24 21 21 18 19 16 14 14 18 20 20 19 20 22 16 21 15 21 19 17 8 16 9 10 3 4 3 4 4 9 7 6 4 2 2 3 4 6 3 3 5 6 20
24 24 23 20 19 19 18 15 13 14 17 19 19 18 20 22 4 8 29 26 21 18 14 12 14 7 4 3 4 4 5 5 5 4 3 3 2 1 1 4 4 2 5 5 2
24 23 21 19 18 17 15 15 15 14 17 18 19 17 20 14 5 1 5 27 23 23 16 9 6 8 5 6 5 3 4 5 3 4 4 3 0 3 5 6 3 3 1 3 2
23 21 21 18 16 15 13 14 15 14 16 17 16 14 12 5 8 2 6 11 28 24 17 9 7 5 6 6 5 4 3 5 5 5 3 3 4 6 6 8 7 6 5 4 3
23 20 19 17 16 14 13 13 15 15 14 15 14 12 7 8 10 20 15 6 28 25 17 12 6 5 5 5 5 6 6 5 4 4 3 4 5 6 4 6 8 5 8 7 6
21 20 16 17 14 14 13 14 15 15 15 14 12 11 10 8 6 3 8 16 26 25 11 18 10 4 6 4 5 4 2 1 5 4 5 4 7 7 9 10 12 9 8 9 9
23 19 16 15 14 14 15 16 17 14 13 11 11 7 6 8 19 11 10 17 24 20 22 19 9 4 3 3 4 6 3 2 3 6 5 8 5 7 8 7 11 11 8 8 11
23 21 18 16 14 14 13 16 17 16 13 9 8 5 5 3 7 19 11 13 22 16 19 21 6 3 3 6 4 2 4 4 5 5 2 7 3 4 3 1 8 10 10 8 8
24 22 18 16 13 13 15 19 15 5 6 5 9 3 2 4 6 9 6 18 10 12 7 5 4 4 2 4 7 6 3 2 4 2 2 4 7 9 8 6 8 9 10 9 8
26 22 16 13 11 9 12 6 4 3 0 3 1 3 4 3 17 5 9 9 6 12 7 8 4 14 12 6 4 5 4 4 3 2 2 5 4 13 10 6 9 10 12 13 14
31 22 19 14 10 5 6 1 3 0 4 0 8 5 6 5 5 1 5 5 2 12 6 5 7 6 8 8 6 5 4 3 4 1 1 5 10 16 14 7 10 13 13 13 9
29 20 15 12 8 3 4 3 4 1 1 1 6 7 3 1 5 3 2 2 4 4 11 5 4 4 12 9 7 2 4 2 3 4 2 7 6 5 4 2 5 7 8 7 8
30 23 9 5 2 3 2 4 3 1 4 3 4 0 8 4 5 3 6 1 3 6 12 5 2 6 7 5 4 2 2 2 2 2 2 4 5 7 5 8 4 5 8 7 7
29 19 11 6 11 2 1 1 1 2 4 2 2 2 4 5 8 2 3 6 5 6 1 3 8 5 8 5 5 3 4 4 2 3 3 3 3 8 4 5 4 8 8 7 6
28 16 11 10 6 3 1 2 0 4 5 4 3 6 6 4 3 4 2 3 3 10 6 4 5 4 4 4 1 9 5 5 4 3 2 3 3 6 1 2 6 5 6 7 8
26 19 11 4 3 6 3 3 5 5 2 1 6 5 7 4 5 4 2 4 3 4 4 4 2 1 3 7 4 4 5 2 4 3 4 2 1 8 5 4 3 4 6 7 7
17 14 17 12 6 2 5 4 8 3 6 5 6 12 6 6 5 3 3 3 5 4 3 3 2 2 2 3 5 2 5 4 4 1 3 0 5 4 4 2 2 1 4 9 12
9 7 9 7 2 6 2 5 0 2 4 8 8 7 5 6 4 4 4 2 2 2 5 4 3 2 3 2 3 3 2 2 5 2 2 3 7 7 5 5 2 4 8 10 9
6 2 5 7 7 4 2 3 2 3 3 5 4 2 3 2 2 2 3 1 4 2 2 2 4 2 2 3 6 2 6 2 3 2 2 4 5 4 4 4 6 7 9 12 10
3 3 3 13 2 3 3 3 1 2 3 3 2 3 4 4 3 4 4 1 2 3 5 3 3 1 3 2 6 2 1 4 4 3 3 2 5 6 5 1 4 8 9 9 9
3 3 6 8 4 2 2 5 6 4 2 3 4 3 3 2 2 2 7 2 4 6 5 2 4 2 2 1 1 2 5 4 4 4 1 2 6 3 5 6 5 12 9 7 4
2 2 4 3 3 3 5 3 2 3 3 0 2 1 2 4 3 2 3 1 6 4 6 5 1 3 4 3 2 3 4 4 4 3 5 4 5 1 4 8 11 10 8 7 11
2 3 4 4 1 2 5 4 4 2 2 3 3 3 3 2 4 4 2 4 6 6 7 5 3 4 5 5 4 2 4 5 5 3 3 6 7 12 12 13 15 14 7 7 7
3 2 0 3 1 2 2 2 3 4 4 1 2 3 4 3 2 3 2 2 4 2 3 4 3 1 4 4 3 4 4 8 8 6 6 3 6 11 14 14 15 10 6 9 9
3 2 2 3 3 0 3 3 4 4 2 2 5 3 3 4 5 7 5 3 3 2 4 1 3 1 4 3 4 5 9 9 11 11 12 13 19 18 14 8 7 6 6 7 9
6 3 0 3 4 1 2 2 3 4 2 3 4 3 3 1 2 3 2 5 5 7 3 4 5 2 4 3 5 5 8 12 7 6 9 8 13 7 9 7 6 6 6 7 9

GFSSW_925_spd_033.txt.gz
Wind_Speed
26 24 24 24 22 21 19 16 15 14 11 12 15 16 17 22 26 21 20 13 25 9 2 16 13 9 4 3 3 3 3 6 10 8 4 4 4 1 1 0 2 2 2 6 3
26 24 23 21 20 19 17 16 13 12 12 12 12 13 15 19 22 19 12 18 18 20 9 16 11 10 3 4 3 4 5 9 5 5 4 6 4 3 2 2 2 2 4 5 10
24 23 21 21 18 17 13 14 12 11 11 12 12 12 13 15 8 5 25 26 23 16 17 17 15 7 4 3 4 5 5 5 4 4 4 6 2 3 4 3 3 3 1 3 5
22 22 19 17 16 15 13 11 11 11 10 11 12 12 12 6 8 3 3 27 26 24 16 17 10 9 5 6 4 4 4 5 3 5 4 4 5 2 4 4 4 4 2 1 6
22 21 18 15 13 13 12 10 10 10 10 11 10 9 8 4 9 5 8 6 28 27 20 9 13 8 13 6 5 2 4 4 2 1 2 3 3 5 6 5 5 4 3 4 2
23 21 19 15 15 11 9 9 10 10 10 9 8 8 5 8 6 15 14 6 30 27 19 12 10 4 7 6 5 8 4 3 1 2 1 4 4 4 5 4 5 3 8 8 8
23 21 17 16 14 11 10 9 10 11 9 9 8 6 8 13 3 9 6 8 34 25 13 12 18 5 6 5 4 6 4 2 4 4 3 4 5 6 11 6 9 9 8 9 10
24 21 18 15 14 11 11 10 11 11 10 9 6 6 6 15 17 19 8 7 27 24 20 17 13 5 2 4 4 5 3 4 2 7 4 6 8 4 2 3 9 11 9 10 13
27 22 17 15 13 11 11 13 13 15 12 7 5 5 5 4 7 16 6 9 20 21 23 19 9 3 3 6 4 2 4 4 3 7 3 7 2 4 1 2 8 9 9 8 10
26 23 15 13 9 9 10 14 8 1 4 3 4 4 4 3 4 7 2 8 11 16 14 10 3 4 2 4 8 6 4 3 6 2 2 3 6 8 10 3 8 10 11 10 10
30 26 15 10 6 5 6 3 3 4 1 4 3 4 4 2 4 4 4 13 11 12 7 9 4 14 12 3 4 6 5 3 2 1 1 4 4 10 11 6 10 12 13 12 9
33 22 9 7 4 2 3 3 1 1 2 2 8 6 9 2 4 3 2 7 7 12 9 6 7 7 9 5 7 5 5 3 1 2 0 3 10 16 11 6 5 7 9 9 5
34 24 6 7 6 3 4 2 2 0 2 4 5 5 1 3 5 4 3 7 15 13 14 11 5 12 10 5 7 3 4 3 2 2 2 5 5 5 2 2 3 8 5 6 4
29 27 14 7 5 4 2 4 3 1 2 4 5 2 3 1 4 3 2 2 4 13 9 3 1 13 13 12 9 5 3 4 4 2 2 4 4 6 2 3 5 7 9 9 7
27 19 13 11 3 3 4 2 1 1 4 1 3 3 1 3 4 9 7 8 7 10 5 3 7 8 11 7 4 4 5 4 3 4 2 2 2 4 1 3 4 3 4 4 3
25 18 11 9 8 6 4 5 3 4 7 2 3 9 2 4 3 3 6 6 5 8 10 4 4 3 3 6 5 10 6 6 4 2 1 1 2 3 1 3 0 1 1 4 6
15 17 18 12 1 5 8 4 4 6 3 5 5 3 5 5 4 3 4 3 3 4 4 3 3 3 6 6 3 2 4 1 2 1 3 1 1 6 4 4 3 3 4 6 6
9 9 9 10 5 7 4 3 10 5 7 3 5 11 6 7 4 2 3 4 5 6 3 3 3 1 1 3 6 2 4 3 4 3 2 2 5 2 4 4 3 2 4 6 6
9 6 4 7 7 9 1 7 3 2 2 4 4 6 3 5 4 3 3 2 2 3 4 4 3 2 4 2 1 4 2 3 6 2 1 2 5 5 2 4 0 3 7 10 9
6 6 2 8 8 4 4 4 2 3 1 3 3 1 3 1 3 2 2 1 3 1 1 4 5 2 1 3 7 2 6 3 2 3 3 3 4 3 4 4 3 4 6 7 5
3 3 4 11 2 4 3 4 2 3 2 1 3 3 3 3 2 2 4 2 1 2 4 3 3 0 3 1 6 2 2 5 3 2 3 1 4 5 6 3 4 7 10 8 7
2 3 6 5 4 2 2 3 3 3 2 3 3 3 3 3 3 2 5 1 3 5 3 1 4 3 1 1 1 1 4 4 3 4 1 0 5 0 4 4 4 9 9 6 7
2 2 5 4 3 2 4 4 2 4 3 3 1 1 1 3 3 2 4 2 5 4 6 5 1 3 2 2 1 3 3 3 4 2 5 3 4 1 3 5 6 7 6 5 4
2 2 4 4 2 3 1 1 4 2 2 2 2 2 3 3 4 3 2 2 4 1 7 6 3 4 4 4 3 3 4 5 5 3 3 5 5 7 7 8 11 10 5 5 7
3 2 2 2 3 3 1 1 2 4 1 0 2 1 3 2 2 2 2 3 2 5 3 4 3 2 2 2 3 3 4 8 7 4 5 3 6 7 9 9 9 6 5 7 6
2 3 2 1 2 3 1 2 0 2 1 0 4 3 1 4 5 7 5 2 3 2 3 2 3 2 3 1 4 5 8 8 11 8 9 9 17 15 14 4 4 4 4 6 6
5 3 2 1 3 1 1 3 2 4 1 1 7 4 2 2 3 3 2 3 5 7 3 4 5 2 4 1 4 6 11 14 6 5 10 9 11 4 7 4 5 2 4 5 7

GFSSW_925_spd_036.txt.gz
Wind_Speed
24 24 23 22 20 19 18 17 15 14 13 11 9 8 10 12 15 16 17 13 20 8 8 13 10 11 10 9 6 3 10 17 22 20 15 7 10 6 2 8 5 2 3 4 1
24 23 22 20 18 15 14 15 15 12 10 10 8 8 9 10 11 15 14 23 20 15 9 18 14 16 7 9 7 12 15 22 14 13 13 11 10 9 7 8 8 6 1 4 6
25 23 20 18 16 15 12 10 11 8 6 8 6 6 7 8 10 10 13 24 22 19 13 13 17 13 10 8 11 14 17 12 8 10 7 11 10 5 7 8 7 8 3 3 5
25 21 19 15 15 13 12 8 8 6 5 6 6 6 3 5 9 6 3 23 19 20 17 17 18 10 13 13 13 9 15 8 6 5 6 12 8 8 9 3 6 7 3 0 5
25 21 19 17 13 12 11 8 6 5 5 6 7 5 2 8 11 6 4 3 28 24 24 18 22 14 18 15 12 13 7 8 5 7 6 6 8 8 9 6 5 5 5 5 3
25 19 17 17 12 10 9 8 6 5 6 7 5 5 8 12 8 15 12 4 24 28 26 22 18 14 13 12 14 12 5 13 9 7 5 7 8 4 7 5 8 10 12 11 9
26 23 16 14 14 12 7 8 7 6 7 6 5 5 10 13 5 4 10 5 22 29 22 21 16 15 10 7 7 7 14 7 10 9 8 6 12 13 14 15 14 14 12 11 11
27 24 18 11 11 10 6 7 8 8 7 6 4 4 6 13 23 10 3 5 19 25 24 15 23 12 8 6 10 11 6 10 11 15 6 6 13 4 4 9 13 12 12 11 14
28 25 16 9 4 4 5 7 10 11 10 4 3 5 6 5 11 9 7 6 26 22 22 16 19 12 7 14 9 14 11 17 5 8 9 17 9 7 6 5 9 10 10 9 10
29 23 11 2 1 1 3 7 2 3 7 5 3 4 8 10 12 13 13 12 23 19 14 14 7 12 13 15 15 17 16 12 14 5 9 9 13 6 8 8 11 12 13 12 11
31 19 9 8 3 3 3 3 2 3 4 3 1 4 8 10 15 12 13 14 16 18 10 15 8 16 21 18 3 10 16 9 8 4 6 11 12 12 13 14 15 15 15 14 12
30 19 15 11 9 7 6 3 2 3 2 1 5 8 15 9 7 4 5 5 16 21 15 9 13 17 14 11 9 14 13 10 5 4 5 5 11 14 15 13 11 11 12 12 8
22 18 13 11 9 9 8 4 3 3 1 5 1 5 5 7 5 3 5 2 18 18 20 10 12 13 14 12 12 9 11 8 3 5 1 5 9 7 2 6 4 4 2 3 5
18 14 13 5 5 4 5 5 2 2 1 3 2 3 0 3 5 5 4 2 4 9 10 7 5 18 17 16 13 9 4 7 5 4 4 3 2 5 5 8 9 10 9 7 6
21 14 13 14 2 4 5 5 5 2 3 2 5 6 4 6 6 7 2 1 7 13 5 4 6 17 18 18 14 3 7 7 4 2 2 4 4 6 11 10 10 8 6 5 3
14 14 8 6 7 3 4 6 3 3 8 5 3 2 6 2 3 6 6 6 7 9 14 5 3 3 3 7 7 15 10 7 3 0 3 3 4 6 8 10 10 6 3 5 4
13 6 10 5 0 3 7 2 1 6 2 5 4 7 6 5 4 4 4 3 5 5 3 0 4 3 4 8 6 5 10 3 4 3 2 2 3 2 8 6 7 7 0 5 5
9 6 5 5 3 4 2 2 9 5 8 2 6 9 4 2 3 4 4 5 5 8 4 3 4 3 1 0 5 9 5 3 4 4 3 2 6 2 6 5 1 6 2 4 4
9 2 3 6 7 3 2 6 2 1 2 4 4 5 2 2 4 4 3 4 4 0 2 4 4 2 4 7 4 4 4 2 4 1 2 4 3 5 2 7 9 7 4 4 5
4 3 1 5 4 2 3 5 2 2 3 2 3 2 3 3 2 2 3 1 3 2 2 3 6 2 3 1 8 2 8 2 1 5 5 4 3 4 10 10 10 3 6 6 6
3 1 1 8 1 2 4 3 2 2 3 3 2 2 3 3 2 2 3 2 1 2 2 5 3 3 3 4 6 4 3 1 0 2 2 2 3 2 14 9 5 4 5 6 6
3 1 6 3 2 2 2 1 1 2 1 1 2 2 1 2 2 2 3 2 3 4 4 2 4 4 1 2 4 3 3 5 3 4 1 2 2 4 5 4 3 8 7 7 6
3 2 4 4 2 3 4 4 3 0 1 1 1 0 1 2 1 2 2 2 4 2 5 6 3 5 2 1 1 5 7 4 3 1 5 3 4 3 4 2 4 6 7 5 5
3 1 2 3 2 2 2 1 1 1 1 1 2 2 4 3 2 4 4 1 1 1 4 3 2 1 3 3 4 5 10 11 7 4 5 6 1 7 5 6 7 7 6 6 6
3 2 1 1 3 2 1 1 2 2 2 3 2 3 4 4 4 4 3 3 2 4 2 1 2 1 2 2 4 3 6 13 11 10 6 1 7 7 7 8 8 7 7 6 6
2 2 2 0 2 3 2 2 1 1 1 3 3 6 5 3 3 6 7 5 3 4 3 1 3 1 2 3 7 8 11 12 16 16 16 15 18 16 14 3 5 8 5 5 6
5 3 2 1 1 2 1 0 0 3 2 3 5 4 3 2 3 1 4 5 6 8 5 5 5 2 1 1 4 8 16 19 11 9 14 12 10 6 8 6 7 6 2 3 3

GFSSW_925_spd_039.txt.gz
Wind_Speed
23 24 23 22 20 19 18 17 17 14 14 14 14 9 5 6 9 8 11 11 23 4 5 14 12 12 11 12 17 9 10 14 23 21 16 11 10 14 4 11 6 7 4 6 8
25 24 22 20 19 17 17 16 15 12 8 11 13 7 6 7 13 22 11 15 21 13 13 20 16 16 11 14 9 12 15 24 20 18 11 12 12 12 8 12 11 8 6 4 8
24 23 21 19 18 16 15 14 11 8 4 6 9 9 4 7 14 20 22 18 20 20 11 17 20 17 14 11 16 14 21 20 19 5 5 13 13 10 11 11 12 12 8 5 6
25 24 20 18 16 16 14 13 8 5 3 6 6 4 4 5 6 7 20 22 24 20 18 17 20 18 17 15 18 13 22 18 17 2 3 13 11 12 12 5 5 3 4 3 6
29 26 21 17 15 14 11 9 5 4 3 3 4 4 5 9 14 6 12 17 22 23 24 17 23 18 17 18 16 16 10 15 8 5 8 13 14 12 13 8 5 6 4 4 4
27 24 20 16 13 11 10 9 5 3 3 3 3 7 7 13 9 8 6 4 22 25 27 24 20 18 11 9 19 12 12 11 11 7 6 9 13 10 11 10 10 10 9 8 8
31 25 20 14 12 8 8 6 4 4 4 4 3 5 11 13 5 2 9 7 7 29 21 24 19 18 8 6 10 9 16 8 13 11 6 8 14 18 14 9 12 12 11 10 11
30 25 18 10 5 4 5 3 4 3 4 4 3 5 7 10 20 14 5 8 8 28 24 20 17 17 6 4 11 10 13 13 11 11 8 9 14 18 18 16 19 17 14 14 14
32 22 12 4 4 2 0 3 6 7 6 4 6 9 9 1 13 16 12 5 14 24 21 15 13 15 10 14 11 13 12 17 12 15 11 14 10 14 10 7 11 12 12 12 13
30 17 9 9 5 4 2 3 1 3 5 6 7 6 9 9 12 13 13 8 13 18 12 7 7 13 12 13 16 18 20 17 16 10 15 19 15 11 6 9 13 13 12 12 13
23 17 14 9 6 5 3 1 3 3 6 4 6 3 8 8 9 11 5 3 21 15 13 9 8 19 26 23 17 13 17 14 13 8 8 14 16 15 12 14 15 14 13 13 13
17 12 14 10 11 7 4 2 6 2 1 1 4 8 14 8 3 4 2 1 21 14 18 6 8 18 17 19 16 9 14 13 4 9 7 11 13 11 13 17 16 15 14 13 11
18 11 9 6 7 10 11 6 3 4 1 4 4 9 3 6 5 7 4 1 19 20 18 14 9 13 12 14 13 12 14 14 6 9 9 5 13 17 12 7 4 5 8 8 8
19 14 11 0 0 2 3 4 3 5 1 3 3 1 5 8 4 6 7 2 3 19 17 8 7 15 15 17 15 12 4 7 6 9 5 8 3 8 11 7 6 7 6 6 6
21 16 9 4 2 1 2 3 4 2 3 4 2 4 1 5 9 7 4 5 2 7 4 4 13 16 17 17 16 6 11 8 5 6 3 8 4 8 11 10 10 9 7 6 4
25 14 12 6 1 2 2 4 3 2 8 5 6 5 5 9 4 5 4 7 4 7 9 5 3 3 2 4 5 12 12 8 4 2 4 10 8 9 10 13 13 10 7 5 4
29 15 8 6 5 2 3 3 2 5 3 5 4 6 7 5 3 3 4 5 3 5 2 3 4 3 3 9 10 9 14 5 5 4 4 3 5 4 7 10 13 12 6 3 1
26 15 8 7 5 4 3 3 7 5 6 4 4 5 3 2 4 3 2 3 5 6 3 4 2 1 4 3 7 13 14 2 7 6 7 4 7 1 10 8 6 6 2 2 1
16 6 5 2 3 4 4 5 2 3 2 3 3 2 3 5 6 5 6 5 4 4 2 4 4 4 1 2 2 4 6 3 2 1 2 7 5 7 8 10 6 9 2 2 2
10 6 5 2 1 5 1 4 1 1 2 3 1 3 3 5 4 5 1 2 4 2 3 4 6 6 9 5 4 2 1 3 2 4 5 6 5 4 13 12 13 8 3 2 2
4 4 3 3 3 3 4 2 3 1 3 4 2 1 1 4 3 3 2 3 1 3 0 4 4 5 7 7 9 4 2 4 4 2 3 2 3 7 15 15 12 4 2 2 3
5 3 1 1 1 0 4 5 2 1 2 2 0 2 1 3 4 2 3 3 3 2 3 3 4 5 2 2 4 5 5 10 3 4 1 3 2 3 14 11 4 2 1 1 2
6 3 1 2 1 3 3 5 2 4 2 2 2 1 2 4 2 3 3 2 2 1 3 5 4 4 3 4 4 6 10 7 1 3 5 3 4 7 9 7 6 3 1 1 1
3 3 2 2 1 2 4 4 3 2 2 1 1 2 5 6 0 6 6 2 2 2 5 0 2 2 1 3 4 5 11 12 9 4 5 8 6 11 9 4 2 1 2 3 2
2 2 3 3 2 3 3 1 3 2 2 2 3 6 5 3 5 4 7 6 3 4 2 2 2 1 3 1 3 4 7 13 13 12 7 3 11 13 9 2 2 2 3 3 3
4 4 6 5 6 6 2 2 2 0 2 1 4 3 4 3 4 6 8 7 6 8 5 2 2 1 2 4 6 9 11 11 16 17 18 15 14 10 11 8 2 4 2 2 3
7 5 2 2 4 5 1 2 1 4 2 3 3 3 4 2 5 4 2 4 4 7 10 6 5 2 1 2 3 10 18 19 15 11 17 15 12 8 4 2 3 5 1 0 1

GFSSW_925_spd_042.txt.gz
Wind_Speed
25 25 24 21 20 19 18 16 16 16 16 14 13 15 8 5 8 12 10 8 25 4 14 15 13 11 8 4 8 6 6 13 17 17 15 5 4 5 3 5 3 4 8 12 16
26 26 25 22 20 19 17 15 15 14 10 10 13 12 8 7 12 21 16 16 17 18 9 21 15 14 4 5 5 7 7 15 16 21 17 5 5 3 4 7 5 5 11 16 14
30 30 29 24 20 18 16 13 12 10 7 5 5 11 10 7 15 24 23 24 19 20 16 22 21 14 9 6 6 7 13 19 25 16 10 6 6 2 5 6 8 7 11 10 14
31 29 27 24 20 16 13 10 9 6 4 4 2 2 5 11 6 18 29 30 19 20 16 14 18 16 10 13 13 7 18 16 13 3 5 10 4 7 6 3 7 10 9 6 7
32 32 27 22 18 12 9 7 7 3 2 1 1 1 6 8 14 6 15 26 22 24 22 13 19 16 15 16 11 17 12 15 17 8 2 8 6 5 6 4 6 8 7 2 2
34 30 24 19 13 8 6 6 3 2 1 1 2 5 8 10 10 4 6 19 21 28 23 18 13 13 7 9 13 9 14 9 7 5 1 4 5 3 6 7 7 4 2 5 5
36 29 19 15 11 4 3 2 2 2 1 1 3 6 10 11 4 3 3 1 22 29 17 22 18 10 4 3 6 5 6 8 4 6 2 2 7 12 8 4 7 8 8 8 8
31 23 18 12 8 5 1 1 2 1 2 2 3 8 7 9 17 10 5 10 9 16 19 24 17 9 3 4 1 6 2 8 8 9 4 8 6 13 10 8 8 7 8 8 10
27 25 19 14 10 5 3 1 4 5 4 2 3 4 5 3 12 10 12 7 7 18 24 18 4 3 6 5 4 5 7 12 9 12 5 9 3 14 7 12 9 9 11 8 7
22 21 18 14 12 9 6 2 1 3 2 2 5 4 3 5 5 11 9 7 4 13 15 7 4 5 4 7 11 15 14 14 13 11 14 11 10 9 6 6 8 7 7 6 6
21 19 17 13 11 9 6 5 1 2 4 2 3 11 6 18 9 7 5 2 5 7 9 8 6 18 22 17 7 9 12 13 14 9 11 14 11 11 8 7 7 7 7 7 7
22 18 16 12 10 12 8 2 4 1 3 2 4 6 8 8 3 3 1 7 8 13 14 7 11 11 13 12 15 9 5 15 2 8 5 6 11 10 9 8 8 8 8 8 5
21 19 16 10 6 5 9 4 4 4 1 4 3 3 2 3 5 9 3 1 10 13 13 9 6 14 17 16 15 11 8 9 4 6 2 5 7 10 8 7 8 0 2 5 5
22 20 16 11 5 1 3 1 1 3 2 5 3 2 2 3 3 3 2 5 3 14 11 7 6 7 8 15 15 9 8 5 8 5 3 9 4 11 16 8 3 3 5 6 5
23 22 12 7 7 3 2 2 2 0 2 3 3 4 2 4 4 6 8 2 5 9 4 1 8 5 12 12 8 5 11 7 5 4 4 6 2 2 11 7 6 7 6 6 6
28 19 9 5 5 2 1 3 3 2 4 1 2 4 5 5 3 5 5 5 4 7 8 4 4 2 2 3 5 7 10 8 2 2 2 8 5 4 8 11 9 6 7 8 7
30 16 7 3 1 1 3 1 2 4 1 3 4 5 6 2 4 2 4 4 3 5 3 5 3 3 3 7 6 9 9 3 1 1 4 3 5 6 6 12 11 9 9 8 7
24 8 2 7 1 1 1 3 4 2 2 3 5 7 3 2 4 3 7 3 1 3 4 3 2 1 2 0 5 7 7 4 5 4 4 2 5 4 7 10 13 9 8 6 6
16 1 1 2 5 4 2 4 1 2 2 3 6 2 3 5 6 5 3 4 5 3 3 3 3 2 2 4 2 3 2 4 3 3 3 5 3 4 7 7 6 8 7 6 5
13 6 2 6 4 4 2 4 2 2 3 4 1 1 3 5 4 7 5 2 7 6 6 5 5 2 3 1 4 3 4 2 1 2 4 5 6 4 11 11 7 7 6 6 6
3 3 3 1 5 3 2 0 4 2 3 4 4 1 3 3 3 2 5 4 2 6 6 5 4 6 6 5 6 2 1 3 2 2 2 2 2 3 13 10 9 8 6 5 5
5 2 7 8 1 2 2 3 1 2 2 0 2 4 3 2 1 4 5 5 3 3 5 3 5 3 2 5 5 4 4 2 2 3 1 2 3 1 9 8 7 6 6 6 6
4 2 5 5 1 2 1 3 2 1 1 1 1 3 2 2 1 5 6 1 2 2 2 4 3 4 3 3 4 5 7 8 3 3 4 2 3 5 8 8 6 6 5 6 6
3 3 1 3 2 4 3 5 3 1 2 2 4 3 2 1 3 4 6 2 3 4 4 4 2 2 3 2 5 5 8 10 5 3 3 4 5 5 6 8 8 7 6 6 6
2 2 1 3 4 7 5 5 3 3 3 2 4 6 5 3 3 3 6 4 2 3 1 3 3 3 4 4 4 2 6 10 9 7 4 2 5 12 10 7 7 7 7 6 6
4 3 5 4 3 5 3 1 3 3 2 3 3 3 3 3 1 2 5 5 3 4 4 2 2 2 2 4 3 5 7 8 11 12 11 10 6 1 2 5 6 6 6 5 5
6 6 2 6 4 3 4 8 7 5 3 2 6 2 4 5 6 6 5 2 4 6 5 4 3 2 1 3 3 6 15 16 10 8 13 12 9 2 2 6 5 3 6 5 5

GFSSW_925_spd_045.txt.gz
Wind_Speed
27 27 27 25 22 18 16 16 14 12 12 13 13 13 13 7 10 12 13 13 19 3 14 17 14 11 5 5 8 6 6 11 17 16 19 12 13 1 5 6 6 3 6 12 12
28 29 28 25 22 19 14 13 11 10 9 8 8 10 9 9 10 17 15 17 19 15 12 19 8 9 4 6 5 6 9 16 16 17 4 15 10 11 3 4 6 6 11 18 12
30 30 28 23 21 18 12 9 8 7 5 4 7 8 7 4 6 7 20 24 22 23 13 18 16 6 4 4 6 6 13 14 15 14 4 5 13 11 7 0 3 9 11 12 17
32 30 26 20 16 13 6 7 5 4 3 3 2 2 4 9 6 3 15 33 29 24 21 12 10 6 5 7 7 6 10 16 9 5 5 6 9 12 2 4 5 9 10 9 10
32 28 23 17 14 8 4 3 4 1 1 1 2 6 7 2 8 17 14 34 29 26 26 12 13 7 7 6 8 4 3 10 8 11 8 12 20 7 7 8 11 9 7 7 8
29 25 22 17 12 7 5 4 3 2 2 1 3 5 2 4 7 8 8 28 24 27 22 16 12 10 5 11 7 8 8 6 4 7 8 10 4 4 5 6 9 9 4 1 1
27 25 23 19 16 10 5 3 3 1 1 0 1 2 4 11 2 14 3 8 20 26 12 17 12 13 6 6 6 3 12 7 4 3 4 2 2 17 7 2 6 5 5 6 5
23 25 21 17 14 10 6 3 3 1 2 1 1 3 5 12 11 8 6 4 1 12 21 22 17 8 4 3 4 5 6 5 10 9 5 6 7 7 10 5 6 5 6 6 7
20 20 20 17 14 11 7 5 4 5 3 1 1 3 5 10 3 5 10 6 5 13 20 11 8 5 2 7 3 5 4 5 6 11 5 5 5 10 7 6 8 7 7 7 7
21 18 17 16 15 12 10 7 4 0 3 5 7 2 4 7 8 2 4 6 5 19 7 6 5 6 5 6 15 13 12 9 8 8 7 6 7 6 5 9 10 7 7 7 7
19 18 17 13 13 11 10 3 4 2 1 0 3 4 7 12 2 4 3 2 5 8 6 5 10 19 18 6 5 6 7 5 7 7 7 13 5 12 7 3 6 7 7 6 6
19 16 15 8 8 10 5 4 3 3 4 1 3 4 6 1 1 7 7 5 6 6 16 4 8 5 8 6 7 5 8 8 1 6 10 5 12 8 11 6 8 8 8 7 3
19 18 12 9 6 3 4 3 2 4 1 5 2 4 2 1 3 4 2 1 6 3 14 8 6 8 8 7 8 6 5 4 5 3 3 3 5 8 8 6 8 7 5 5 5
20 19 14 6 4 3 2 2 3 3 1 4 1 4 1 2 4 2 2 1 3 14 8 4 3 11 9 9 5 5 5 3 12 5 4 6 5 6 15 15 9 8 6 6 5
24 20 11 3 3 2 2 2 2 1 4 5 3 3 6 6 3 3 4 5 7 6 3 1 2 5 6 3 2 5 7 7 5 4 3 2 2 7 4 9 7 8 7 7 7
26 22 7 5 5 3 2 0 1 1 5 1 5 3 4 9 2 5 3 4 1 6 10 4 3 4 2 2 2 4 9 8 5 4 1 6 7 5 5 10 6 5 8 9 8
34 17 6 7 5 6 2 1 3 5 1 4 4 5 3 3 3 2 3 3 3 6 3 4 3 2 4 5 7 4 7 2 2 1 5 2 6 10 5 5 9 10 9 8 7
29 4 7 9 9 5 4 0 8 4 1 2 3 3 3 4 2 4 6 3 2 5 4 3 3 1 1 3 3 9 3 5 6 5 4 2 7 6 5 9 13 11 9 8 8
22 4 7 11 11 8 2 4 6 3 3 1 2 2 4 5 5 4 1 5 4 4 4 5 2 1 2 2 2 5 3 2 2 1 3 4 5 6 4 9 12 10 9 9 7
16 4 4 14 13 6 2 4 3 3 3 2 2 1 1 4 3 5 3 1 4 3 4 4 5 1 3 1 2 2 1 2 2 2 4 4 4 4 8 8 10 9 9 8 8
2 2 7 10 12 1 2 3 3 2 2 2 4 2 2 2 1 3 5 6 8 4 5 5 4 3 4 4 5 2 0 2 3 4 3 2 5 5 13 12 11 8 8 8 7
6 2 9 14 1 3 2 3 2 3 2 2 1 3 4 1 2 4 4 2 8 8 7 3 4 3 2 4 9 1 5 4 4 4 3 3 5 4 8 9 8 8 7 7 8
3 2 5 5 1 2 2 2 0 2 1 2 1 1 2 2 2 5 4 3 5 2 5 5 2 3 1 2 4 4 5 3 2 2 4 4 4 1 7 8 7 8 7 7 7
2 3 3 1 4 2 1 4 3 2 1 1 1 2 1 1 1 3 3 1 2 2 1 3 4 6 7 5 5 5 10 10 5 2 3 5 2 2 6 8 7 6 7 8 7
3 2 1 3 4 6 4 3 2 2 1 2 1 3 2 3 3 4 3 2 2 0 2 3 4 2 2 3 3 4 7 15 11 7 7 4 8 8 10 9 8 8 7 8 7
3 3 4 3 4 5 6 6 5 5 3 1 1 5 3 3 2 1 6 4 4 1 3 2 1 2 3 4 4 4 7 8 12 11 7 6 5 6 7 4 7 9 9 8 7
8 6 1 5 5 2 4 5 7 5 4 4 4 3 2 0 2 1 2 4 7 7 5 3 4 3 3 3 1 7 14 15 8 7 15 12 14 2 3 6 7 8 8 8 7

GFSSW_925_spd_048.txt.gz
Wind_Speed
24 25 24 24 22 19 20 17 10 10 11 10 12 12 10 13 13 16 13 13 23 7 17 21 19 10 2 3 2 3 5 12 18 12 7 7 9 8 8 4 4 5 3 9 17
26 25 25 23 18 16 15 13 6 7 6 7 6 7 6 9 9 17 17 14 20 17 13 24 7 9 3 5 2 4 11 19 12 17 6 9 9 11 7 11 6 5 7 16 16
27 24 24 17 14 12 11 4 3 3 3 3 4 5 5 3 3 7 24 26 20 24 12 18 17 8 8 3 5 7 18 7 13 16 3 8 16 13 8 5 4 9 7 5 11
27 24 22 18 13 9 5 5 3 1 1 3 2 3 4 8 6 4 18 21 27 25 16 17 7 10 10 8 6 6 8 12 5 3 7 14 12 13 8 8 10 11 12 6 8
22 23 22 21 15 9 6 5 4 3 2 3 1 2 5 4 8 12 19 23 29 29 24 9 11 7 6 6 6 3 13 13 12 13 12 5 8 9 17 22 12 11 8 8 5
20 20 20 19 15 10 7 6 5 4 2 1 4 2 1 4 10 10 25 16 34 30 26 11 9 8 4 6 10 7 3 7 11 12 16 14 9 5 15 14 9 10 9 8 9
18 17 17 16 15 11 6 5 5 2 2 1 2 4 3 6 5 19 9 9 26 29 18 19 11 8 6 5 3 3 8 3 10 14 7 7 7 16 23 13 8 5 7 7 8
18 16 15 14 12 9 6 4 2 0 2 2 2 1 5 7 11 7 4 3 11 13 23 21 14 7 2 3 5 5 6 5 4 9 7 12 14 19 20 11 10 7 6 6 5
17 17 15 14 11 11 8 5 4 4 3 1 2 1 6 14 4 4 3 5 6 8 13 19 5 4 2 6 4 3 6 8 6 12 5 9 5 8 10 8 10 9 7 6 6
19 16 17 14 11 11 8 5 3 2 1 1 7 4 3 6 7 3 3 5 2 11 7 8 5 5 4 7 16 19 9 11 8 11 7 9 5 4 5 7 11 9 8 7 5
19 20 15 15 12 10 7 2 4 2 2 1 4 4 6 12 5 4 4 6 4 2 4 6 7 17 12 4 6 10 5 5 2 7 7 12 4 9 9 4 8 9 8 7 5
20 19 18 14 12 9 2 5 2 2 3 2 3 4 9 4 1 2 4 4 2 11 6 6 12 6 9 4 7 9 7 5 1 4 8 6 14 7 9 6 7 8 8 8 4
22 20 19 12 10 5 3 5 5 4 1 4 1 2 5 1 2 3 2 8 5 13 12 7 8 10 8 4 5 2 6 5 5 3 2 4 6 7 8 6 6 7 7 6 9
24 21 19 9 5 3 3 5 4 1 2 2 2 1 2 1 3 3 3 3 4 11 8 4 2 9 8 4 4 3 6 5 7 5 4 4 5 6 9 12 11 12 8 8 8
25 23 18 6 4 3 2 5 2 1 3 4 2 2 3 4 6 4 5 2 9 8 6 2 7 10 7 7 5 5 5 8 4 5 4 1 0 6 2 8 17 13 10 9 8
27 24 8 6 7 4 5 5 2 5 3 3 1 4 2 3 3 3 2 3 1 6 9 5 3 4 2 2 3 5 6 8 5 3 1 6 6 5 6 8 5 5 7 9 8
32 16 6 5 2 9 6 2 4 5 0 1 1 5 6 2 4 4 2 4 2 5 4 5 3 2 2 5 3 3 7 2 2 1 7 3 5 17 6 7 7 9 9 9 9
24 6 5 8 9 5 3 4 7 5 2 2 4 4 2 1 4 3 3 2 3 5 4 3 5 1 3 3 3 4 4 5 6 4 4 4 8 7 8 7 8 11 13 9 8
13 4 3 8 12 7 0 4 6 6 4 6 3 1 2 2 4 3 2 4 1 3 5 4 2 0 3 2 1 4 2 1 4 2 3 5 7 9 1 2 8 11 9 9 8
4 2 0 8 9 4 1 3 2 3 1 2 4 6 4 6 5 4 6 6 4 5 3 5 4 2 3 2 1 1 3 1 2 2 4 5 5 6 5 8 10 11 10 8 6
3 3 3 8 6 1 2 4 2 3 0 1 1 1 1 5 5 5 7 3 7 5 4 6 4 3 4 6 7 3 3 3 0 3 3 2 6 5 9 10 12 11 10 8 8
2 2 9 8 1 1 1 4 2 1 1 2 1 3 3 3 4 3 5 2 8 6 6 2 5 4 3 5 7 3 4 6 4 5 3 3 6 5 7 7 9 9 8 8 9
2 1 7 3 1 3 4 2 2 1 1 3 2 3 3 3 3 3 3 3 4 4 6 5 1 3 3 1 1 5 6 5 4 2 6 5 5 5 2 7 6 8 7 7 8
3 2 1 2 1 1 4 3 2 2 1 1 2 3 2 2 4 2 2 4 3 3 3 5 3 5 6 4 4 5 11 10 8 4 6 6 5 3 3 6 6 7 8 8 8
3 2 1 3 3 4 1 7 2 2 1 1 1 1 2 1 2 2 2 2 4 2 2 3 4 3 3 2 4 4 6 17 16 15 9 9 9 6 9 10 10 7 7 8 8
3 3 4 3 4 5 7 7 8 4 1 1 1 5 2 3 1 4 4 2 3 1 2 3 1 2 4 4 4 4 7 11 18 15 12 4 6 7 7 3 5 8 9 8 8
5 3 1 4 5 2 4 5 8 10 4 4 2 2 4 2 2 3 4 4 6 7 4 3 4 3 4 3 2 7 13 14 11 10 16 11 16 3 5 10 9 9 10 10 8

GFSSW_925_spd_051.txt.gz
Wind_Speed
24 23 23 23 22 19 19 17 17 14 11 9 7 8 10 11 13 16 17 11 22 7 6 19 15 9 4 3 4 1 6 15 18 13 14 1 6 7 11 5 4 7 2 7 19
24 23 23 22 20 17 16 15 9 8 6 4 4 6 7 8 9 15 16 10 18 16 8 18 8 7 3 4 3 5 9 16 6 16 18 4 5 8 8 14 6 3 8 16 23
21 22 22 21 18 15 12 8 6 4 3 2 4 6 3 3 1 7 22 21 15 13 12 9 17 7 4 4 4 5 13 3 8 11 1 5 1 7 7 7 5 10 5 6 17
19 20 20 20 18 14 11 7 6 3 1 1 3 5 2 6 5 3 10 24 21 13 15 8 6 7 6 9 6 6 12 13 6 5 3 6 4 7 3 9 10 11 9 4 7
18 19 18 18 15 12 10 8 5 4 2 2 1 3 2 3 6 9 9 3 16 17 18 11 7 7 12 15 5 3 10 8 12 12 7 1 7 14 16 18 15 14 5 8 6
18 17 17 16 14 11 9 7 5 2 2 1 3 1 1 4 9 11 17 15 17 20 25 17 9 10 4 8 10 6 4 10 13 10 8 5 3 3 21 7 12 10 7 7 7
19 18 15 14 12 10 9 7 6 4 2 2 2 3 3 6 14 12 15 13 15 25 16 18 15 9 5 5 5 4 6 5 7 11 7 11 11 13 26 16 16 11 8 8 9
19 17 15 14 11 10 10 9 7 7 6 2 1 1 4 7 7 12 14 5 15 26 29 24 13 5 2 3 5 4 4 5 8 12 4 13 10 19 7 16 14 10 8 8 7
19 18 16 15 12 11 9 10 8 8 8 4 1 2 6 1 3 7 3 1 9 9 19 22 7 3 1 7 5 2 6 6 7 18 8 16 5 18 20 20 14 14 9 8 7
18 19 18 15 13 12 11 9 6 5 1 4 5 2 2 3 6 1 6 6 3 7 7 12 5 4 2 6 15 18 6 13 8 11 9 18 3 12 19 19 18 19 8 8 8
20 20 17 17 13 13 10 2 3 3 1 4 3 3 4 13 1 3 4 7 6 4 12 13 7 19 14 4 4 8 5 7 1 4 11 10 7 6 8 6 8 10 9 9 9
20 20 18 16 12 10 4 1 1 1 4 3 5 3 7 3 0 3 7 4 4 1 5 13 13 7 8 6 5 9 5 4 2 3 11 7 8 8 9 7 9 10 9 10 5
21 20 18 15 10 5 1 1 1 3 2 4 1 1 5 1 2 3 3 5 2 10 3 15 11 10 7 4 7 3 7 4 5 3 3 4 3 8 11 6 7 7 8 6 10
23 20 19 10 4 1 2 5 2 3 3 4 1 1 3 3 3 2 4 3 3 6 3 4 9 12 8 4 4 4 4 5 5 4 4 3 4 8 9 12 9 14 10 10 8
24 22 18 5 1 2 0 7 2 3 4 3 1 1 3 3 3 3 4 2 5 7 4 6 17 16 10 6 5 2 5 6 3 4 3 1 1 6 3 7 17 14 12 9 9
28 24 12 5 7 3 5 6 2 4 2 3 1 2 3 3 1 4 5 2 4 4 3 5 3 4 3 3 5 7 6 7 5 3 2 5 5 6 6 7 4 7 11 9 9
31 22 6 9 3 10 8 3 4 4 1 2 3 4 6 5 4 1 2 4 3 4 3 8 3 2 4 7 2 4 5 2 1 1 5 2 4 15 7 4 6 8 9 9 9
28 6 8 5 10 11 5 2 5 3 3 1 4 3 2 2 2 2 5 2 1 3 4 3 5 2 4 3 5 5 6 5 6 4 3 2 8 6 6 9 7 8 7 6 8
12 4 8 7 12 7 2 3 6 5 3 2 5 3 4 3 4 4 2 2 2 2 4 5 3 3 3 2 2 4 3 3 6 2 3 5 7 9 7 10 6 6 7 10 8
2 2 2 8 10 3 1 3 2 3 3 0 3 1 1 5 5 3 6 3 3 2 1 3 5 1 1 1 3 3 3 2 3 3 4 4 5 7 6 9 5 7 10 8 7
3 2 1 11 5 1 1 4 3 4 2 0 3 2 3 3 3 5 8 2 4 4 3 3 4 3 3 5 6 1 2 3 2 4 4 2 5 6 6 8 8 8 8 10 10
2 2 3 5 2 1 2 5 2 1 2 3 1 2 1 4 2 3 6 3 7 6 6 4 4 4 4 1 2 4 4 6 4 4 3 2 6 2 6 7 7 7 7 7 9
2 1 1 2 1 3 6 1 2 3 2 2 3 3 2 2 4 1 2 5 7 6 7 6 1 3 2 3 2 5 8 4 2 2 7 4 5 2 4 2 4 7 7 6 7
2 1 2 1 2 2 4 5 2 2 1 2 1 4 2 3 5 4 3 2 3 2 3 4 3 5 6 4 4 6 10 14 10 4 5 10 6 4 4 3 4 5 6 7 8
3 1 2 1 0 4 2 6 3 3 2 4 4 5 3 2 2 3 2 3 3 3 3 4 4 3 4 4 5 6 7 17 18 17 8 5 14 11 6 7 9 7 6 7 7
1 2 2 2 2 3 6 6 7 5 5 3 3 6 3 3 3 4 4 3 3 1 3 2 1 2 3 2 4 4 8 11 18 19 19 17 16 4 5 4 5 10 11 10 9
4 3 2 5 4 2 3 2 4 6 3 6 3 3 3 4 5 5 4 2 3 7 3 3 4 3 3 4 3 7 12 12 7 7 16 15 22 6 6 7 10 11 12 13 11

GFSSW_925_spd_054.txt.gz
Wind_Speed
21 22 23 24 21 19 17 16 15 12 8 7 7 8 7 10 10 10 10 8 20 6 5 14 11 4 3 3 4 2 4 14 10 6 5 2 3 5 3 5 4 7 4 10 22
21 21 22 23 21 17 15 13 12 9 6 4 3 6 5 7 9 14 13 10 19 13 9 10 6 5 2 3 3 4 11 15 9 15 6 4 5 5 5 9 5 12 17 19 7
19 20 20 21 19 16 14 12 12 8 6 4 5 6 3 2 1 4 11 19 15 8 12 4 15 6 2 4 4 6 10 8 6 7 7 3 2 2 5 4 4 7 14 10 11
19 18 19 19 17 15 14 13 10 8 5 4 6 7 1 1 4 5 7 15 21 11 6 4 6 7 5 6 6 5 2 12 3 4 6 7 2 3 3 7 6 9 11 6 6
20 19 18 18 17 14 12 11 9 7 7 4 6 5 3 1 4 11 11 10 11 18 12 7 8 5 7 6 7 2 4 9 7 7 5 6 1 4 9 7 6 8 12 9 5
19 18 17 17 15 13 12 10 9 7 7 6 5 5 3 3 9 12 12 13 6 12 8 11 6 5 4 7 8 7 2 8 11 10 9 9 2 4 16 5 7 11 14 9 5
19 19 17 15 14 12 11 10 8 7 6 7 5 4 2 7 11 10 10 8 10 17 11 16 10 8 5 4 2 1 10 2 3 9 5 8 2 9 14 9 13 11 10 10 6
20 19 18 17 15 13 12 11 9 7 6 6 4 3 4 5 10 8 11 11 13 23 20 16 13 5 2 5 6 2 4 7 5 7 2 11 17 12 1 6 16 12 11 9 10
20 20 18 17 16 14 13 12 9 5 5 5 4 2 5 4 4 8 6 5 12 21 20 18 5 4 3 7 4 5 7 5 5 13 8 8 5 8 13 9 15 14 12 10 8
20 21 20 18 16 15 15 10 5 5 1 1 5 4 4 3 5 5 2 1 6 14 8 7 3 6 3 6 17 14 5 2 5 10 8 12 1 8 14 10 13 16 13 8 7
21 21 22 19 16 13 13 3 4 2 1 4 3 5 5 11 0 2 2 4 4 10 9 2 7 17 7 2 3 8 5 6 2 5 4 6 7 4 13 14 7 15 13 8 9
21 21 21 19 17 11 6 2 3 2 3 3 5 5 8 4 1 2 1 4 2 11 4 7 11 13 7 4 4 8 7 4 2 2 9 6 10 13 9 18 17 18 16 12 5
21 20 19 19 12 8 2 2 5 3 1 3 3 3 4 2 1 2 2 5 7 3 2 2 6 9 6 5 6 3 8 5 6 4 2 5 5 8 12 7 9 16 14 9 7
22 20 20 18 6 2 2 6 4 2 3 1 2 2 2 1 4 3 3 4 3 3 3 4 9 14 8 7 6 3 5 6 8 6 4 1 4 10 15 14 10 16 15 11 9
22 21 17 7 4 2 2 8 2 1 3 0 2 2 3 1 5 3 2 3 6 5 4 6 20 15 10 7 5 3 5 5 3 5 4 1 0 6 5 13 27 18 10 9 10
25 21 10 3 7 3 7 5 0 5 2 0 0 1 0 4 4 6 4 2 5 6 9 4 3 4 5 3 4 8 6 7 5 3 2 6 6 7 7 8 7 6 12 12 10
25 15 5 7 1 8 8 1 4 5 1 1 3 2 4 2 5 3 4 6 4 6 3 8 3 3 3 7 3 3 5 2 2 1 4 4 5 10 1 4 5 8 8 9 8
19 5 9 4 5 11 3 3 5 6 1 2 2 4 0 3 3 3 5 2 3 2 4 4 6 1 4 4 7 4 4 4 5 4 3 3 7 6 5 5 6 8 8 4 7
3 10 6 4 10 4 1 3 5 4 1 4 1 2 2 1 4 3 1 2 3 4 4 4 4 2 6 1 2 3 2 3 6 3 3 4 7 8 8 7 5 9 6 7 7
4 4 3 6 7 1 0 3 1 3 1 2 0 2 2 2 1 1 3 3 3 2 1 2 5 4 2 2 5 3 6 3 3 3 4 4 5 6 7 10 8 7 7 6 6
2 3 3 7 3 2 2 4 4 5 2 2 2 2 2 2 4 2 3 1 3 4 3 4 3 2 2 3 4 2 2 4 3 4 4 2 5 6 5 7 10 9 7 7 7
3 2 3 3 1 0 2 3 3 2 3 3 2 1 2 4 3 1 4 2 4 4 4 1 5 4 2 3 2 3 5 5 4 5 1 2 8 4 6 8 8 8 4 7 7
2 2 2 2 2 1 4 3 2 3 3 4 4 4 3 3 4 2 2 6 4 3 4 4 2 4 2 2 3 4 5 3 2 2 5 3 5 1 4 6 3 4 4 5 7
3 1 1 1 1 2 3 3 3 3 2 2 2 3 3 4 5 4 2 3 1 2 10 5 3 4 5 4 4 5 10 13 10 5 7 14 16 14 8 5 4 4 6 8 7
3 1 2 1 1 3 1 2 2 4 4 5 4 5 2 2 3 3 3 3 4 6 5 3 1 2 3 2 3 4 7 14 16 21 10 17 17 17 14 11 6 7 5 7 7
3 2 2 1 2 1 4 3 3 4 3 3 4 5 2 4 3 2 3 0 3 2 4 2 2 3 4 3 4 4 7 9 17 19 17 21 24 17 5 6 5 9 9 10 11
2 2 3 3 2 1 0 1 4 4 2 4 2 1 4 1 2 3 4 1 2 6 3 4 5 3 4 2 2 6 14 14 6 7 16 16 23 4 9 12 11 9 11 13 11

GFSSW_925_spd_057.txt.gz
Wind_Speed
18 19 19 21 20 19 17 16 14 12 10 8 7 6 7 9 10 8 8 7 15 10 7 12 13 7 2 5 6 4 2 8 8 7 5 3 3 2 1 5 8 5 6 9 4
17 17 19 19 19 18 16 15 14 11 9 8 7 7 5 6 5 8 11 11 16 15 10 5 7 6 3 4 2 5 7 8 6 5 6 3 3 1 3 3 3 4 15 19 6
19 17 18 18 18 16 14 14 13 11 9 7 8 7 4 1 1 2 12 14 18 19 14 6 12 6 4 4 6 5 17 15 10 7 7 5 2 1 2 2 3 4 11 16 7
19 19 18 17 17 16 13 12 10 10 9 6 8 7 3 1 2 1 12 10 15 19 14 6 6 7 5 8 6 9 5 12 1 7 6 7 4 2 3 3 6 3 4 8 10
18 18 17 16 15 14 12 10 9 8 7 7 7 7 3 1 4 7 13 10 4 17 14 7 9 5 4 5 7 5 5 11 10 7 8 6 4 5 11 5 1 3 7 9 12
17 17 17 16 14 13 12 10 9 8 6 6 6 7 1 3 2 11 9 10 5 12 11 7 8 4 4 5 7 8 5 7 9 8 7 7 1 1 7 5 4 5 6 6 8
17 17 17 17 17 14 12 11 10 9 7 6 5 4 1 7 10 10 6 7 5 14 5 8 2 4 4 5 4 4 7 4 3 8 5 4 4 16 4 2 6 8 7 8 9
18 18 17 16 16 15 14 12 11 11 8 5 3 1 4 6 9 8 5 8 11 14 14 12 7 1 1 3 4 5 5 5 7 7 4 11 21 16 5 2 10 7 8 8 12
19 18 17 18 16 15 14 13 12 8 6 5 3 2 6 5 5 13 6 4 3 15 17 11 7 4 2 8 4 2 6 6 3 10 5 12 3 6 9 9 14 14 9 8 12
18 19 18 18 16 14 13 13 6 6 2 4 2 2 4 2 6 8 2 3 4 12 9 5 5 7 3 8 14 10 7 4 5 9 8 12 3 1 5 10 14 8 10 11 12
19 19 18 16 14 10 13 3 2 2 1 5 3 3 4 11 4 3 3 2 4 9 5 5 1 13 13 3 5 9 9 8 3 8 7 9 9 4 6 7 7 9 11 9 11
19 19 18 16 15 7 7 1 3 1 4 5 5 4 8 4 2 1 1 3 7 11 8 3 7 8 6 5 8 11 8 3 2 5 5 6 10 11 8 11 12 13 18 17 9
19 18 18 16 12 5 2 3 2 1 1 2 3 2 3 3 1 2 2 3 12 10 6 3 8 6 4 5 9 3 11 5 5 5 1 5 6 9 7 8 11 12 13 12 10
18 18 17 13 1 2 2 4 2 1 4 1 2 1 1 0 4 2 2 3 5 7 3 3 13 11 6 4 5 3 7 7 9 4 3 2 4 8 13 9 14 19 20 15 9
19 19 15 5 1 1 0 6 1 1 4 0 1 1 2 2 2 3 1 2 7 8 3 1 13 14 5 5 4 3 6 5 4 5 3 1 2 4 4 15 20 12 14 11 11
20 17 7 4 5 1 6 3 1 5 2 1 2 2 2 3 1 2 1 5 3 4 5 2 3 3 5 3 3 8 6 7 4 3 2 5 6 3 4 6 5 10 15 14 16
18 6 7 9 3 7 7 2 4 4 3 2 1 4 4 2 4 2 3 2 4 6 3 4 4 3 2 7 4 4 6 3 2 2 4 1 3 8 5 5 6 8 9 11 9
5 7 9 4 6 11 4 2 6 3 2 3 3 4 2 3 3 3 3 4 1 3 4 3 6 2 1 4 6 3 4 4 5 4 3 1 6 4 6 5 5 6 7 5 5
7 10 5 6 10 4 0 4 4 3 1 3 1 3 2 4 3 1 1 3 3 3 2 4 3 2 5 2 2 3 2 4 6 2 1 3 4 9 6 7 4 7 6 8 8
6 4 4 5 5 1 1 1 2 3 3 3 1 1 1 2 1 3 1 1 5 3 5 2 6 5 1 1 6 3 5 2 2 3 4 2 3 5 3 2 6 8 10 7 6
4 3 3 4 2 1 1 3 3 5 2 1 1 2 1 1 3 2 3 1 1 3 3 2 3 2 3 1 5 3 1 4 3 3 3 1 4 6 5 3 6 9 9 8 5
4 2 4 2 1 1 1 2 2 2 1 0 1 1 4 4 2 2 2 2 3 3 3 1 4 4 2 1 0 2 3 4 4 4 0 1 6 3 5 6 4 8 7 3 3
3 2 2 1 1 1 3 3 1 3 2 2 2 1 0 3 4 2 1 5 4 2 4 4 2 4 2 4 3 3 4 4 4 3 5 4 4 2 4 4 3 3 5 3 4
3 2 1 1 1 1 2 4 4 3 3 3 2 2 2 3 5 3 3 4 2 2 8 5 3 4 5 4 4 5 7 11 7 6 10 13 11 14 14 13 9 4 4 5 7
3 1 1 2 1 1 1 3 3 5 6 7 4 4 2 3 2 3 3 2 4 2 3 3 3 3 2 4 4 4 6 11 14 18 12 16 10 15 9 7 7 5 4 6 8
4 4 2 1 1 1 3 3 3 3 3 3 4 4 4 5 3 1 3 1 2 4 2 3 2 2 2 2 3 4 7 9 15 17 19 23 25 16 18 9 12 11 6 8 10
3 2 3 3 1 2 1 2 1 6 1 3 1 1 6 2 1 4 4 0 3 6 3 3 4 2 2 4 4 6 6 9 4 5 13 15 20 11 12 11 9 11 11 12 12

GFSSW_925_spd_060.txt.gz
Wind_Speed
16 13 13 15 16 15 13 13 13 12 10 10 8 7 7 7 8 7 12 10 12 14 6 16 18 13 8 5 9 9 8 14 14 17 10 8 6 1 2 12 14 6 6 5 4
17 16 13 15 14 13 12 11 11 10 9 7 8 8 7 5 5 11 9 13 15 13 11 16 17 17 12 9 6 11 11 21 17 5 11 6 8 7 5 9 11 11 12 11 5
16 16 16 12 13 11 11 10 9 9 8 8 9 9 6 2 5 5 4 6 14 13 12 8 18 17 18 13 6 17 15 20 18 11 7 7 6 3 8 6 7 8 9 13 7
15 15 16 15 12 10 10 9 8 7 8 6 8 9 7 2 3 4 7 6 4 14 11 7 10 17 16 12 9 12 20 17 16 7 6 5 5 2 3 4 6 3 4 8 10
14 15 14 15 14 10 9 9 8 7 7 7 7 7 3 5 5 3 9 6 1 9 13 9 15 16 19 20 19 13 19 12 16 10 13 13 9 8 10 7 4 2 1 4 8
15 15 15 14 14 14 9 9 8 7 7 7 7 7 3 7 1 9 12 8 2 17 18 7 12 12 17 17 20 18 9 13 12 8 6 10 9 7 15 6 6 4 3 2 4
15 16 16 14 14 13 12 9 10 8 8 8 6 4 6 8 2 9 8 4 5 13 12 12 8 7 13 14 13 10 19 14 10 16 6 11 13 17 22 12 9 9 7 5 5
18 15 17 13 13 13 13 10 10 8 8 7 5 4 5 4 7 9 6 6 8 12 17 7 7 5 10 6 12 14 15 11 15 21 12 16 21 20 14 12 15 14 12 7 7
18 16 17 16 15 14 13 11 10 8 5 5 4 4 5 4 4 9 5 4 12 6 14 4 5 5 7 16 11 14 15 22 13 18 11 19 11 4 10 16 15 14 16 12 10
18 17 17 17 14 14 12 11 4 3 0 2 3 6 4 5 7 8 6 7 7 12 8 4 2 9 11 14 16 18 15 20 14 13 14 16 11 3 9 14 14 15 15 14 14
18 17 17 15 15 13 9 1 3 3 4 3 1 4 6 4 6 3 3 6 4 12 6 6 3 10 21 17 3 15 11 16 13 11 15 13 13 14 5 10 12 12 12 16 15
18 17 16 15 15 11 6 2 1 2 1 3 6 7 9 2 1 5 1 4 6 10 12 5 2 5 11 10 7 17 17 14 6 11 13 14 16 15 14 11 12 14 16 18 16
18 17 17 15 13 6 4 1 3 1 1 1 2 4 4 2 1 1 0 2 3 7 10 9 1 11 16 12 14 16 18 14 11 10 3 6 13 18 16 15 13 18 18 15 14
18 17 16 13 4 1 2 5 3 1 1 2 2 1 2 3 3 4 5 2 4 11 10 2 4 14 21 13 14 13 9 12 15 11 5 9 4 11 16 17 21 18 17 17 11
19 17 14 6 2 2 2 7 3 2 1 1 1 3 2 3 2 2 5 4 8 10 5 4 14 13 20 13 7 4 12 11 9 7 3 8 5 9 5 18 19 15 17 17 17
19 16 4 5 4 2 7 4 2 2 4 1 1 1 2 3 2 5 3 5 8 7 5 4 13 3 6 6 1 14 14 11 6 4 5 11 10 4 5 6 8 10 15 17 17
15 4 7 7 3 6 6 2 1 3 1 1 1 3 3 4 4 2 4 6 4 5 1 6 9 5 1 9 10 9 16 5 5 4 4 2 8 9 4 4 5 4 6 9 15
2 5 7 2 5 7 1 2 4 1 3 0 1 3 2 2 3 4 5 4 1 2 3 3 5 9 4 10 8 14 10 3 6 5 4 2 6 0 4 6 9 8 10 9 10
8 4 2 5 7 1 3 1 2 1 2 2 2 3 2 4 3 3 2 4 3 1 3 3 3 1 2 2 5 6 5 3 4 2 2 4 2 11 10 6 8 6 6 8 8
4 2 2 5 2 1 1 2 1 2 1 2 3 3 2 3 2 2 2 1 5 2 2 4 6 4 4 3 8 4 9 3 1 4 4 3 4 3 8 8 3 8 9 8 8
3 3 2 2 1 2 1 1 2 3 2 1 4 2 1 2 4 3 2 2 3 2 2 1 2 2 7 3 8 4 4 1 1 2 2 2 2 2 4 4 6 7 9 10 10
4 2 2 0 1 1 0 1 3 2 1 1 3 4 1 2 4 2 3 2 5 7 3 3 4 3 4 1 2 3 7 12 6 5 2 3 4 4 4 4 3 5 8 6 5
3 2 1 0 1 1 1 1 2 2 2 1 2 2 1 1 3 3 3 3 4 4 5 5 3 5 3 0 1 5 7 7 4 2 6 6 3 1 1 3 1 9 12 8 2
3 3 1 1 1 2 2 2 3 2 2 3 2 1 1 1 2 4 4 4 3 2 5 1 2 2 6 2 4 8 13 12 10 5 12 13 16 12 11 13 17 17 13 10 6
0 2 1 4 5 3 1 1 2 2 3 5 3 3 1 1 2 4 4 3 3 3 2 1 3 1 4 4 2 2 10 15 15 19 13 18 18 19 15 15 18 19 15 11 9
4 4 2 3 2 4 1 2 2 2 4 3 4 5 1 3 4 2 4 3 3 1 2 2 3 1 2 2 2 4 9 10 15 19 19 23 23 19 19 14 14 15 15 14 14
3 2 1 2 3 4 3 2 2 2 4 6 2 2 7 4 2 5 4 3 1 5 3 2 4 2 2 2 3 6 9 11 7 8 10 17 20 16 16 17 17 17 16 15 15

GFSSW_925_spd_063.txt.gz
Wind_Speed
16 16 13 11 13 13 12 11 11 10 10 9 9 9 9 8 9 11 15 19 11 16 10 14 24 19 15 9 19 19 5 16 20 19 14 12 9 2 1 7 4 6 6 4 7
15 15 16 15 11 11 12 10 10 9 9 9 10 10 10 8 9 14 16 10 13 14 11 14 21 23 16 17 9 12 14 20 18 15 16 14 12 8 8 10 13 12 11 8 10
16 15 14 15 15 11 10 11 10 8 8 8 9 9 10 6 10 6 2 8 10 15 15 10 19 21 21 17 9 17 18 20 21 5 10 11 9 6 13 11 10 9 9 9 10
17 14 15 14 15 14 11 11 11 8 7 8 9 11 9 5 4 5 5 6 9 13 13 8 10 19 20 22 17 11 22 21 11 8 12 12 9 6 5 10 8 6 5 8 8
17 15 15 14 14 15 13 11 11 10 8 8 8 10 8 6 9 2 7 7 8 9 12 10 12 15 24 24 21 20 13 19 19 17 15 9 6 4 7 6 6 1 1 3 6
18 17 16 15 15 14 15 13 12 11 9 8 8 9 8 11 3 5 9 8 8 10 9 14 9 17 17 22 22 18 10 15 20 13 12 14 17 13 11 10 5 4 3 1 4
18 20 15 15 15 13 15 16 13 11 9 9 7 6 9 12 5 7 9 8 8 10 11 17 12 9 11 20 21 11 16 16 14 8 16 17 13 15 21 12 9 8 7 5 4
18 19 16 17 17 15 15 14 15 11 10 8 6 7 8 4 8 11 8 7 9 6 8 5 7 10 10 13 19 23 21 4 16 20 9 8 18 21 19 17 22 12 12 9 7
17 18 18 17 16 15 15 14 15 12 8 7 7 6 9 2 6 11 8 6 11 6 5 2 6 7 19 17 16 19 16 15 8 12 9 14 9 12 4 16 22 17 17 15 12
17 17 17 17 14 16 16 13 11 4 4 5 7 6 6 6 11 7 7 6 9 10 9 3 1 8 16 17 18 23 21 20 13 15 14 16 12 7 14 17 19 22 21 17 17
17 17 17 15 14 15 12 5 4 5 8 6 5 9 4 8 6 4 4 5 7 11 4 4 1 10 25 24 16 18 19 16 19 13 18 13 15 18 8 12 15 16 17 21 18
17 16 16 14 16 13 7 5 3 4 3 5 7 7 8 1 3 2 4 4 4 3 9 5 1 4 7 18 6 15 16 10 10 10 11 14 18 21 18 15 11 16 15 19 20
16 16 16 14 14 8 8 5 2 3 4 3 4 6 4 5 2 2 1 2 1 4 11 7 3 3 6 12 10 14 16 15 12 7 12 11 18 17 17 17 14 14 13 12 8
15 16 15 12 6 2 4 6 2 3 3 3 1 1 2 3 3 3 1 1 4 9 15 6 1 2 4 14 12 13 13 9 9 12 9 14 6 19 20 18 18 15 13 13 12
15 16 14 6 4 3 1 4 2 3 2 1 1 4 3 3 4 4 3 6 3 7 4 4 8 6 8 16 12 12 9 12 12 15 2 10 6 10 8 16 17 16 15 14 10
15 13 3 4 6 1 3 2 3 3 1 2 2 2 3 2 4 4 1 4 7 6 11 5 4 0 7 9 4 13 13 10 6 7 5 14 12 8 9 8 10 12 15 15 15
10 2 5 4 2 3 4 3 3 2 2 3 2 2 6 3 4 4 5 7 3 4 5 4 6 8 10 11 11 16 17 6 5 4 6 1 9 3 3 2 2 3 2 6 10
2 4 3 1 1 4 4 3 2 1 1 3 5 3 2 3 3 4 5 3 1 6 2 2 5 7 5 8 8 15 14 4 6 6 8 5 6 2 3 3 4 4 5 6 7
9 3 1 1 3 1 3 4 2 1 3 1 4 3 2 1 2 2 2 5 4 2 0 2 3 2 3 3 6 10 6 3 2 3 0 7 4 9 7 6 4 2 1 3 5
5 4 2 3 1 3 3 0 1 0 2 3 4 4 3 4 4 4 5 1 4 1 3 4 4 4 4 4 2 4 8 3 1 3 4 4 3 3 11 9 6 7 8 8 6
6 3 3 3 3 3 2 1 1 3 2 3 3 2 2 3 5 3 3 2 3 4 1 6 4 2 8 7 10 4 4 3 2 3 3 1 5 7 12 10 3 5 7 9 10
4 2 3 1 2 2 1 2 1 1 2 0 1 5 3 1 4 2 3 3 4 4 6 2 4 4 2 2 7 10 11 13 5 4 3 4 2 6 3 3 1 2 7 10 8
3 2 2 3 2 3 2 2 2 0 2 1 1 1 2 2 3 4 5 2 3 3 3 3 4 5 4 3 3 7 10 7 10 3 5 4 3 5 4 3 4 5 10 13 14
4 3 2 3 4 4 4 3 4 2 2 1 1 2 2 3 1 7 6 4 3 3 2 3 4 3 3 2 6 10 14 14 12 5 10 12 14 12 8 8 11 13 14 16 12
3 3 4 4 7 7 4 3 6 3 0 1 3 1 0 4 4 5 5 8 5 2 3 3 2 2 4 5 3 3 11 15 13 17 13 13 15 14 13 14 16 16 15 14 12
4 4 3 4 3 8 5 6 6 3 3 3 3 4 1 5 5 3 6 3 4 5 2 1 2 2 1 2 2 5 7 8 14 16 16 17 17 16 13 9 13 16 16 15 14
3 1 4 5 8 8 6 6 5 2 4 5 2 5 8 7 5 4 3 3 2 3 5 2 4 2 2 1 3 6 8 10 8 8 7 11 11 12 12 12 12 13 14 15 14

GFSSW_925_spd_066.txt.gz
Wind_Speed
16 15 15 17 17 14 14 14 13 12 12 11 12 13 13 13 13 11 14 18 19 18 12 8 15 21 20 10 13 14 9 14 19 17 7 10 5 1 6 5 6 6 7 12 12
14 15 14 15 17 18 14 13 12 11 11 11 11 12 13 13 12 15 16 17 6 14 12 13 14 19 9 13 6 12 14 14 19 15 5 10 8 6 3 9 8 11 10 14 12
16 17 14 14 16 17 18 13 13 12 10 11 11 13 14 12 13 5 3 6 10 12 16 12 12 16 16 15 10 9 14 15 16 5 12 10 9 6 9 8 9 9 11 11 10
17 17 15 15 14 17 17 15 13 13 11 11 12 14 15 11 6 7 2 2 6 7 10 6 8 7 12 18 13 6 20 17 13 4 5 9 7 6 6 7 9 7 7 11 10
17 17 18 15 14 14 15 17 16 13 11 11 11 13 11 7 10 3 3 5 6 2 12 8 8 6 15 14 16 16 15 16 12 5 9 12 8 6 9 9 7 5 2 9 10
17 17 19 14 14 15 14 16 18 15 13 11 10 12 12 13 1 2 6 7 8 3 3 5 7 7 13 16 19 13 15 15 11 18 21 10 5 5 7 9 7 7 2 6 8
17 17 17 16 15 15 15 16 16 18 12 11 10 10 12 14 8 7 9 8 9 6 11 13 15 15 7 16 20 10 17 4 5 6 10 8 10 11 8 8 5 8 5 4 6
17 17 16 16 16 15 16 15 16 15 14 10 9 11 9 13 6 9 10 8 7 4 7 10 10 11 4 11 15 22 14 8 5 2 8 12 19 14 10 2 8 7 7 6 8
17 16 15 16 16 15 16 18 15 14 12 8 7 9 10 3 6 6 9 7 7 4 3 10 5 2 5 7 15 17 7 16 3 1 3 5 5 15 9 8 12 11 8 7 7
16 16 15 16 15 14 17 17 12 10 7 9 12 5 6 7 8 6 8 7 6 8 5 3 3 2 4 9 15 19 10 7 11 5 14 11 7 12 8 13 14 12 13 11 8
15 15 15 14 12 15 15 8 3 4 10 7 2 9 11 9 6 4 4 6 5 3 2 4 4 8 14 13 8 12 15 10 8 12 10 16 12 6 7 13 16 12 12 15 17
13 15 13 12 13 11 8 4 7 3 7 12 7 9 10 8 4 2 2 5 4 4 7 5 3 0 14 20 16 17 18 17 16 12 9 8 7 8 8 9 9 8 9 12 13
13 13 12 12 13 7 7 11 4 6 4 5 4 5 2 6 2 3 3 3 1 4 9 1 1 4 11 18 12 13 13 7 11 12 12 8 7 12 14 13 9 7 7 6 4
11 11 11 9 4 2 6 3 1 3 2 4 2 0 2 4 1 3 2 3 3 4 12 6 3 6 13 12 14 8 9 19 15 6 4 7 3 13 15 15 12 10 7 6 6
10 11 9 7 4 2 2 2 1 2 2 2 1 2 5 2 1 1 4 5 6 7 5 5 2 7 6 5 2 5 7 8 9 5 3 7 2 6 12 9 8 9 8 9 8
10 9 2 5 5 2 2 1 1 2 1 2 0 2 2 1 3 6 5 7 2 11 15 10 4 6 7 6 8 8 11 10 6 1 2 3 4 6 4 8 7 11 10 9 9
6 5 7 5 3 3 3 1 2 2 3 3 2 3 4 4 2 4 4 6 3 3 4 4 3 5 3 3 3 10 8 3 3 3 2 5 5 7 6 5 7 7 6 2 5
6 8 5 2 3 4 2 2 2 2 1 7 5 1 3 5 2 4 3 4 5 8 4 2 2 1 3 1 5 9 5 4 4 4 3 3 3 4 5 7 7 8 4 3 4
12 5 4 3 6 2 1 2 2 1 3 1 8 1 2 2 2 5 2 3 3 2 2 2 4 4 4 4 3 7 1 3 3 2 4 4 5 1 6 6 7 7 9 8 8
7 6 5 7 4 3 2 3 1 0 3 4 3 3 2 4 1 2 3 3 4 1 3 3 4 6 3 3 3 4 2 2 3 2 3 3 5 3 8 7 8 9 8 7 7
3 3 5 7 3 2 2 2 4 3 2 4 2 2 3 3 2 3 3 2 1 3 6 7 3 3 2 1 4 3 1 2 1 3 1 2 1 5 9 8 9 9 5 5 5
4 3 7 7 2 3 2 5 2 2 2 1 1 4 3 8 2 3 3 3 2 1 2 4 4 3 0 4 5 6 4 3 3 3 0 3 3 2 9 8 3 7 2 4 6
3 3 4 3 2 4 3 5 2 4 0 2 2 3 2 4 4 4 5 2 3 1 2 0 3 3 1 2 2 4 5 4 2 3 2 3 2 5 7 6 5 6 4 6 6
4 4 3 3 4 4 5 6 6 1 2 1 2 3 4 5 3 7 5 4 2 1 3 3 3 3 1 0 5 5 8 7 4 3 4 5 4 5 4 1 2 4 6 6 5
2 4 5 4 5 8 2 5 7 4 1 2 3 3 3 4 9 4 6 6 4 4 2 1 1 2 4 5 5 2 6 9 7 8 4 6 8 6 7 6 6 7 9 8 8
3 3 2 2 6 9 5 6 7 5 4 3 2 3 3 6 4 7 6 4 4 6 3 3 1 3 2 2 3 0 4 5 6 7 10 10 12 6 7 8 8 7 7 7 8
2 1 1 4 4 7 7 4 6 3 2 6 5 8 7 5 7 6 5 2 3 4 4 2 4 2 2 2 4 5 6 8 4 2 1 5 1 5 6 6 6 7 6 7 8

GFSSW_925_spd_069.txt.gz
Wind_Speed
13 13 13 11 12 14 16 12 13 13 11 12 13 13 14 15 15 10 9 10 12 17 14 12 12 14 15 4 5 2 5 10 8 5 3 5 5 0 0 5 5 4 3 10 25
15 15 15 12 11 13 16 16 11 12 12 11 12 14 15 16 16 13 12 10 14 10 17 3 6 7 5 4 5 6 7 13 8 5 2 4 6 7 4 6 5 7 9 14 17
14 15 16 14 12 11 14 15 14 12 12 11 12 14 15 16 6 3 2 4 5 9 16 11 7 6 13 8 6 6 11 9 3 4 6 9 4 5 9 2 4 10 9 8 15
16 16 16 17 13 12 13 13 14 15 13 11 11 12 17 8 4 2 2 2 5 4 8 6 5 4 9 13 7 5 12 15 6 3 3 6 6 5 2 5 8 10 11 4 9
16 15 15 16 13 12 14 13 14 15 14 11 10 10 10 2 8 3 2 3 5 5 5 8 11 6 15 10 4 15 5 13 12 5 3 8 6 6 8 7 8 9 9 7 6
16 15 14 15 13 13 13 13 14 15 15 9 8 7 3 7 7 5 2 5 6 5 1 7 5 0 5 5 15 8 17 8 9 11 3 3 0 5 7 7 8 7 9 9 7
16 16 14 14 14 14 14 14 13 14 14 12 7 4 4 14 9 15 6 8 5 11 7 13 1 7 9 3 9 10 8 8 7 10 5 2 3 3 7 8 10 7 7 8 8
15 15 13 12 14 14 15 14 14 14 11 11 5 3 5 14 14 12 10 4 7 5 5 10 5 2 4 9 3 9 5 10 3 10 7 1 5 10 8 7 7 7 7 8 8
14 14 13 12 14 14 13 15 17 11 11 7 4 6 6 7 6 4 7 7 6 5 7 8 2 4 4 4 2 5 7 15 5 1 6 6 7 18 10 8 7 5 6 5 7
13 13 12 12 13 12 15 17 10 7 4 6 6 4 6 4 3 7 5 5 3 8 4 3 3 2 5 5 11 11 8 12 5 6 5 7 8 11 11 7 9 9 9 8 6
11 11 11 10 10 12 12 6 4 1 5 6 5 4 7 3 11 3 5 4 3 2 3 2 2 6 9 9 7 10 16 8 7 9 5 3 10 15 7 6 9 8 8 8 8
10 10 9 9 9 9 8 2 4 2 5 11 10 6 8 4 2 2 0 3 4 3 7 4 6 6 8 12 10 11 11 8 5 11 4 9 7 13 13 7 8 9 9 8 6
10 8 6 7 8 3 6 6 3 3 1 1 4 3 3 5 1 2 4 2 2 4 7 3 3 6 8 10 9 10 13 9 5 8 2 7 2 14 18 7 6 7 8 7 8
10 6 5 4 2 3 2 2 2 1 3 2 2 1 3 4 0 1 3 3 1 6 4 3 2 7 10 9 7 3 11 17 14 7 3 6 3 16 17 9 8 8 8 8 8
8 7 5 6 1 2 5 3 3 1 2 1 1 3 3 1 2 3 3 3 4 6 5 2 3 8 15 7 9 4 18 19 19 10 3 9 1 4 13 11 12 11 10 9 8
10 7 6 8 7 4 3 6 1 3 3 1 2 3 3 2 3 5 4 6 6 8 8 4 3 4 3 6 11 8 16 8 5 5 2 5 5 5 4 15 6 9 9 10 8
8 11 13 10 4 6 7 2 2 2 3 4 2 2 2 1 2 4 3 2 3 4 5 5 4 1 5 1 7 17 7 3 3 3 3 2 4 6 4 5 6 7 6 3 2
11 14 10 5 9 8 4 1 4 5 4 4 3 1 3 5 3 2 2 5 6 4 3 4 4 8 8 5 3 3 4 4 5 4 3 1 5 3 1 6 8 8 7 8 8
17 11 7 6 11 6 2 1 5 4 2 4 6 2 2 3 0 4 2 2 2 4 4 3 4 6 2 4 2 3 4 3 5 2 4 2 3 3 3 5 9 9 10 8 8
13 10 8 9 10 3 1 1 2 1 1 4 1 2 3 4 2 2 2 4 3 3 0 3 5 6 4 3 7 5 1 3 3 3 3 3 4 3 5 7 8 8 8 7 7
7 4 10 10 6 1 2 3 2 4 2 2 3 3 3 2 2 3 2 2 2 2 4 2 3 3 2 6 3 4 3 2 3 3 3 3 3 5 7 8 10 8 6 6 5
6 3 14 14 2 2 2 5 3 4 2 2 1 5 6 8 3 2 3 2 3 2 2 2 4 3 0 4 3 1 1 3 2 3 2 3 3 4 8 8 9 8 8 4 2
5 3 10 6 3 3 3 3 2 3 3 2 3 1 3 5 4 4 4 1 4 4 1 1 2 3 5 5 3 0 4 4 3 2 2 4 4 3 5 6 4 7 7 5 5
3 4 2 2 2 3 5 5 4 1 1 2 1 2 0 1 3 3 4 1 3 4 3 2 2 4 5 4 4 5 6 5 5 3 2 4 4 4 6 4 6 7 5 4 5
3 4 5 5 5 5 2 8 7 4 2 1 1 2 1 3 4 4 4 3 2 1 3 3 3 3 4 5 2 1 4 7 6 5 5 3 3 1 4 6 4 2 3 5 6
4 4 2 3 4 8 5 6 9 3 2 2 3 6 7 5 2 6 7 3 3 2 0 2 1 3 3 2 4 2 4 3 5 4 5 3 5 3 3 4 6 7 7 7 7
4 2 4 3 5 5 4 4 7 7 3 4 3 5 6 2 2 2 2 4 5 7 4 3 4 2 2 1 0 4 6 5 2 2 3 5 1 4 5 6 6 7 6 6 7

GFSSW_925_spd_072.txt.gz
Wind_Speed
12 14 14 14 10 10 11 12 13 10 9 9 9 10 12 13 15 13 6 8 4 9 13 16 13 8 13 4 5 2 7 11 10 8 6 2 5 3 2 5 3 1 3 13 33
12 12 13 15 12 11 11 11 12 11 10 10 9 10 12 14 16 11 11 8 8 8 11 8 6 6 4 5 4 7 8 8 9 4 5 3 1 4 5 4 3 2 7 24 27
13 14 14 15 14 13 12 12 13 13 11 10 10 10 12 15 4 5 3 3 3 5 11 7 10 10 6 9 5 7 9 4 6 6 1 2 5 3 10 3 5 10 17 16 13
14 15 15 14 13 13 13 12 13 13 12 11 9 9 13 4 5 3 4 1 2 4 3 3 4 5 8 14 8 7 12 10 3 4 4 2 7 1 2 4 8 10 11 14 11
14 15 13 13 13 13 13 12 12 12 11 13 7 5 6 1 7 8 5 2 4 5 3 4 8 11 5 8 10 16 7 13 8 4 4 2 4 6 4 4 6 7 9 9 8
15 14 14 15 13 14 13 12 12 11 12 11 5 3 1 5 4 8 7 2 1 6 3 1 3 12 10 8 18 7 15 10 8 7 5 2 4 4 5 3 8 7 7 8 9
15 14 14 15 14 14 13 13 12 11 11 10 7 3 3 12 4 7 9 7 8 9 5 3 2 7 7 4 2 11 10 8 7 9 6 3 5 4 6 4 8 8 6 6 8
16 13 13 14 13 15 13 13 13 11 11 8 3 2 6 12 12 12 11 9 6 10 6 8 9 9 6 8 4 11 3 10 7 14 3 6 12 4 0 5 5 6 6 5 4
13 13 13 12 12 14 12 14 15 11 8 6 2 4 6 8 4 6 7 8 10 5 5 11 6 6 6 4 5 6 6 12 5 8 7 14 5 8 3 2 4 4 4 4 4
15 13 11 12 11 11 13 15 9 4 3 3 3 3 5 1 2 6 5 4 1 6 2 2 1 2 2 5 6 11 5 14 2 6 3 14 5 12 6 5 8 7 6 5 4
16 12 8 11 10 8 11 3 3 0 3 6 5 3 3 3 6 3 1 6 4 2 4 2 1 2 7 5 4 4 4 9 5 4 5 4 6 2 7 8 8 8 7 7 7
12 11 9 7 8 6 8 2 2 1 3 8 10 7 8 2 3 2 2 3 3 4 5 1 5 8 7 7 2 3 8 2 9 8 4 6 3 6 11 11 6 8 9 9 6
15 13 10 5 5 6 7 7 2 1 2 3 4 5 1 4 3 2 1 3 4 6 8 4 2 9 14 12 6 5 13 9 6 10 4 7 1 4 9 15 11 7 8 7 10
13 12 7 6 3 5 3 6 4 2 4 2 2 1 4 2 3 1 0 0 4 6 4 5 2 11 14 8 10 6 13 16 10 1 3 3 3 6 7 10 9 10 8 9 9
15 12 10 12 6 4 4 5 5 2 4 3 3 2 3 3 2 1 1 2 3 3 3 2 1 13 14 8 15 4 16 15 13 5 0 3 3 4 5 10 13 10 9 9 9
15 13 11 10 6 6 5 6 3 5 3 1 2 1 3 4 3 6 6 3 5 7 3 3 2 3 2 4 2 4 10 14 5 3 2 7 3 4 3 15 12 8 8 9 8
17 15 16 14 4 11 9 3 4 4 3 4 1 2 3 1 4 4 2 3 1 2 2 3 2 3 1 2 2 7 10 3 3 2 4 10 4 5 5 7 11 11 8 6 2
17 22 15 9 11 13 6 2 4 5 4 3 3 4 1 5 3 3 2 4 2 2 2 3 6 3 2 1 7 4 3 4 4 4 4 3 3 3 2 7 7 9 8 7 8
26 19 12 12 13 11 2 2 7 6 6 6 2 3 4 3 1 3 3 2 3 3 3 3 6 5 2 1 3 2 3 1 6 2 4 2 1 3 6 7 8 9 8 7 7
21 12 9 15 15 5 2 4 3 3 5 5 3 5 4 2 2 4 1 4 4 3 1 0 4 3 5 4 7 8 2 3 4 3 3 2 1 3 4 6 5 7 8 5 5
11 4 12 18 11 1 3 5 4 3 3 3 3 3 2 2 1 0 3 3 4 4 3 2 4 5 4 5 2 4 2 5 4 3 4 4 5 4 8 8 9 7 6 6 6
7 3 19 19 3 2 3 4 4 5 2 1 3 4 6 6 4 2 3 1 4 1 3 3 4 4 1 5 3 1 1 3 4 3 2 2 4 5 9 7 7 7 6 3 2
3 3 12 6 3 3 4 3 2 4 4 3 3 3 5 7 3 2 2 3 6 4 2 1 1 3 5 4 3 1 1 3 4 3 2 3 3 6 7 6 5 7 5 5 6
3 4 2 2 0 2 3 4 4 1 2 2 2 1 3 2 3 4 2 2 5 3 3 3 3 4 6 5 3 3 4 3 4 3 3 3 4 2 2 6 5 6 6 6 7
1 3 5 7 7 5 4 7 4 3 1 1 2 1 4 3 3 4 4 2 4 5 4 3 3 2 2 2 3 2 3 5 5 4 4 3 7 2 4 6 5 5 5 6 6
4 4 2 3 5 10 3 7 6 3 3 2 4 1 3 4 2 5 5 2 3 0 1 3 1 2 5 3 5 0 1 3 4 3 3 4 2 4 4 6 6 6 5 5 5
3 3 5 6 5 6 4 6 8 8 4 4 6 6 7 2 1 3 5 3 5 5 2 3 3 3 2 5 5 5 3 3 1 1 4 6 4 5 4 5 4 5 5 5 6

GFSSW_925_spd_075.txt.gz
Wind_Speed
16 13 13 12 13 12 11 11 11 14 11 11 9 8 10 12 14 15 6 9 4 7 11 9 10 7 10 4 4 1 6 14 16 8 13 6 9 3 3 5 2 0 6 8 31
16 16 15 13 13 13 14 13 10 12 14 11 11 9 10 12 16 12 16 9 9 7 10 5 3 4 4 3 3 7 9 21 9 13 6 3 4 7 4 3 1 4 1 29 30
18 17 17 15 11 12 13 12 12 12 13 15 12 9 8 12 4 5 2 6 5 6 6 4 3 3 3 3 5 5 15 15 15 20 5 1 1 4 5 5 6 12 16 23 31
20 17 16 17 13 12 13 13 11 13 11 12 14 7 7 2 5 2 5 4 2 5 1 2 3 3 5 8 11 11 17 12 15 8 5 4 2 3 3 5 7 10 26 24 21
23 17 15 15 14 13 13 12 12 12 10 11 13 4 2 1 8 7 6 5 4 4 4 2 5 4 8 2 9 20 11 11 11 9 5 3 2 4 4 5 5 12 14 20 18
25 18 15 15 16 13 11 13 11 12 7 11 10 4 2 4 4 4 11 7 5 7 6 4 2 3 5 11 10 5 16 16 10 12 9 8 2 2 6 5 6 13 14 12 16
31 18 15 16 15 14 10 11 9 9 9 10 9 4 2 11 1 7 10 11 11 11 5 6 6 1 3 5 14 18 9 15 12 7 7 8 13 3 3 7 3 5 8 11 8
25 17 14 15 12 10 13 8 8 10 11 10 7 4 5 7 7 11 12 10 15 13 11 9 5 4 5 4 7 17 11 12 11 8 6 7 12 6 5 6 4 5 4 5 9
24 16 17 14 12 11 12 9 10 9 7 5 3 4 7 5 5 7 9 8 10 7 4 11 4 4 5 4 9 13 5 11 5 11 2 5 3 4 4 6 7 3 2 1 3
26 18 14 12 11 10 8 9 4 1 2 2 2 2 5 3 4 5 6 3 2 3 3 4 3 1 4 5 6 10 6 6 9 5 9 10 7 7 4 8 7 4 6 4 1
25 20 12 10 10 7 7 2 4 2 4 7 5 3 2 2 6 3 4 5 2 1 4 4 5 6 9 6 4 11 5 11 4 5 8 11 8 9 5 9 9 6 6 5 4
26 20 12 10 9 5 5 3 3 2 4 10 8 7 8 1 2 2 4 3 3 4 3 2 7 7 9 9 2 13 7 6 8 6 7 4 1 1 5 11 8 7 7 7 5
25 18 10 9 7 7 9 9 6 2 1 3 5 4 2 6 2 4 3 4 3 5 9 7 4 6 6 5 5 2 6 4 7 8 7 4 2 3 8 9 12 8 7 6 9
24 16 14 10 6 7 4 11 5 3 4 3 2 3 3 2 3 3 2 2 4 8 5 7 7 10 10 4 5 4 4 10 16 11 2 9 2 8 10 9 9 14 8 8 8
27 20 16 18 5 6 5 9 9 3 2 3 3 4 4 4 2 1 2 2 7 6 3 3 4 11 12 4 4 3 13 14 16 7 1 5 3 3 10 12 13 16 8 9 8
25 19 17 14 10 6 14 12 7 5 4 1 3 2 2 3 3 6 5 4 5 4 6 5 2 5 2 5 7 1 14 12 6 3 1 4 1 3 4 6 8 8 7 7 8
22 19 21 13 6 18 16 5 4 4 1 3 3 2 1 2 2 4 1 2 1 1 2 3 2 4 9 6 8 8 5 3 3 2 3 5 1 6 4 3 5 9 10 8 5
25 20 20 17 12 21 13 3 4 4 4 2 3 2 1 3 3 2 1 4 2 2 3 2 3 1 0 2 6 6 4 3 3 3 3 0 4 3 4 7 4 6 8 6 6
23 20 12 14 21 21 3 2 6 6 5 6 2 3 4 2 2 4 1 3 4 3 3 2 4 3 3 1 2 1 4 2 6 3 4 3 4 2 7 7 9 9 9 8 7
21 12 9 21 21 8 2 2 4 3 6 4 3 3 3 2 2 3 3 2 4 2 2 3 6 4 4 2 6 4 3 3 4 3 2 1 3 1 2 4 6 8 8 7 7
14 4 13 22 16 1 3 6 4 4 5 5 4 4 2 3 2 0 2 1 3 6 5 3 4 4 3 5 3 5 3 5 4 3 3 3 3 2 6 5 7 7 6 7 7
5 3 22 25 3 3 3 5 5 4 3 1 4 3 5 5 1 2 1 2 6 2 3 2 4 5 1 2 2 1 1 3 4 3 2 2 3 7 4 5 6 6 7 6 7
3 2 15 7 3 3 3 3 2 3 3 3 3 3 3 5 3 2 2 2 6 4 2 1 2 3 6 5 3 2 2 3 5 3 1 3 3 5 8 7 5 7 6 7 8
2 4 3 2 2 3 3 3 4 2 3 2 2 3 4 2 0 3 1 3 5 4 5 3 3 4 5 3 1 2 3 3 4 3 2 2 3 4 3 6 4 6 6 6 7
2 2 2 5 6 3 1 6 4 4 2 0 2 3 3 3 3 3 2 1 3 6 4 3 4 4 4 4 2 1 2 4 3 3 4 2 6 1 5 6 3 4 6 7 8
3 2 2 3 5 5 0 5 4 3 1 1 5 2 2 4 3 5 4 2 0 4 3 4 1 3 4 5 4 2 1 4 3 3 2 5 3 4 4 6 5 6 6 6 6
5 2 3 4 3 5 3 5 6 8 3 2 6 5 5 2 1 2 4 5 3 3 2 3 3 3 2 4 2 3 2 3 4 4 5 5 6 5 3 6 5 5 5 3 4

GFSSW_925_spd_078.txt.gz
Wind_Speed
20 17 16 15 14 13 15 15 14 10 12 11 11 10 10 12 16 20 7 6 2 3 6 6 5 5 5 3 4 1 4 11 19 13 16 4 11 16 1 3 2 1 3 13 32
26 20 17 15 17 15 13 15 15 12 12 11 13 11 10 11 18 15 18 9 7 5 5 1 1 1 2 3 3 4 5 17 10 11 5 8 5 7 4 4 4 4 2 28 33
30 27 20 15 16 14 13 14 15 12 12 11 12 15 6 9 5 5 4 7 3 3 5 4 0 3 3 3 5 5 12 13 10 9 5 4 4 2 7 9 8 11 13 21 27
30 33 24 18 15 12 13 13 14 11 12 10 10 13 3 2 5 2 2 4 3 3 1 1 2 3 4 6 5 7 11 11 7 8 8 14 7 3 5 12 5 9 23 20 21
27 28 28 20 14 13 13 11 13 12 11 7 10 11 2 1 8 7 5 5 5 4 4 3 3 3 4 3 2 9 13 7 12 19 12 18 15 5 7 8 11 8 16 25 23
30 31 28 20 13 14 10 11 10 10 10 5 7 4 3 3 4 5 10 9 6 7 5 6 4 4 4 5 9 3 9 18 13 14 14 15 14 3 6 6 10 13 17 19 20
31 32 24 18 16 12 10 9 10 8 9 7 4 4 3 10 3 2 10 12 10 10 4 7 6 4 2 5 8 9 8 9 15 15 7 12 13 15 5 6 6 5 16 17 16
35 34 23 17 15 9 8 8 8 7 11 8 3 4 5 8 6 10 12 13 17 18 15 8 9 4 3 5 4 6 7 8 11 14 9 12 17 19 5 3 6 9 7 15 15
31 34 22 17 11 8 8 9 8 7 9 5 4 3 7 4 5 7 13 8 6 9 8 7 4 4 5 7 5 3 7 15 7 17 8 10 7 8 3 8 8 4 6 7 5
31 27 21 19 11 9 6 4 8 4 5 5 4 1 5 3 3 3 3 4 1 1 2 4 4 3 3 4 5 6 7 7 14 13 18 11 11 1 4 9 5 4 3 3 7
38 26 18 17 10 8 6 6 2 1 7 7 6 2 2 2 5 3 5 6 1 2 4 4 5 8 8 11 12 9 16 4 3 7 12 10 4 9 5 1 6 7 8 6 4
36 39 18 15 11 10 9 3 5 1 3 9 3 5 8 3 3 3 9 4 3 4 3 2 9 10 8 8 8 15 10 3 6 4 5 3 3 6 4 1 1 5 7 9 7
32 34 17 13 11 11 14 10 4 5 1 0 4 4 3 7 3 4 7 3 4 3 5 7 6 10 10 3 10 2 10 6 7 9 9 5 3 12 1 0 4 9 8 7 9
29 30 16 15 9 10 6 14 7 6 3 2 3 3 3 3 4 6 5 4 1 4 5 8 6 8 9 3 2 5 4 9 15 4 3 4 1 7 6 5 7 15 13 9 8
36 33 18 21 9 8 3 17 11 1 3 3 3 3 3 4 2 3 2 3 6 3 3 2 3 6 7 2 2 2 10 11 9 7 4 2 3 4 5 5 10 13 16 10 8
42 35 26 18 7 7 15 16 6 3 4 3 4 3 1 5 4 3 3 4 3 4 3 5 8 3 3 2 3 11 12 8 7 3 3 2 3 2 3 8 12 12 11 8 8
29 30 22 14 5 17 18 5 1 4 2 3 4 3 4 1 2 4 2 3 2 2 2 4 5 2 4 5 4 2 3 3 2 2 2 1 1 6 4 2 6 14 15 9 6
35 28 25 19 11 24 12 2 2 4 5 3 3 3 1 1 2 1 3 3 2 2 1 2 2 1 1 2 3 4 3 3 4 3 2 3 3 3 3 5 2 1 8 6 5
16 18 19 22 18 25 3 1 5 6 6 7 4 3 3 2 1 4 0 3 2 2 1 1 3 4 9 6 5 4 3 3 6 3 3 2 4 3 7 12 12 9 11 9 7
14 12 9 19 26 14 2 3 2 2 5 3 3 1 4 2 1 3 4 2 3 2 4 4 4 4 3 1 3 3 6 3 2 4 3 3 3 2 5 7 7 9 9 8 8
11 4 14 21 19 2 2 4 3 4 4 5 4 3 2 3 2 1 3 3 4 5 2 1 3 3 4 6 4 4 3 5 4 2 3 3 1 2 3 3 7 7 7 8 8
2 3 20 27 4 2 2 4 4 3 2 3 4 4 4 4 1 3 3 2 7 2 2 3 4 4 1 3 3 2 3 4 4 2 2 3 2 6 4 6 5 7 7 6 7
2 1 12 5 3 2 3 2 5 4 4 3 3 3 2 4 2 1 1 3 7 6 3 3 3 3 6 5 3 4 3 4 4 3 1 4 3 4 5 6 4 8 7 6 6
2 3 2 2 2 3 2 3 4 3 3 4 3 5 3 3 3 2 3 5 6 6 9 4 3 3 5 4 2 3 2 1 3 3 3 3 5 3 3 6 5 6 6 6 7
2 2 1 4 4 1 3 4 4 3 3 4 3 3 4 3 2 2 2 5 4 7 4 3 4 4 5 5 3 1 1 3 2 4 4 5 6 7 7 7 5 5 5 6 6
2 2 2 2 3 4 4 4 4 3 3 2 5 3 3 4 0 4 3 2 1 5 4 4 1 2 5 6 6 3 4 2 3 2 3 5 1 1 4 6 5 4 5 6 6
2 2 2 3 3 4 3 1 4 6 4 4 4 5 6 1 3 3 3 4 3 1 2 3 3 3 3 5 4 4 2 2 1 0 2 3 4 6 4 5 4 4 6 6 6

GFSSW_925_spd_081.txt.gz
Wind_Speed
22 24 22 20 18 16 14 11 11 13 10 9 12 13 10 10 13 16 6 5 1 1 3 4 2 2 2 1 3 1 4 10 11 15 19 6 15 11 9 11 3 3 11 8 25
21 22 26 25 22 15 15 12 10 11 11 10 10 13 13 8 13 11 10 8 6 5 1 1 1 1 1 1 3 5 5 11 5 13 8 7 6 4 6 19 15 6 5 26 30
24 17 22 31 23 15 15 10 11 10 8 12 9 8 11 7 3 4 8 4 5 2 3 4 3 3 2 2 3 4 13 10 14 8 6 4 3 5 6 11 15 10 12 20 24
24 25 24 22 25 16 13 12 11 11 7 9 8 6 5 3 3 1 2 3 4 1 3 4 3 2 2 4 3 8 13 8 10 10 8 9 11 8 4 11 24 11 9 20 18
26 26 26 24 25 19 14 10 9 10 8 6 6 5 4 1 7 4 4 4 5 0 2 2 2 1 3 2 3 11 17 11 8 9 13 15 16 16 15 8 12 6 7 20 17
27 26 26 25 22 19 15 9 7 8 5 5 5 2 3 5 3 2 6 7 7 5 3 4 3 3 3 4 6 4 10 15 14 17 12 15 17 7 11 2 7 10 12 20 22
26 28 26 23 23 17 10 5 4 6 4 3 2 4 4 10 3 2 4 10 9 7 4 7 6 4 1 6 3 10 15 13 14 11 14 11 15 17 16 3 6 11 15 20 20
28 27 31 28 20 17 10 7 4 6 5 5 2 4 5 6 3 9 9 11 12 11 13 6 10 5 4 3 5 4 5 8 11 13 11 8 20 16 7 7 3 6 10 14 19
27 29 29 25 18 17 11 7 4 5 5 4 5 3 6 3 4 4 12 10 7 7 6 6 3 4 3 6 7 8 9 15 13 14 11 16 12 9 8 8 2 6 7 3 15
29 32 28 31 20 15 11 5 4 4 5 6 6 2 5 4 4 3 4 6 2 3 2 2 3 3 3 6 5 7 11 11 14 9 19 15 13 5 4 6 5 4 6 2 3
29 31 32 16 20 17 16 12 5 3 6 6 6 3 1 2 2 2 5 6 2 2 5 5 5 8 14 12 16 7 7 13 13 10 15 20 10 10 3 2 4 4 4 4 6
28 28 32 10 16 16 15 3 4 6 5 16 3 4 8 1 1 3 10 3 3 4 3 4 12 15 11 16 16 19 18 13 10 15 15 15 13 2 3 9 7 9 1 3 4
27 26 31 23 16 15 13 10 6 7 3 4 5 4 4 8 4 6 8 4 5 5 7 8 5 1 14 11 11 9 15 10 3 13 6 7 1 1 6 3 10 7 5 1 3
26 23 30 18 9 8 5 16 6 4 2 4 4 4 4 3 3 4 12 5 4 6 5 7 2 9 10 9 7 4 11 20 15 5 4 2 3 2 3 11 12 10 6 3 6
25 25 29 28 9 8 4 15 12 2 1 3 3 5 4 3 5 6 6 4 10 3 2 3 2 4 4 5 7 2 5 9 9 8 7 5 3 2 2 8 12 13 11 6 6
28 24 16 7 14 10 22 21 8 4 5 5 4 5 4 4 4 6 5 1 3 3 4 7 4 5 3 4 2 5 13 7 4 3 4 2 2 2 1 6 8 9 12 6 3
29 29 14 16 3 23 24 7 4 2 2 5 4 5 4 4 3 5 4 5 3 2 2 2 2 1 3 1 2 1 3 2 3 3 3 2 3 3 7 8 6 9 8 7 4
35 47 25 20 18 29 15 2 3 3 4 2 4 4 4 2 3 3 3 2 5 4 2 1 4 3 3 3 1 5 2 2 4 3 3 3 3 4 5 7 2 2 6 10 7
29 6 15 23 31 28 4 2 4 4 5 6 4 3 3 1 2 2 0 3 4 0 1 2 3 1 2 1 1 1 3 2 5 2 3 1 2 2 8 12 13 12 12 11 10
15 10 14 29 31 15 1 2 1 3 4 2 4 1 4 3 1 3 3 1 1 4 1 2 4 3 1 3 8 6 1 2 3 3 3 3 2 1 7 9 11 14 13 12 10
7 4 17 22 20 3 1 2 2 4 1 2 3 4 2 3 2 3 4 1 2 4 3 2 3 2 1 3 1 3 2 3 3 2 4 3 3 1 2 4 7 9 9 8 9
3 3 18 24 3 1 2 2 3 1 2 3 5 4 3 2 3 2 2 1 6 2 2 2 4 3 1 2 2 2 1 0 3 3 4 3 1 4 4 5 4 8 7 7 9
2 3 11 2 2 2 2 3 2 2 0 2 3 3 2 3 3 3 3 3 6 4 1 2 4 2 6 5 0 3 3 3 4 3 2 3 1 4 5 6 4 7 7 8 9
2 3 3 2 2 2 2 3 3 4 4 6 4 3 3 4 5 2 3 2 5 4 6 3 3 3 4 3 2 3 4 4 4 3 2 1 4 3 4 6 4 5 6 7 8
3 3 2 3 1 3 2 3 3 3 3 6 4 3 4 3 2 2 1 4 2 7 4 4 4 3 4 4 2 2 2 3 4 2 3 2 4 5 6 7 6 5 5 6 8
2 3 2 2 3 2 4 2 4 3 5 3 6 2 3 5 2 2 2 3 1 6 4 4 1 2 5 6 5 4 4 4 3 2 3 5 1 2 3 5 5 5 6 7 6
3 3 3 3 2 2 1 4 3 5 4 4 4 5 7 2 1 3 5 5 3 2 2 3 3 3 2 4 3 4 2 2 2 2 3 3 1 3 3 6 5 5 5 4 3

GFSSW_925_spd_084.txt.gz
Wind_Speed
21 20 20 23 20 20 17 13 11 9 9 9 8 9 10 10 11 13 13 4 3 5 2 1 2 1 3 7 7 6 8 13 18 19 16 17 20 19 14 20 19 13 14 15 12
21 22 20 18 19 25 19 12 12 8 7 7 6 8 7 9 8 15 9 6 6 4 1 1 2 3 4 7 6 10 12 16 15 14 14 12 15 16 12 19 22 21 13 8 18
21 21 22 22 22 19 19 15 14 6 5 6 5 5 5 3 5 0 5 5 6 7 5 3 2 3 7 5 11 10 18 15 12 8 11 12 15 18 16 15 17 21 23 11 18
22 23 24 24 22 22 21 15 10 6 4 4 4 2 0 1 1 2 2 6 8 7 7 6 3 4 5 9 10 13 17 18 18 13 14 15 10 15 16 18 12 15 16 10 13
25 24 25 26 23 21 21 17 10 7 5 6 4 2 2 3 5 4 3 4 6 4 4 2 3 4 7 5 7 16 18 17 17 14 15 16 19 19 18 18 14 12 10 13 12
23 25 23 21 25 23 22 16 11 7 7 6 5 2 4 7 3 2 4 7 6 4 4 2 1 2 7 8 9 8 13 13 14 18 17 16 18 18 21 19 14 9 12 21 19
25 24 24 27 28 13 21 17 11 8 7 8 6 4 5 7 3 2 3 8 8 4 2 3 3 4 2 7 9 11 17 18 18 16 12 16 22 27 23 18 14 13 10 19 21
24 26 27 27 29 30 22 17 11 8 8 7 6 4 4 4 4 7 8 8 6 5 4 6 7 8 10 6 10 11 12 9 14 15 15 13 24 23 20 20 18 18 11 11 15
26 26 27 25 36 8 18 16 10 8 6 8 6 5 3 2 2 7 10 8 8 4 4 3 5 8 5 8 9 9 13 17 16 14 15 18 21 21 17 16 20 13 8 9 9
28 27 28 27 28 22 19 16 8 11 9 9 6 4 4 2 5 4 6 8 4 4 3 6 5 6 6 7 10 10 15 15 20 11 18 17 22 15 9 15 15 11 6 5 7
25 26 27 29 8 26 25 20 5 3 9 4 8 4 5 4 4 5 6 8 5 3 5 5 6 11 15 16 17 18 17 18 18 18 16 22 20 20 2 3 9 8 4 2 3
22 23 25 27 15 23 23 3 3 4 3 10 2 7 1 1 4 6 10 7 6 8 7 5 11 17 14 15 15 18 20 22 19 15 15 17 20 15 10 5 5 7 8 3 2
18 21 22 25 9 15 10 6 8 5 2 4 12 4 2 10 4 9 11 5 7 7 9 11 7 5 11 16 17 18 18 19 14 3 14 12 18 11 11 8 7 7 8 7 2
17 18 17 22 5 9 4 12 7 6 1 6 6 4 6 4 4 6 14 5 5 6 8 9 12 12 13 15 11 13 17 14 13 12 6 13 8 15 12 14 13 11 7 10 9
17 14 12 10 4 4 2 17 8 1 4 8 5 8 6 5 4 8 9 4 9 5 2 3 6 8 9 6 7 6 11 15 10 10 11 7 1 6 2 4 7 9 10 10 15
17 15 10 8 6 9 16 20 5 3 4 5 5 6 5 6 4 5 5 2 3 1 4 10 12 6 5 13 7 2 11 8 7 8 3 2 3 5 1 5 6 5 17 15 8
16 16 9 4 2 19 28 8 4 4 3 7 5 6 7 6 5 6 5 4 3 2 2 2 3 6 6 3 3 2 4 3 2 2 4 2 4 4 10 10 10 7 6 11 10
22 13 9 10 10 23 16 3 4 4 2 6 5 8 5 6 3 4 2 2 5 5 2 2 1 4 8 4 5 3 4 2 3 3 4 4 4 6 9 5 3 5 9 13 13
27 25 12 19 16 22 5 2 1 3 7 8 10 5 3 3 3 3 3 3 1 8 2 2 0 4 3 5 5 5 3 6 4 2 4 3 1 4 10 13 10 11 13 13 13
6 13 11 23 26 13 1 3 1 1 6 9 4 4 5 5 4 2 4 1 2 1 1 1 2 2 2 4 3 4 8 2 1 2 4 3 4 6 11 11 11 13 15 14 11
7 4 16 28 22 2 2 3 3 2 3 2 3 4 3 4 2 3 2 2 3 1 7 3 3 1 2 1 4 2 2 0 1 2 1 4 4 7 8 9 12 13 13 13 13
4 4 19 16 3 1 1 3 3 2 3 2 3 4 2 2 4 3 3 1 7 3 2 3 3 4 3 2 3 4 6 4 3 3 4 4 4 6 4 8 11 13 13 12 11
4 4 11 6 2 1 3 3 2 1 1 2 2 2 1 2 4 2 0 2 5 3 4 4 3 2 3 2 2 4 5 5 1 1 4 2 5 5 7 9 8 11 11 10 10
3 3 3 1 1 1 5 3 2 3 3 5 4 3 3 6 6 3 1 2 5 5 5 1 4 4 3 2 3 2 6 9 5 4 5 7 10 7 8 8 8 8 8 8 9
3 3 2 1 3 5 2 3 5 4 3 5 4 3 2 4 3 3 1 1 1 5 2 2 4 4 5 4 1 3 5 7 5 4 5 5 6 11 8 8 8 7 6 6 8
3 4 3 3 3 2 3 2 4 2 6 4 5 5 4 5 4 3 2 1 1 2 2 2 4 2 2 5 4 5 7 4 6 4 7 6 8 4 7 7 6 5 4 6 7
2 2 3 3 2 1 3 4 3 1 4 5 3 6 11 5 4 5 6 6 4 2 2 2 3 1 2 2 1 3 6 6 3 3 2 2 4 7 7 8 7 6 4 3 3

GFSSW_925_spd_087.txt.gz
Wind_Speed
19 20 17 17 15 14 22 18 16 13 9 9 9 8 9 8 8 9 11 2 1 4 2 5 6 4 6 11 13 7 11 16 20 20 15 16 19 18 18 21 20 21 23 16 15
17 17 18 18 17 18 16 22 15 12 8 7 8 6 6 6 8 9 2 6 6 2 5 6 7 5 8 9 8 13 12 21 17 16 15 17 15 17 21 20 19 17 18 18 11
22 21 19 21 20 19 17 17 15 15 8 7 5 6 6 4 9 5 4 5 7 4 3 4 5 6 9 8 12 13 19 18 16 14 12 13 16 17 17 21 16 17 22 21 14
22 21 22 21 24 22 21 20 19 18 10 9 7 5 2 5 2 6 6 9 8 4 2 2 5 7 7 10 12 19 18 17 19 20 16 14 16 21 21 18 17 4 8 14 18
24 23 22 20 22 22 24 24 22 17 11 10 8 5 3 5 4 7 7 7 7 3 2 4 7 8 11 7 10 15 16 19 18 18 18 18 19 22 23 20 20 16 10 13 13
23 22 22 24 25 22 21 23 23 15 13 12 10 7 7 7 5 5 6 7 5 5 3 4 4 5 10 13 14 12 15 15 16 17 19 20 22 21 25 20 21 21 19 15 19
22 25 23 24 25 24 19 16 20 14 12 13 10 9 8 3 6 5 5 7 6 6 4 3 6 6 7 10 10 13 17 19 21 21 22 17 23 27 24 21 22 22 16 16 14
23 24 27 26 27 27 26 20 20 14 13 13 9 6 4 4 6 6 6 6 6 6 3 5 6 10 11 10 14 16 18 18 17 19 21 20 22 20 21 23 24 23 19 16 14
21 23 26 28 28 36 18 21 18 15 13 10 6 8 2 4 6 7 7 6 8 6 6 6 6 10 5 7 8 9 14 18 18 16 16 17 21 22 22 19 22 21 19 15 12
23 22 24 27 38 6 25 22 16 14 10 6 5 5 5 5 8 8 8 6 5 5 6 5 4 7 8 8 10 12 11 15 17 14 14 16 19 23 21 22 17 20 17 12 13
23 22 21 23 25 10 27 24 7 4 7 5 5 1 10 8 10 6 8 9 6 6 7 1 5 12 13 16 17 16 18 22 21 18 17 18 21 19 18 9 15 16 10 8 10
21 21 20 21 22 12 15 2 4 5 4 11 3 3 6 5 5 7 9 7 8 10 3 4 14 17 16 15 16 18 21 24 23 22 15 21 22 18 17 9 9 8 10 9 6
20 18 18 19 16 20 4 2 8 5 3 8 10 5 4 7 4 12 11 5 6 9 9 13 11 12 12 14 16 19 20 22 20 16 16 15 18 17 16 10 11 10 7 6 2
14 15 13 16 1 4 1 1 5 1 3 7 8 5 6 6 4 5 12 4 4 8 10 12 15 14 13 15 14 18 18 24 19 10 7 17 8 16 13 15 15 14 11 10 5
12 12 12 7 8 2 4 9 6 3 5 8 6 8 7 6 7 5 6 2 7 5 3 5 7 8 15 8 3 9 5 9 14 13 9 18 3 15 17 14 13 14 12 10 4
9 6 9 6 5 4 4 9 5 2 3 5 6 9 8 7 4 5 2 4 3 4 5 12 18 13 6 15 15 5 4 2 7 6 5 3 1 9 6 2 2 5 10 11 9
10 8 12 4 1 4 13 5 2 4 7 7 7 8 10 7 6 6 4 4 4 4 3 3 6 5 7 8 9 6 3 4 5 4 3 2 2 9 9 5 2 2 16 13 12
9 8 6 6 4 10 12 1 5 4 4 3 8 12 4 7 3 4 3 4 9 7 4 4 1 6 8 6 8 12 8 5 2 2 3 4 3 4 9 5 9 3 19 15 14
15 7 3 3 6 16 2 4 4 2 5 8 12 7 3 3 1 6 1 3 2 6 3 4 2 7 7 9 7 7 4 9 3 1 2 2 5 15 16 14 19 12 18 15 13
18 15 7 9 13 8 1 4 2 3 6 13 4 1 6 7 4 4 3 1 1 1 1 2 4 7 5 6 4 4 7 4 2 3 5 6 12 8 12 11 15 14 13 14 12
12 5 8 16 17 2 2 4 2 1 2 4 4 5 5 5 3 2 2 4 6 4 8 6 6 4 4 4 5 1 7 4 3 2 3 4 6 9 10 11 13 14 13 11 11
7 5 10 16 2 1 3 3 6 7 3 5 5 4 5 2 3 3 2 2 3 2 3 1 5 2 1 2 3 3 9 9 5 7 4 10 6 7 11 12 10 13 13 10 9
4 3 6 5 3 1 3 5 4 3 4 2 3 3 1 2 2 3 0 3 5 2 4 4 3 4 1 5 4 5 11 11 1 3 9 3 6 8 10 11 11 12 11 11 10
4 3 1 2 1 3 5 3 1 3 8 6 5 5 2 5 2 5 3 1 4 5 2 4 4 5 6 3 4 7 12 12 8 5 10 9 14 11 11 10 10 10 10 11 10
2 3 1 4 4 5 4 2 8 5 4 3 3 3 2 3 6 4 2 1 1 3 2 4 3 3 4 4 3 5 7 10 11 9 6 6 8 9 9 10 10 9 8 8 8
2 3 2 7 4 5 3 3 6 5 6 7 8 5 3 7 6 3 1 2 3 3 4 3 2 4 2 5 3 4 7 5 8 8 7 7 7 3 6 7 6 6 6 5 5
3 1 1 2 4 3 3 3 5 3 5 6 5 6 8 6 7 7 7 5 4 5 4 3 2 2 2 4 3 3 8 7 4 5 6 2 6 3 4 4 3 3 3 5 5

GFSSW_925_spd_090.txt.gz
Wind_Speed
21 20 18 18 17 17 18 16 20 17 13 9 9 8 7 9 8 9 12 1 4 1 4 4 4 6 5 4 10 9 5 10 15 17 13 12 13 14 12 10 7 9 6 9 15
22 21 20 19 20 20 19 18 19 16 15 10 8 8 6 7 8 13 3 4 5 3 5 3 5 5 4 4 4 8 8 12 15 14 11 13 12 10 11 10 8 9 9 19 11
22 23 20 19 19 20 20 19 19 19 18 12 8 7 4 2 9 4 3 5 9 5 3 1 3 3 7 8 6 6 15 14 17 15 15 15 13 12 12 12 14 6 9 9 11
20 20 21 21 20 20 19 18 22 20 18 12 9 6 2 4 2 7 8 11 9 6 4 3 3 3 4 5 9 13 15 15 15 15 16 15 13 15 13 13 17 18 14 5 9
21 20 22 19 23 22 23 20 21 23 19 13 12 9 4 5 5 13 11 11 8 6 3 1 3 4 6 6 9 12 12 14 14 15 14 15 14 15 19 12 19 19 14 14 10
21 21 21 23 24 25 25 22 15 12 18 15 13 10 3 6 9 10 8 10 8 5 4 2 3 6 5 8 10 11 15 15 14 14 14 16 16 13 16 12 19 20 17 14 13
19 21 22 23 25 27 26 26 25 20 20 17 13 9 6 1 8 8 7 9 6 4 4 4 3 2 6 8 6 10 12 13 14 16 18 17 22 22 11 15 20 20 19 14 16
18 20 21 23 26 28 33 26 10 24 20 16 12 6 3 7 9 8 6 7 7 4 2 5 3 4 4 7 10 13 13 14 14 16 17 16 24 17 15 19 22 21 19 17 11
18 19 21 23 27 37 13 9 22 24 20 16 8 5 4 6 6 8 9 9 8 5 2 2 1 3 3 4 4 5 10 14 14 12 10 12 19 17 18 18 19 19 19 17 12
19 18 19 21 23 27 26 27 23 19 15 9 1 5 6 5 8 10 8 5 7 5 3 3 1 1 1 2 4 7 9 14 15 11 11 11 15 16 16 16 15 19 17 15 15
18 17 17 18 19 20 23 23 7 5 7 4 10 5 10 12 12 7 10 8 4 4 4 4 0 5 7 13 17 13 17 19 17 17 17 13 16 15 15 15 16 10 9 13 12
17 16 13 15 17 14 10 3 5 4 3 1 4 8 11 12 6 8 9 6 5 6 6 2 8 12 11 15 16 18 18 21 21 18 16 16 20 16 17 11 9 10 8 5 4
13 13 11 12 15 7 6 7 5 3 3 6 4 2 4 3 4 10 9 4 5 7 7 8 8 15 14 14 15 17 17 20 19 16 15 18 18 16 14 15 7 7 5 4 4
11 9 9 13 3 6 3 3 5 6 3 4 6 4 4 4 1 9 12 3 4 4 5 6 10 12 14 14 10 18 10 19 18 10 6 5 4 9 14 13 10 8 7 7 7
7 5 6 8 3 3 3 5 1 5 5 7 9 7 7 4 9 4 6 3 6 2 3 3 6 6 10 8 5 8 11 12 8 9 10 10 2 6 10 9 9 12 10 8 8
7 4 8 5 1 1 3 6 2 2 4 4 5 6 8 8 5 4 2 5 2 2 6 13 10 8 7 11 14 7 3 2 3 1 3 8 6 3 5 8 7 11 10 12 9
2 1 4 6 2 4 10 1 1 2 6 7 6 9 9 6 8 6 4 3 1 3 2 5 7 7 12 10 10 3 3 3 2 2 2 10 7 4 7 7 2 6 15 13 10
5 7 8 6 3 8 4 1 1 2 6 7 7 9 5 10 5 4 4 2 6 3 4 4 1 5 5 2 7 12 7 2 4 2 3 5 3 3 12 3 2 13 16 14 10
20 15 7 5 3 8 1 2 4 4 3 9 12 6 2 5 1 4 3 2 2 9 2 3 3 2 4 4 4 6 4 4 4 1 1 3 2 9 11 16 12 14 14 12 10
19 14 9 4 8 5 3 4 3 3 6 13 5 5 6 5 2 5 1 1 2 3 3 4 4 2 3 3 5 4 5 3 2 6 4 4 4 4 9 13 13 14 12 11 10
12 3 7 14 10 4 3 3 3 5 2 2 4 3 6 4 4 2 3 5 5 4 7 6 3 3 4 3 4 2 5 4 2 1 1 3 3 5 8 8 11 12 11 11 10
5 4 5 5 3 0 2 2 6 7 1 2 6 7 3 3 2 3 2 2 2 2 4 6 2 4 2 3 4 4 6 6 3 7 3 5 4 11 9 9 11 12 10 9 9
3 3 2 4 1 1 3 4 3 4 6 4 3 5 5 2 2 5 2 2 2 3 4 6 4 4 3 2 3 3 11 10 3 3 6 4 2 9 9 10 10 10 8 8 7
3 3 1 2 3 2 4 1 2 1 7 7 4 1 3 2 2 3 3 2 0 2 2 1 3 4 1 2 4 5 9 9 6 4 4 5 9 7 7 9 9 8 7 7 7
2 2 1 2 3 5 2 2 9 4 3 2 1 5 5 2 4 3 1 4 6 5 3 1 2 3 3 3 3 5 7 9 9 8 6 9 7 6 8 8 8 8 7 7 7
1 3 3 2 3 5 2 8 8 5 8 7 6 8 8 7 6 6 7 5 4 5 2 1 0 3 2 4 2 4 9 7 7 8 7 10 7 7 8 8 7 7 7 7 7
2 3 2 2 4 3 3 4 6 4 4 6 9 4 6 4 8 6 2 1 2 4 5 2 1 3 2 5 4 2 5 6 2 7 4 5 4 7 6 6 6 7 7 7 6

GFSSW_925_spd_093.txt.gz
Wind_Speed
15 16 17 15 15 13 15 17 15 18 18 14 11 10 6 5 4 4 3 3 6 2 2 3 1 4 1 2 2 3 1 3 4 5 6 14 10 6 7 5 7 5 2 5 11
17 17 15 15 14 14 14 16 18 13 20 16 12 10 7 3 2 7 5 5 4 2 1 5 2 6 0 2 1 3 2 4 5 7 7 13 8 12 8 10 6 15 20 19 21
16 16 15 15 14 14 14 14 14 13 17 20 13 10 6 3 1 2 5 3 6 5 3 3 5 3 1 1 4 3 4 5 12 15 12 10 14 8 8 5 5 8 14 18 11
16 16 15 14 15 15 15 15 15 16 16 16 14 9 6 5 2 5 9 11 7 5 1 2 2 1 2 2 3 5 6 7 5 10 11 9 9 10 6 9 8 8 9 9 13
16 17 16 16 16 16 16 15 18 16 14 19 15 12 7 2 2 14 12 10 10 5 3 3 4 2 2 4 5 3 3 7 7 8 11 12 11 11 15 9 12 11 12 10 13
17 15 17 17 19 19 19 18 16 16 8 22 17 15 3 2 10 15 12 11 8 3 5 3 4 1 2 3 1 5 9 8 6 8 7 12 16 5 6 11 15 14 13 10 12
15 16 15 18 19 20 21 22 19 17 12 23 18 12 3 3 13 12 12 9 7 2 4 8 7 4 4 5 5 7 6 9 11 9 9 10 21 18 8 11 18 20 18 13 12
11 13 15 17 21 24 34 22 20 15 25 22 18 7 4 13 13 12 10 6 8 4 10 7 4 2 1 3 6 4 3 3 4 8 10 8 21 11 15 15 19 19 18 17 12
12 11 13 16 20 24 16 4 16 32 27 24 13 4 5 12 10 10 10 8 8 8 3 1 1 3 2 2 4 3 4 5 7 4 7 11 17 14 17 15 17 15 13 18 14
14 13 12 14 17 23 3 25 27 29 21 12 6 5 6 6 10 10 11 15 5 7 2 1 2 2 4 4 3 4 5 5 11 4 15 17 18 10 7 10 15 18 11 14 16
13 12 11 12 14 14 11 22 7 6 4 1 9 8 11 14 14 9 7 6 4 2 1 2 4 5 8 7 7 6 9 14 19 15 14 18 21 17 11 12 12 12 12 12 16
9 9 8 10 14 5 7 3 5 5 6 12 6 14 20 14 9 6 9 3 4 3 2 1 7 10 9 8 8 9 10 20 20 15 13 14 21 17 13 16 13 14 10 11 10
10 8 7 10 9 12 11 5 5 6 5 5 5 9 5 2 8 7 6 3 3 4 6 8 8 13 8 9 8 9 9 17 18 21 14 16 16 14 13 16 15 14 8 5 8
8 6 10 7 6 6 4 7 2 6 4 3 2 1 3 1 4 10 12 0 3 3 6 7 7 5 6 9 4 14 8 15 12 6 3 5 5 6 4 9 8 9 5 7 7
6 6 12 10 4 4 4 2 4 3 5 2 5 5 5 1 9 3 4 1 2 2 3 6 4 2 5 8 6 10 10 11 12 5 4 3 3 7 2 5 8 9 8 8 6
3 5 7 7 10 8 9 3 5 4 4 4 4 3 4 3 3 4 3 4 2 3 3 11 4 4 7 7 13 10 5 3 3 1 3 3 5 5 0 5 4 3 5 9 9
1 4 10 7 3 5 6 2 2 5 1 5 4 5 4 5 5 4 3 2 2 1 3 2 5 3 3 5 5 7 5 2 2 2 4 7 4 5 13 15 8 9 11 11 10
9 11 12 10 6 10 3 1 6 5 4 4 5 6 3 5 2 5 4 2 5 4 3 3 7 2 5 3 3 7 3 3 4 1 2 6 2 1 9 12 12 14 14 12 12
18 12 9 11 4 2 2 5 3 2 3 6 10 3 1 6 3 4 5 2 4 8 1 3 4 4 4 3 2 2 3 3 4 2 1 3 1 4 13 15 12 11 12 11 10
15 10 10 10 5 6 3 4 2 5 1 6 4 5 4 4 2 3 3 2 2 3 4 3 4 6 4 1 8 6 4 3 2 5 3 2 2 4 5 7 9 10 10 11 9
4 3 7 8 7 3 5 3 3 6 2 3 4 5 5 4 4 2 3 2 4 3 6 2 1 6 3 4 3 3 5 3 3 3 1 3 2 4 4 5 8 10 11 10 8
3 3 4 12 3 2 2 3 4 4 3 3 5 4 3 4 3 2 3 3 8 3 4 7 3 4 7 2 2 2 6 3 3 6 3 3 3 5 5 6 8 9 8 7 9
2 1 3 5 3 3 2 5 1 5 5 4 2 3 2 2 3 2 3 4 5 4 3 1 3 4 8 6 6 4 11 7 1 2 4 4 2 2 3 6 6 7 7 7 3
3 3 4 3 1 1 2 3 4 2 4 3 2 2 2 1 1 3 2 4 5 4 5 2 0 4 4 5 4 6 8 9 3 4 2 3 4 3 3 4 5 4 4 4 5
2 1 3 3 3 3 4 1 4 4 6 6 5 6 2 2 0 1 2 1 3 3 2 4 0 1 4 5 2 3 5 8 8 4 4 6 5 6 8 7 5 7 6 6 6
2 2 2 3 4 2 4 4 4 3 4 5 5 6 9 5 4 4 5 4 1 5 2 2 2 2 3 4 3 1 6 5 6 7 6 6 4 5 6 7 6 7 7 7 6
4 3 3 5 6 3 3 2 4 1 2 4 2 2 6 3 4 6 5 7 3 1 2 1 2 3 4 4 4 3 1 3 2 4 1 2 2 5 6 7 6 7 7 6 6

GFSSW_925_spd_096.txt.gz
Wind_Speed
16 17 15 15 12 11 11 11 10 13 7 15 13 11 6 3 1 1 3 0 2 0 2 3 4 5 4 3 3 2 2 2 3 3 4 6 8 1 4 4 6 4 3 10 28
13 13 15 14 12 11 11 12 9 8 11 19 15 12 8 4 3 2 1 3 4 1 4 5 3 3 3 1 1 3 3 7 4 2 3 8 4 10 6 7 3 3 9 23 26
14 12 12 14 12 11 11 12 11 9 8 9 18 14 8 6 3 2 5 5 4 4 4 3 4 3 2 2 1 3 4 3 4 6 6 6 13 2 6 5 5 5 9 10 12
14 13 11 12 12 13 12 13 12 11 12 8 18 15 11 5 3 5 7 9 7 6 4 3 3 3 2 2 2 2 4 4 4 4 6 6 6 7 8 12 6 8 6 3 8
14 15 11 10 13 15 14 14 15 11 9 7 18 16 11 1 2 11 12 10 9 6 6 2 4 2 2 2 4 2 3 6 7 7 8 8 9 8 18 12 10 8 7 6 6
13 13 13 11 13 14 15 16 14 13 9 12 22 19 3 3 10 14 13 13 8 6 5 7 2 2 2 1 1 4 4 6 6 7 6 8 17 3 5 12 14 13 12 7 6
14 14 12 12 14 16 17 17 18 17 11 23 21 16 2 5 17 14 13 12 6 5 5 8 7 5 2 3 5 5 6 7 8 4 6 6 18 16 14 12 20 18 15 13 7
15 10 12 12 15 18 23 24 22 23 14 23 23 6 4 13 15 13 10 8 11 12 12 7 7 4 2 2 6 4 2 4 4 1 7 8 13 12 15 12 18 16 18 14 10
14 11 9 13 15 19 22 10 13 19 18 26 17 7 6 14 10 12 12 9 11 7 5 4 4 2 3 3 4 4 3 5 7 4 5 6 7 6 10 14 16 17 16 15 12
11 9 10 11 13 17 23 16 20 25 26 17 13 9 1 7 10 10 10 13 5 4 3 3 4 3 3 4 3 3 5 5 8 5 8 15 22 18 10 10 11 12 13 13 14
7 7 6 10 12 11 17 4 6 6 5 3 8 5 8 14 14 6 11 10 6 2 1 2 4 3 6 7 5 4 6 10 18 15 16 19 22 21 17 14 15 10 11 11 14
8 7 7 10 10 10 9 3 5 6 13 11 7 13 19 11 7 3 8 3 3 3 3 3 4 7 6 6 7 8 9 18 15 13 3 13 22 19 18 15 17 14 10 10 12
7 7 9 6 11 15 15 10 5 7 5 8 4 8 4 7 5 4 5 3 3 3 3 5 5 5 6 6 8 4 5 11 13 16 13 15 13 6 10 12 18 13 9 7 10
6 9 11 7 7 7 6 5 4 3 5 4 5 3 2 2 5 4 7 1 3 2 3 5 4 3 4 7 5 6 8 15 14 9 4 3 7 7 7 6 4 7 8 10 4
8 10 9 7 6 4 3 7 2 2 5 2 2 2 2 4 8 2 3 2 2 1 3 5 3 3 5 6 7 9 1 11 10 8 3 2 2 7 7 8 9 6 6 3 6
8 8 6 7 8 7 10 4 2 4 5 3 3 1 3 4 2 3 2 5 0 2 3 7 1 3 5 4 11 9 8 6 1 2 2 3 4 5 4 9 11 6 5 7 8
9 12 10 7 3 3 3 3 4 5 4 2 4 4 3 5 2 3 2 2 2 1 3 4 4 4 4 4 3 3 4 4 4 1 4 4 1 6 11 13 6 4 9 8 8
14 14 15 15 7 5 5 4 8 3 4 4 4 5 1 3 2 4 3 2 3 2 3 3 7 4 5 5 4 4 2 2 4 3 3 2 3 3 9 11 12 13 11 11 10
10 9 14 16 8 8 4 7 3 2 5 6 5 3 1 3 2 4 4 2 5 8 1 3 5 2 5 4 3 2 3 3 3 4 1 2 3 4 10 12 11 10 11 10 10
10 5 10 13 15 4 4 9 3 2 3 4 4 4 4 4 5 5 5 3 3 6 4 2 5 2 3 1 5 5 3 2 1 4 3 1 3 4 10 9 7 10 9 9 9
5 3 7 16 10 4 5 4 2 2 1 5 1 3 4 5 6 4 5 1 3 2 5 1 1 7 5 2 3 2 4 3 3 3 2 3 2 5 4 4 5 9 10 8 9
4 3 11 18 4 2 3 3 3 3 3 3 1 3 5 6 5 4 2 2 8 3 4 6 2 4 6 5 4 3 4 2 2 5 2 2 3 5 4 3 3 8 8 10 10
2 2 5 5 4 4 3 1 2 4 3 3 4 2 2 2 3 2 0 1 8 4 3 3 2 4 8 5 5 4 6 5 3 3 3 2 2 4 2 5 7 9 9 5 4
3 3 4 4 1 2 4 3 4 3 3 3 3 3 4 4 2 1 1 3 5 4 4 3 1 5 4 6 4 6 9 8 2 3 1 1 2 4 1 3 3 4 4 4 4
3 1 3 2 4 3 0 3 3 5 5 8 5 6 1 2 2 3 4 5 3 2 3 3 3 2 6 8 5 3 5 8 6 2 3 5 4 5 5 5 4 4 4 5 4
2 2 2 1 3 2 4 5 4 3 4 3 3 4 5 3 3 3 1 2 2 4 1 1 3 1 4 3 4 4 5 5 3 4 4 3 2 3 2 3 4 6 5 4 4
2 2 3 3 4 2 3 3 3 0 2 3 3 1 2 2 4 5 5 5 5 2 2 0 2 2 4 4 4 4 3 2 1 0 1 3 4 4 3 6 6 6 5 4 3

GFSSW_925_spd_099.txt.gz
Wind_Speed
11 10 9 9 12 9 9 10 13 11 12 14 16 11 6 4 3 1 2 3 3 3 3 4 7 7 7 3 3 2 3 1 3 4 3 3 6 4 5 2 5 2 2 6 23
13 11 8 9 9 11 10 9 10 13 11 8 16 13 7 3 3 2 3 4 5 4 6 6 4 5 4 3 3 4 3 5 3 2 3 6 1 5 3 5 3 4 9 21 26
14 12 9 7 8 11 10 9 10 11 12 10 8 15 9 6 3 1 3 4 3 5 7 5 4 3 4 3 2 2 4 3 3 5 3 4 6 3 4 5 4 5 8 12 16
14 11 8 5 6 7 9 13 11 11 13 11 11 16 9 5 4 3 5 6 6 5 6 6 4 3 3 2 4 1 3 1 4 6 6 6 4 7 9 5 6 6 7 7 10
14 13 10 7 5 7 8 10 11 12 11 11 20 17 11 3 2 9 11 10 9 10 9 4 5 2 4 2 4 0 4 6 7 8 8 8 8 9 12 8 10 7 7 9 10
11 9 10 7 6 9 10 10 12 12 12 11 19 22 2 4 10 12 11 11 9 9 11 9 4 3 4 2 2 3 5 8 6 9 6 11 14 3 6 7 13 11 11 9 10
11 10 7 7 8 11 12 13 13 12 12 9 22 14 5 4 13 11 13 10 9 12 7 9 6 6 1 2 4 4 6 7 7 4 5 5 12 12 16 7 13 14 12 11 11
8 11 6 7 9 13 16 17 18 19 17 11 22 3 4 5 14 13 12 17 16 17 16 10 9 5 3 1 6 4 2 4 4 1 4 7 19 7 10 9 14 15 15 13 10
8 7 7 7 10 14 20 18 13 18 17 16 19 4 7 10 8 10 11 9 14 11 11 9 6 3 5 4 4 5 3 4 8 4 4 7 12 9 6 9 16 18 13 12 8
7 5 6 9 11 12 18 16 21 20 19 16 13 7 1 4 8 9 10 10 5 6 4 6 5 3 4 4 3 3 4 5 9 5 4 10 23 23 22 15 18 14 13 10 9
8 8 8 9 12 9 8 21 8 5 7 5 6 7 12 13 10 6 10 7 3 4 3 4 5 2 5 5 3 1 5 12 15 13 8 15 21 21 21 15 18 17 14 14 12
7 9 9 6 13 12 13 3 4 4 15 15 16 14 13 9 6 4 9 3 2 2 4 5 1 6 2 4 5 6 10 14 13 11 7 14 20 19 21 14 17 17 14 13 7
10 11 8 7 7 17 13 10 8 7 7 5 5 9 2 9 4 3 3 0 0 0 2 3 4 3 4 4 6 7 9 9 11 9 11 10 9 5 5 5 7 10 8 6 9
9 12 8 8 9 9 4 5 5 10 5 5 6 5 4 2 4 2 1 1 1 2 2 4 3 3 4 5 7 6 10 15 12 10 5 5 6 6 8 9 8 8 6 8 9
10 11 15 4 7 5 6 4 8 5 6 1 3 4 1 3 7 2 4 2 2 2 5 5 2 2 4 6 6 10 4 6 11 8 5 1 1 7 6 11 19 9 5 2 3
16 12 9 14 16 8 8 2 5 5 5 3 2 1 3 3 2 2 3 5 0 3 4 7 1 4 6 4 9 10 6 3 0 1 2 3 2 5 9 11 14 12 8 9 8
18 18 18 11 4 5 2 0 4 5 3 1 3 2 2 3 2 0 2 0 1 4 4 5 4 3 3 4 3 4 4 4 5 4 3 2 1 7 10 12 8 8 8 9 9
15 14 18 17 12 6 2 3 9 3 4 3 3 4 3 2 2 3 1 1 1 3 3 2 6 5 6 6 3 3 1 1 5 3 3 1 4 2 8 10 8 8 8 8 8
9 8 13 15 21 8 4 7 3 1 4 6 5 3 2 0 1 1 2 2 5 7 3 2 5 4 5 4 2 1 2 1 4 4 3 2 3 2 11 12 9 10 9 9 9
5 3 8 22 17 2 4 7 3 1 5 3 3 3 4 2 2 2 4 2 1 7 3 2 5 2 4 1 3 2 3 2 0 4 4 1 2 5 11 10 10 9 9 10 10
5 4 14 23 8 6 5 4 4 1 2 4 3 4 3 5 4 3 3 3 4 3 6 1 1 6 3 2 2 3 3 2 2 2 2 4 2 3 6 5 7 8 9 10 11
4 4 21 18 5 3 3 3 3 2 3 2 2 3 6 5 5 4 4 4 8 6 5 5 1 5 6 3 1 3 3 2 2 3 1 2 3 4 3 3 4 7 7 7 8
3 2 9 8 4 4 4 3 1 5 4 1 1 0 2 5 3 4 3 2 7 5 4 3 1 4 8 5 4 2 2 3 4 1 0 0 2 3 3 6 6 6 4 4 4
3 3 4 4 1 2 5 5 5 4 2 3 3 2 1 2 2 2 1 2 7 5 4 3 2 5 5 6 2 6 8 4 2 2 2 3 2 2 1 4 4 4 3 3 4
3 1 2 3 4 4 3 3 3 6 4 6 2 3 2 1 1 1 2 4 3 2 2 3 3 4 7 9 4 6 7 7 3 2 2 4 4 4 5 7 5 5 4 4 4
4 4 1 1 2 4 4 5 6 5 5 5 3 4 4 1 1 2 1 0 1 2 3 1 3 2 5 3 3 6 8 6 5 2 1 3 5 3 3 4 4 6 6 5 5
2 2 4 3 3 2 2 3 4 2 1 1 3 3 4 3 3 4 4 4 4 3 1 0 1 3 5 4 6 7 6 5 3 4 4 5 6 4 4 6 7 7 6 6 5

GFSSW_925_spd_102.txt.gz
Wind_Speed
11 9 8 6 5 5 8 9 11 10 9 12 19 13 8 4 1 3 2 4 3 2 4 8 10 9 8 4 4 3 4 2 2 4 4 3 6 5 4 4 4 4 2 4 21
12 12 8 5 8 8 5 9 10 11 11 11 9 15 10 4 5 4 5 5 5 4 7 8 4 7 4 3 3 4 3 7 3 2 3 5 2 3 4 4 3 7 5 19 27
11 12 9 5 5 5 12 11 8 10 11 12 9 18 9 5 3 2 3 4 4 6 8 8 7 4 4 3 3 2 4 4 2 3 3 4 5 3 3 4 6 5 7 12 18
11 12 9 5 5 3 3 7 9 8 8 11 7 17 10 2 4 2 3 5 5 6 7 6 5 4 4 4 3 1 1 3 3 4 5 6 5 5 6 5 9 9 6 5 10
12 9 3 7 8 3 3 6 9 6 6 9 3 14 10 2 4 7 9 8 9 9 10 4 5 3 4 3 1 3 4 6 7 9 6 6 9 7 6 15 11 11 9 8 9
11 9 4 5 5 2 4 8 8 6 7 6 8 18 8 6 3 9 8 9 9 12 11 8 3 3 5 3 3 2 4 6 7 6 5 8 7 3 5 7 9 11 14 10 12
8 9 5 3 2 4 6 9 9 4 3 2 13 10 10 4 11 9 11 14 12 12 6 8 6 6 2 3 3 2 5 7 3 2 4 5 5 10 10 7 12 11 11 11 11
7 8 4 3 4 5 8 10 12 6 4 2 18 10 5 10 12 16 18 21 17 17 15 9 12 6 4 1 5 4 4 5 4 6 4 6 11 2 5 6 16 12 13 11 11
8 6 5 4 7 9 12 14 16 7 6 7 14 4 6 10 9 11 10 13 14 14 13 9 6 4 5 4 4 7 2 2 8 2 2 1 15 2 5 8 13 16 17 18 19
8 9 8 8 9 5 15 16 19 17 14 21 13 9 1 4 7 8 12 8 6 5 5 7 5 4 4 5 3 2 3 4 6 5 1 7 25 23 22 14 19 21 21 18 16
11 10 9 9 9 9 10 27 9 5 13 5 9 6 9 11 10 7 5 8 4 6 3 4 5 1 2 3 3 2 1 6 8 10 8 11 20 22 22 16 18 19 19 17 16
11 10 9 14 12 14 7 3 5 5 15 18 19 15 12 6 6 5 3 4 3 3 2 5 1 3 3 3 2 2 2 7 8 7 5 12 20 20 19 11 10 12 17 12 8
14 11 5 6 10 23 18 10 7 6 6 10 10 6 3 8 4 2 2 1 2 2 1 3 2 4 3 2 2 3 4 5 7 8 12 14 12 4 6 6 7 9 7 5 8
14 10 5 6 12 8 6 7 6 5 5 6 4 3 4 3 5 3 2 1 2 2 2 3 1 1 2 4 5 4 7 10 9 7 4 2 6 5 6 9 14 14 12 9 8
13 15 10 8 11 4 3 4 10 4 6 5 4 3 4 4 6 3 3 2 2 2 5 4 2 2 3 4 5 8 2 5 9 10 5 3 3 6 8 14 15 19 13 12 8
16 11 13 13 12 7 1 9 3 5 5 2 3 2 3 4 2 3 0 3 1 2 1 6 1 3 4 2 7 6 5 5 2 2 2 4 4 4 7 12 14 8 8 11 10
16 18 17 12 3 6 8 4 5 5 1 2 3 2 1 2 1 2 1 1 2 5 5 5 3 2 2 4 2 1 4 4 5 3 4 4 2 5 10 11 13 11 6 7 6
11 13 14 13 11 5 3 4 9 2 3 3 3 4 3 2 1 1 2 2 2 3 3 4 6 4 5 5 2 3 2 1 4 3 5 0 3 3 6 9 10 8 8 10 11
1 2 5 15 6 3 4 7 4 2 3 5 3 4 2 1 3 3 3 1 3 4 2 2 5 4 6 4 3 0 2 1 4 1 4 2 4 3 10 11 11 10 10 11 10
5 4 6 22 3 5 4 7 3 1 4 2 3 2 2 1 2 3 1 3 3 5 3 1 5 4 4 2 4 4 2 2 1 4 5 4 2 5 11 9 9 9 10 12 10
2 3 17 15 5 6 6 4 4 1 2 2 2 3 1 1 2 1 2 4 3 4 5 1 2 6 1 5 4 2 0 1 0 3 2 4 3 2 6 5 7 7 7 8 9
3 4 21 10 5 3 3 2 3 3 1 2 0 2 4 4 2 1 4 4 7 5 4 5 2 5 8 1 2 1 3 3 3 3 2 1 4 3 5 5 2 2 4 4 7
3 1 12 9 4 4 4 3 2 4 3 2 2 3 1 4 0 4 3 1 8 7 4 3 2 4 7 4 2 1 2 3 1 2 4 3 4 1 4 4 2 2 4 4 3
3 3 4 4 2 4 4 4 5 4 2 3 3 2 2 0 3 3 2 1 7 5 6 4 2 5 5 6 2 5 3 3 3 1 2 5 4 4 3 3 4 5 2 2 2
3 1 2 2 4 4 2 1 4 6 4 6 3 5 2 3 2 2 2 4 1 3 1 2 4 4 7 11 6 8 10 5 6 6 5 4 5 5 8 9 7 5 3 3 3
2 4 2 2 2 3 5 5 4 4 2 3 2 3 1 3 3 3 1 3 3 1 4 1 4 2 5 4 3 6 9 8 6 4 6 4 6 5 2 4 5 6 6 5 5
3 3 2 2 1 3 3 3 1 1 2 2 2 2 2 3 5 6 6 4 4 2 2 2 0 3 5 5 7 7 6 8 5 4 5 6 7 4 4 6 7 7 7 7 6

GFSSW_925_spd_105.txt.gz
Wind_Speed
9 14 9 6 7 1 4 8 9 9 5 5 4 19 14 7 5 8 3 4 4 2 4 7 9 10 10 4 4 1 3 1 3 5 2 1 5 1 1 3 3 3 3 7 18
11 13 12 8 7 5 2 5 10 9 10 7 5 19 15 10 10 9 7 5 4 4 6 7 4 7 4 3 3 3 3 5 1 2 2 4 1 3 3 2 4 9 10 13 19
9 9 8 5 5 4 3 3 4 6 10 8 4 18 14 16 6 3 4 4 3 6 8 8 9 5 4 4 4 1 3 3 1 1 3 3 4 2 1 5 10 7 6 10 14
9 8 5 4 6 4 4 3 3 5 5 6 7 20 14 4 4 0 3 5 5 7 6 5 5 4 4 4 2 3 3 1 2 0 3 3 3 4 7 14 10 11 10 7 11
10 7 2 3 7 6 4 3 5 2 3 2 19 22 14 6 5 5 9 7 9 9 8 3 4 4 5 4 3 3 1 4 4 7 7 4 8 6 16 16 14 14 13 13 13
9 8 2 2 1 7 2 3 3 3 3 3 18 21 10 11 3 8 8 9 10 14 11 7 3 3 6 3 3 0 3 5 4 5 4 4 4 1 7 7 9 9 12 12 14
7 8 4 2 1 4 2 1 1 3 8 10 19 24 15 8 7 10 14 16 13 15 8 7 7 5 3 3 2 1 5 5 3 4 4 4 2 8 12 8 11 12 13 15 15
7 7 4 3 1 5 5 4 4 4 7 3 12 18 6 14 17 19 19 17 16 17 17 11 13 7 4 3 5 4 4 5 1 5 1 3 5 4 5 6 14 16 16 16 18
9 7 6 5 4 6 7 7 10 8 8 17 6 9 8 9 10 11 10 13 15 15 14 10 7 4 4 4 3 6 1 2 7 1 2 3 11 4 11 17 19 17 17 17 21
14 11 11 9 8 10 7 18 16 18 19 17 9 10 3 3 4 10 9 8 6 3 5 7 5 3 3 4 2 1 1 3 5 3 3 10 22 15 15 14 17 17 17 17 19
14 12 13 10 9 17 30 33 7 6 11 5 8 12 7 7 5 5 5 7 4 6 4 4 6 3 2 3 4 4 1 3 5 6 4 9 16 21 16 12 13 13 15 18 19
14 10 9 13 11 11 15 5 5 6 18 20 22 17 11 4 5 5 4 3 5 4 1 5 3 2 5 4 3 2 2 5 9 7 5 11 20 17 9 5 7 12 15 17 18
15 8 13 12 13 22 27 10 7 5 7 8 7 7 2 6 4 3 3 1 3 4 4 3 3 5 1 1 1 2 3 3 6 7 9 9 8 4 2 2 5 9 7 11 11
17 7 5 6 14 14 13 6 4 2 5 7 6 5 4 3 5 3 3 1 4 3 2 2 1 2 2 3 5 3 8 7 6 6 4 5 6 5 4 10 9 13 9 13 14
13 16 18 8 10 3 6 5 10 2 6 6 4 2 3 5 5 4 4 4 3 2 5 2 2 2 3 5 6 3 4 6 8 6 4 1 4 5 4 9 16 15 12 9 12
20 18 13 19 17 7 6 11 3 6 6 3 3 2 4 5 2 2 3 4 2 3 3 4 1 3 4 2 5 4 3 2 2 2 2 4 2 4 4 9 15 14 13 12 8
15 18 15 11 2 8 12 2 5 6 1 2 2 1 3 3 4 2 3 4 3 4 5 4 2 2 2 2 2 2 3 3 4 2 4 4 2 7 5 11 13 12 13 12 12
9 14 12 11 4 4 3 5 11 2 4 1 2 4 4 0 3 2 2 2 3 2 2 2 3 5 5 4 2 1 1 2 4 3 5 2 4 3 3 9 12 10 10 10 11
6 5 6 14 2 2 5 7 2 2 3 4 2 3 4 2 3 1 4 3 4 6 4 3 4 2 4 3 2 1 1 0 3 1 3 2 4 2 5 10 8 9 10 12 10
2 3 6 9 5 4 5 7 3 1 4 2 2 1 3 2 1 2 1 3 2 3 1 0 4 2 1 2 2 4 2 2 0 3 4 4 3 5 12 8 6 5 5 8 9
2 3 11 4 5 6 4 3 3 3 1 2 3 2 1 2 3 1 2 2 1 2 1 2 2 5 2 4 5 1 2 1 1 2 2 4 3 2 5 5 3 3 3 4 6
2 4 13 7 5 2 3 2 1 1 1 1 2 2 4 3 1 0 1 3 4 4 1 1 2 5 7 1 2 0 3 4 2 3 3 2 5 1 2 3 1 0 1 0 5
3 0 7 2 4 2 1 2 1 3 3 3 3 3 2 2 3 1 1 2 6 5 3 2 1 5 6 4 1 3 3 3 3 2 5 3 4 3 3 4 2 3 5 5 3
3 3 4 4 1 5 3 2 2 2 2 1 1 3 3 3 1 3 2 1 6 5 5 5 3 6 5 6 2 5 5 4 4 2 2 6 6 5 5 7 7 8 6 4 4
3 1 0 1 3 4 2 2 1 2 1 3 3 4 1 1 2 2 1 3 2 3 2 4 4 5 7 14 8 14 15 8 8 7 5 3 5 6 9 10 10 6 5 5 5
3 3 3 2 4 2 2 3 4 3 4 1 4 2 4 4 5 4 3 4 4 1 4 1 4 2 6 6 5 7 11 12 14 8 9 8 12 10 3 5 6 8 6 6 6
3 2 2 1 2 2 2 2 4 1 3 2 4 2 3 7 8 8 7 4 5 6 5 5 2 2 5 4 9 6 5 7 5 5 6 7 8 4 4 7 8 8 8 8 7

GFSSW_925_spd_108.txt.gz
Wind_Speed
1 3 6 6 4 2 2 6 6 3 0 4 9 19 14 12 9 6 8 5 3 4 6 6 7 7 8 4 4 1 2 4 5 5 4 3 1 1 2 8 7 6 10 11 18
6 6 5 6 6 1 3 5 6 8 6 6 10 23 16 13 14 12 6 6 4 4 6 9 8 5 4 3 2 2 3 3 2 2 2 1 3 5 5 8 11 11 15 15 13
8 8 5 4 10 3 2 1 1 3 7 5 15 18 13 11 7 5 6 4 4 6 6 7 8 3 4 3 2 1 1 3 3 2 3 3 6 2 6 10 7 11 12 12 17
9 7 4 2 7 10 4 3 2 1 3 6 18 20 19 1 6 2 3 3 5 9 7 9 4 3 3 4 2 2 2 1 1 2 4 6 7 6 13 11 10 13 15 17 16
9 8 5 2 4 4 7 2 2 3 4 9 22 21 16 7 6 6 5 5 7 6 5 6 5 4 6 5 4 2 2 2 1 4 7 9 10 11 19 17 16 13 13 14 15
10 9 4 3 3 8 7 3 2 4 4 10 19 17 14 8 3 5 4 5 7 7 5 3 5 7 8 4 1 2 3 4 2 3 4 4 6 3 2 2 7 8 12 14 17
10 9 6 4 2 5 4 4 4 4 7 23 23 6 13 7 4 8 11 11 9 8 8 7 8 3 6 6 2 1 3 3 4 2 1 4 8 9 5 5 10 17 18 18 17
11 9 4 2 2 4 4 5 7 8 8 19 25 6 8 8 6 14 13 14 14 15 15 10 12 10 3 6 3 0 2 2 4 2 2 4 7 5 4 8 19 18 15 15 17
14 9 5 1 5 7 7 9 10 7 7 19 18 8 10 2 4 7 7 10 10 11 10 7 5 4 3 3 3 2 2 3 2 3 3 2 11 9 12 18 17 15 15 15 17
12 10 9 8 8 9 14 12 12 15 14 17 10 8 2 2 3 5 6 6 5 2 3 4 4 3 3 1 2 1 2 3 7 2 7 13 15 14 17 16 13 12 13 15 17
12 13 15 12 20 25 27 19 7 4 17 5 13 25 10 6 4 7 4 3 2 4 3 4 4 6 6 6 6 4 1 5 7 4 9 9 17 19 16 6 6 11 14 16 17
12 10 14 15 18 19 10 6 5 6 15 20 22 22 10 3 6 8 8 3 4 5 1 4 6 5 8 5 4 1 3 5 8 2 9 17 20 15 3 4 6 13 15 17 16
9 11 13 11 23 23 23 12 6 4 6 9 10 10 5 7 5 7 7 2 5 5 7 6 6 6 1 3 0 2 3 3 5 13 9 12 7 3 4 4 7 14 12 15 13
15 7 13 16 16 17 7 5 6 1 5 10 9 8 5 3 5 4 6 3 3 5 4 6 4 3 1 1 4 1 4 3 6 9 5 8 5 6 2 6 8 15 14 13 15
17 17 9 5 21 3 3 4 7 3 6 9 6 6 6 5 3 4 5 2 4 4 2 2 4 3 3 1 5 4 0 6 8 6 6 3 4 4 4 6 13 17 14 13 14
16 12 16 15 9 6 3 7 0 1 7 2 5 3 3 4 3 2 3 4 2 3 3 3 0 2 2 1 4 4 5 1 2 1 3 4 3 5 3 7 15 14 11 13 13
13 14 12 9 2 6 9 1 2 7 1 3 2 1 3 3 2 2 3 4 2 1 3 1 2 1 2 1 1 3 3 2 2 3 3 6 5 10 3 6 10 11 11 12 11
9 10 7 3 4 6 3 1 11 2 5 2 2 4 3 2 2 2 0 3 3 4 3 2 2 5 6 3 3 1 3 2 4 3 6 5 5 3 1 5 7 7 8 9 11
3 3 5 6 2 2 2 7 4 2 4 6 3 1 2 3 1 2 4 3 4 2 4 4 0 2 4 1 3 2 2 2 4 3 5 2 4 5 4 10 8 7 6 8 9
1 2 7 4 4 1 5 7 3 1 4 1 3 3 3 3 3 4 5 2 2 0 1 1 3 1 1 2 4 3 2 3 4 5 5 3 4 4 10 10 9 7 5 6 6
2 1 14 3 5 6 6 5 5 4 1 1 3 3 4 2 1 1 1 2 3 4 3 2 1 1 3 6 3 4 3 6 3 3 3 5 1 2 4 6 7 6 4 6 5
2 3 12 2 3 2 3 4 3 4 2 2 1 2 2 3 1 0 0 2 5 5 1 1 2 4 3 2 1 3 5 5 3 2 4 4 6 3 1 1 1 1 1 4 2
2 1 5 1 4 3 2 3 1 2 2 4 3 2 2 3 2 3 2 1 7 6 3 4 2 4 3 3 3 6 7 6 2 1 8 4 1 4 5 4 5 5 5 6 5
2 2 3 4 2 4 5 2 3 0 1 0 2 2 4 3 4 3 4 4 8 7 6 5 5 8 6 7 1 8 9 10 10 6 7 12 17 8 9 10 11 11 10 9 8
3 2 1 2 4 3 2 1 3 3 1 2 2 3 3 4 3 4 4 3 5 5 4 4 5 8 15 20 17 20 19 17 18 19 11 14 12 11 6 13 15 13 11 10 10
1 2 2 3 2 1 2 1 0 1 2 1 2 1 2 3 4 3 4 4 2 5 5 1 4 4 8 16 13 13 15 16 18 21 20 23 26 19 14 9 12 13 12 12 11
4 2 2 1 3 2 2 2 2 1 3 1 1 1 3 4 7 7 6 5 2 2 8 3 3 3 6 7 14 12 7 11 8 8 15 15 16 9 6 9 13 14 14 14 12

GFSSW_925_spd_111.txt.gz
Wind_Speed
5 6 3 8 6 5 5 6 7 4 3 6 5 20 14 10 9 3 5 5 2 4 7 7 8 8 7 4 3 2 3 4 3 3 6 3 2 2 2 9 8 7 8 11 15
6 2 1 7 8 5 6 5 6 8 4 5 9 19 15 13 10 10 4 4 2 6 6 10 10 10 4 3 2 3 3 3 5 6 5 3 3 4 5 8 9 10 10 8 9
8 4 3 8 10 8 9 2 3 4 7 1 16 22 15 9 9 7 6 4 2 4 6 6 9 6 6 4 2 2 3 3 3 4 3 2 6 2 7 7 2 8 11 12 14
9 9 9 9 11 10 5 2 1 1 2 6 16 21 19 1 7 5 3 2 2 5 7 10 8 6 7 6 3 4 1 1 2 2 2 4 7 7 12 14 12 13 12 12 12
11 11 9 9 10 9 9 2 1 3 3 12 18 22 10 7 6 6 3 3 2 3 7 6 9 5 7 6 5 3 4 1 0 3 7 8 9 11 15 13 9 7 7 10 12
12 7 7 7 6 9 8 2 1 2 3 22 21 19 8 9 9 6 2 4 4 3 5 3 3 3 7 5 2 3 1 1 2 2 4 6 7 4 1 1 4 6 11 13 15
6 7 9 10 11 13 8 3 3 2 6 25 19 22 13 6 9 6 6 7 7 6 6 7 5 1 6 5 2 2 2 4 4 2 3 6 11 10 10 4 9 14 13 13 11
11 10 7 8 12 9 5 3 4 7 19 21 25 28 6 7 8 7 9 11 12 14 12 10 9 7 3 6 4 3 3 5 7 3 3 3 9 6 1 8 16 17 14 12 11
13 11 8 4 3 4 4 5 6 6 16 23 23 18 4 8 5 6 6 10 10 9 9 6 4 3 3 3 3 6 5 5 7 3 1 7 10 10 10 14 16 15 12 10 10
15 15 10 4 4 8 9 10 15 11 24 27 18 9 4 2 4 6 6 4 5 5 4 2 2 2 2 3 2 4 4 3 4 5 6 13 18 16 15 14 13 9 9 11 12
12 16 14 13 15 20 17 14 6 5 13 7 12 18 10 5 0 6 4 2 2 2 2 1 3 4 5 4 3 2 2 5 6 5 10 9 15 18 14 7 4 6 11 14 15
14 15 16 23 26 17 11 6 4 7 15 21 18 14 6 3 7 8 4 1 3 3 4 3 4 5 5 3 2 3 4 5 6 1 10 13 21 17 2 2 3 7 13 15 17
10 12 16 17 13 18 19 12 7 3 6 8 8 8 4 5 6 9 7 1 4 6 2 2 8 4 0 2 3 1 3 5 5 14 12 10 9 4 7 5 3 7 12 13 14
10 14 19 18 13 9 8 4 3 3 4 9 5 7 6 3 5 7 6 4 2 5 6 6 3 0 0 1 1 1 1 5 8 10 4 10 5 6 2 4 5 11 14 10 13
13 9 2 3 22 5 4 3 8 3 5 8 5 2 4 5 2 6 7 2 6 5 2 3 4 2 1 1 2 4 4 8 8 5 7 5 3 3 2 7 6 14 11 10 11
10 10 20 11 6 5 3 5 3 1 6 3 4 3 5 9 5 1 1 3 0 4 5 4 1 2 3 0 4 4 5 3 3 2 3 1 3 5 3 7 11 12 8 10 11
9 7 4 5 1 5 5 3 2 7 3 4 5 5 8 6 5 4 5 7 3 3 4 1 2 2 2 4 5 5 4 2 2 2 2 4 2 10 9 4 8 10 8 8 9
5 2 1 1 6 7 5 1 10 2 5 3 3 7 5 5 5 5 3 5 6 3 2 1 3 5 6 3 5 4 4 2 3 4 6 3 5 1 1 2 4 5 4 6 9
3 2 3 7 3 3 3 6 4 4 5 6 3 5 4 4 3 1 5 3 3 4 1 1 1 2 3 2 4 3 2 3 3 4 4 5 6 12 5 5 6 5 5 7 8
1 2 6 6 5 5 4 7 4 3 6 3 3 2 3 2 2 3 1 1 3 1 2 2 0 3 3 3 4 3 1 2 3 4 5 5 9 5 3 6 5 5 5 4 6
3 2 7 5 4 5 4 6 6 4 2 2 2 4 3 3 1 2 2 2 1 2 2 3 1 3 2 7 6 4 3 4 3 4 4 6 3 4 4 2 2 2 1 3 4
3 1 8 3 2 3 5 4 2 4 3 1 1 3 2 1 2 1 1 0 4 3 1 2 3 4 6 3 2 6 10 9 5 5 7 8 8 6 4 3 4 2 3 4 4
2 2 4 3 4 4 4 4 1 3 3 3 2 2 1 2 2 2 2 2 4 3 3 2 2 4 2 3 4 6 10 13 11 6 13 9 5 5 5 6 7 8 7 7 7
2 2 3 3 3 8 7 3 4 2 1 1 0 2 3 3 3 1 2 2 3 3 4 1 3 7 8 11 10 10 8 11 14 10 13 17 22 14 11 8 9 12 11 11 10
3 3 3 1 2 3 1 3 5 4 3 3 3 6 3 2 2 3 2 3 5 6 4 3 6 8 16 19 18 20 20 19 20 20 17 22 22 19 13 10 12 13 13 13 13
2 1 2 2 0 2 2 3 4 2 3 3 4 1 3 4 2 3 3 4 4 7 8 5 4 8 10 18 15 17 18 19 20 22 24 25 28 22 20 17 14 12 14 15 14
3 1 3 3 1 3 1 4 6 4 4 3 3 4 6 7 4 6 8 9 7 8 10 7 4 4 7 9 16 16 14 18 14 13 15 17 21 16 13 8 11 11 13 14 14

GFSSW_925_spd_114.txt.gz
Wind_Speed
7 9 8 4 7 8 10 9 9 9 3 2 0 17 14 11 13 4 8 6 5 2 3 5 7 8 8 3 4 2 2 2 4 6 6 4 2 3 2 4 5 4 6 10 15
6 7 5 6 3 9 8 8 9 9 8 3 5 15 13 15 10 17 6 7 5 2 2 10 7 9 3 3 1 1 2 6 7 8 6 6 3 6 4 6 5 6 7 4 12
9 3 7 11 8 8 3 2 4 6 9 3 6 16 12 12 9 7 7 7 4 4 5 4 9 4 4 5 1 2 3 4 7 8 7 5 5 3 4 6 3 7 9 11 13
11 11 10 12 8 5 7 6 5 3 9 10 24 19 11 5 5 7 7 5 5 4 1 3 3 4 5 4 3 3 4 6 3 4 3 4 6 5 8 9 8 5 6 6 7
12 12 12 11 8 6 6 6 8 4 6 16 11 18 4 9 8 8 7 4 3 3 3 3 5 2 5 6 4 2 3 2 5 1 4 5 7 7 10 11 7 5 4 8 6
11 11 11 8 4 4 6 7 7 6 11 23 23 19 2 11 11 8 5 5 4 3 3 5 3 3 6 5 2 4 1 3 3 2 3 4 5 6 3 4 2 6 8 6 8
13 11 13 7 8 9 7 8 9 4 19 24 20 16 16 5 13 7 7 8 7 4 7 10 8 4 6 4 1 4 3 5 5 2 2 4 7 9 9 3 4 8 8 6 6
12 9 7 9 10 9 11 10 13 8 14 18 15 24 6 8 12 3 8 11 12 12 10 9 9 6 5 4 4 4 2 3 3 3 4 3 7 4 6 4 7 9 6 6 7
13 10 6 5 4 10 11 13 10 16 23 17 12 13 7 9 10 9 8 9 9 7 7 5 5 3 2 2 1 4 3 5 4 2 2 4 7 9 9 9 8 6 6 6 5
14 10 4 5 8 12 13 22 28 23 20 19 7 10 2 2 5 6 5 5 4 4 4 3 2 2 2 4 1 4 3 2 1 5 4 8 15 16 11 8 6 6 4 7 8
19 20 9 14 16 17 20 12 6 7 17 9 11 21 5 3 4 6 4 1 2 4 3 3 4 5 7 7 4 5 5 6 6 4 3 8 11 15 10 2 5 3 6 8 8
18 21 27 24 20 13 11 5 5 6 11 20 17 14 4 6 6 10 8 2 4 5 2 2 5 6 5 4 5 5 4 4 6 2 6 9 15 17 7 4 1 1 7 7 7
15 15 16 19 19 23 17 10 8 4 7 7 6 5 4 6 6 8 11 5 5 5 3 5 7 3 2 2 4 3 2 5 4 9 11 8 8 4 4 4 6 4 8 7 7
17 15 19 19 16 12 5 7 4 2 4 7 3 3 4 5 4 7 6 3 3 7 8 6 2 1 1 4 3 1 3 4 7 7 3 7 4 4 9 8 7 7 7 6 7
9 9 6 8 18 1 4 1 4 3 6 6 3 2 1 3 4 4 4 2 8 6 2 3 4 2 2 3 1 2 3 6 4 4 5 2 0 5 6 6 5 7 7 6 7
4 14 17 9 1 4 3 5 4 1 5 1 1 2 5 6 2 4 2 4 3 4 7 4 2 2 3 1 4 4 4 4 2 2 3 2 2 5 3 2 2 5 6 6 7
9 11 3 2 3 5 11 4 4 6 3 2 3 4 5 4 4 4 5 3 3 4 2 3 4 4 3 4 5 5 2 2 2 2 3 3 2 9 5 6 2 4 4 5 5
2 4 3 6 7 7 4 2 8 4 3 3 5 3 2 1 2 4 5 4 2 3 4 4 2 7 7 3 2 2 1 3 3 2 3 5 5 5 6 7 6 2 3 5 7
4 1 3 6 4 3 3 5 4 4 5 8 3 3 1 2 2 2 4 2 3 5 0 3 3 3 4 1 1 1 1 2 0 3 1 4 6 7 8 5 5 1 2 3 4
3 5 1 3 2 3 2 5 3 4 5 5 2 4 4 3 4 4 2 1 3 1 4 2 2 6 5 2 5 3 2 1 1 2 5 6 5 5 6 4 3 4 3 3 4
1 2 3 5 2 1 3 4 5 4 3 3 1 3 4 4 2 2 3 4 2 4 3 3 2 3 3 7 7 3 3 4 3 2 3 4 6 2 6 6 6 5 5 5 5
3 2 7 4 2 3 3 2 1 5 3 1 4 5 3 1 2 1 2 4 4 1 2 4 3 3 8 4 5 1 5 7 3 4 4 3 7 7 7 6 6 6 6 7 6
2 1 4 4 3 3 0 3 4 1 1 1 1 4 4 1 1 1 2 5 4 4 2 2 2 3 1 2 2 4 5 6 6 3 6 2 6 4 5 6 7 7 7 6 7
2 2 2 3 3 6 4 2 3 1 1 2 3 2 1 3 2 0 4 3 5 3 2 1 3 6 5 3 2 6 8 8 10 4 7 15 17 12 8 8 9 9 9 10 9
3 1 1 2 3 2 1 1 4 3 2 2 3 5 3 2 3 3 3 4 5 5 2 2 4 6 9 13 12 16 17 14 15 15 13 19 16 17 12 12 13 12 12 11 11
3 2 2 2 0 6 1 3 4 3 2 4 3 1 2 3 4 3 2 4 4 6 3 5 4 5 7 13 16 18 19 19 20 21 20 22 26 17 14 10 5 7 5 10 10
6 3 2 2 2 2 2 3 2 3 2 5 4 3 6 4 7 6 6 8 6 4 7 4 2 3 5 8 12 13 12 20 17 8 9 15 20 9 6 6 5 6 7 8 9

GFSSW_925_spd_117.txt.gz
Wind_Speed
10 8 13 13 10 11 12 13 11 9 6 5 10 14 12 11 11 9 9 6 5 2 3 2 4 5 9 3 4 2 4 3 4 3 3 3 3 5 1 2 4 2 1 3 8
10 7 12 8 11 11 10 10 11 10 7 8 16 15 11 15 21 20 8 8 4 1 4 4 3 4 3 2 4 4 4 2 3 1 4 3 5 4 4 6 3 3 8 14 16
11 6 8 12 14 7 7 5 7 10 8 11 20 18 12 11 4 7 11 9 5 4 5 8 9 3 4 3 4 2 4 5 4 5 5 3 3 5 2 3 3 2 5 8 12
14 10 10 13 12 12 11 9 5 10 12 15 19 24 10 3 5 7 10 6 3 3 6 4 4 3 4 4 3 5 6 5 3 4 4 2 6 5 4 7 3 2 2 4 5
15 15 12 12 12 12 12 10 7 8 17 19 21 27 7 8 4 12 11 7 6 7 6 5 2 2 5 4 4 5 3 5 5 3 1 3 5 5 7 10 9 2 2 6 6
13 13 10 11 11 12 11 11 7 14 19 19 23 18 9 9 9 11 11 6 5 6 9 8 2 4 6 4 4 3 5 6 4 1 2 1 4 6 4 4 3 2 7 6 4
11 13 11 15 16 13 11 8 9 23 21 24 21 28 14 3 14 9 10 11 10 7 4 11 6 6 3 4 1 4 4 1 2 2 0 1 2 7 6 4 5 6 8 6 5
9 10 12 15 14 13 12 13 13 20 25 23 21 23 4 11 12 10 9 10 8 8 9 8 9 5 4 3 3 3 3 2 1 1 1 2 7 4 5 5 7 8 6 2 10
8 9 11 12 13 13 14 17 26 20 18 17 14 11 3 10 12 13 11 6 7 7 8 7 5 4 3 4 5 4 0 2 1 2 0 1 6 5 6 6 9 4 1 8 5
10 10 11 12 14 22 33 34 28 24 15 12 11 7 5 2 6 7 6 6 3 1 4 6 5 4 5 5 3 1 1 2 2 2 2 3 11 16 12 8 7 3 7 6 6
19 20 17 18 23 17 17 6 6 6 19 8 11 15 5 1 4 6 4 4 1 4 3 4 9 3 2 3 3 3 2 2 3 2 3 5 9 18 9 7 6 6 5 6 6
26 23 20 17 16 13 9 6 2 7 14 16 10 4 2 1 4 12 11 1 1 4 3 7 3 1 3 4 5 5 3 3 3 2 5 8 14 15 12 5 7 7 5 5 5
17 18 16 17 18 25 21 13 10 6 5 5 3 2 2 7 4 7 7 3 5 5 4 6 4 1 2 5 5 4 4 2 2 6 4 6 7 2 1 3 7 6 5 3 4
12 19 18 23 16 9 6 5 4 1 5 9 9 5 4 2 4 5 7 2 6 5 6 6 1 1 3 3 3 2 2 2 4 5 2 5 5 5 5 6 5 5 3 3 5
12 6 5 2 10 2 1 3 4 1 6 5 4 4 5 4 3 6 5 5 4 3 4 3 3 1 3 3 2 2 1 1 2 2 4 3 2 7 4 5 4 2 2 1 2
4 11 16 4 1 2 6 7 2 3 6 1 2 3 3 2 2 1 3 6 2 6 6 3 1 2 1 0 1 3 3 1 2 2 2 5 4 5 5 5 4 2 2 1 4
13 11 1 4 1 4 8 2 5 7 3 1 2 1 3 1 3 2 2 2 3 5 4 5 1 1 1 2 1 2 4 3 3 1 5 3 2 9 4 3 6 4 3 1 4
4 7 8 7 8 8 2 5 10 4 3 3 1 2 3 4 0 3 3 2 2 3 3 4 5 3 4 3 2 4 5 4 4 2 4 4 6 6 5 5 5 4 4 1 5
4 2 6 5 6 2 4 6 6 5 4 4 1 2 0 2 1 2 3 2 2 4 4 4 4 2 3 2 2 2 0 3 2 1 3 3 7 8 6 4 4 4 5 1 1
2 2 4 5 2 4 5 5 3 2 2 3 1 2 2 2 1 3 4 1 2 1 2 3 2 4 2 2 2 2 2 3 2 2 5 6 6 6 5 7 5 6 7 6 5
4 2 1 1 1 5 4 3 4 5 6 3 4 3 3 2 1 2 3 1 2 3 1 1 4 3 3 6 7 2 2 4 2 4 4 4 6 5 9 8 9 8 7 7 7
1 3 2 3 4 3 2 2 2 0 2 3 2 4 2 3 1 1 3 1 5 5 1 2 3 4 9 5 8 5 7 6 4 4 4 2 7 4 7 8 7 6 7 7 8
2 1 0 2 3 2 1 1 1 4 4 2 1 1 1 1 2 1 3 3 5 3 2 2 2 3 6 5 3 4 5 6 3 2 7 3 6 3 4 5 7 8 8 9 10
3 2 4 4 2 6 3 3 1 1 1 2 1 2 1 2 2 1 3 4 6 3 4 3 2 6 6 4 2 4 6 7 8 4 6 18 21 13 7 8 8 9 9 11 12
3 1 3 1 3 2 2 1 3 1 1 1 2 2 1 2 3 3 4 3 3 6 3 4 4 3 7 9 8 13 16 15 17 18 11 19 13 20 8 8 10 12 12 11 13
3 2 3 1 1 2 0 3 3 2 4 3 3 3 3 3 2 3 3 2 5 2 5 3 4 2 5 9 9 14 17 18 21 22 20 23 26 21 17 8 7 8 5 9 13
5 2 3 3 0 2 2 1 1 3 1 4 2 1 4 4 2 5 4 5 6 7 7 5 3 2 5 5 10 10 10 8 6 6 14 16 23 10 8 6 6 7 7 7 9